<?xml version="1.0" encoding="UTF-8" standalone="no" ?>
<gpx xmlns="http://www.topografix.com/GPX/1/1" xmlns:xsi="http://www.w3.org/2001/XMLSchema-instance" xsi:schemaLocation="http://www.topografix.com/GPX/1/1 http://www.topografix.com/GPX/1/1/gpx.xsd" version="1.1" creator="VisuGPX - https://www.visugpx.com">
  <metadata>
    <name>Giro del Pic de Rochebrun</name>
    <desc><![CDATA[Giro del Pic de Rochebrun]]></desc>
  </metadata>
  <wpt lat="44.80152" lon="6.7486">
    <ele>2323</ele>
    <name><![CDATA[Bivio lago Soulier]]></name>
  </wpt>
  <wpt lat="44.87053" lon="6.72524">
    <ele>1625.9</ele>
    <name><![CDATA[Cervie]]></name>
    <desc><![CDATA[Cervieres]]></desc>
    <cmt><![CDATA[Cervieres]]></cmt>
  </wpt>
  <wpt lat="44.81958" lon="6.73533">
    <ele>2346</ele>
    <name><![CDATA[Colle Galibier]]></name>
  </wpt>
  <wpt lat="44.81442" lon="6.80357">
    <ele>2622.6</ele>
    <name><![CDATA[Colle Peans]]></name>
  </wpt>
  <wpt lat="44.79642" lon="6.75695">
    <ele>2338</ele>
    <name><![CDATA[Colle Tronchet]]></name>
  </wpt>
  <wpt lat="44.84447" lon="6.81573">
    <ele>2069</ele>
    <name><![CDATA[Fonts]]></name>
  </wpt>
  <wpt lat="44.79236" lon="6.7889">
    <ele>2340</ele>
    <name><![CDATA[Ristoro]]></name>
  </wpt>
  <wpt lat="44.77488" lon="6.76875">
    <ele>1861</ele>
    <name><![CDATA[Souliers]]></name>
  </wpt>
  <trk>
    <name><![CDATA[ACTIVE LOG]]></name>
    <trkseg>
      <trkpt lat="44.87055" lon="6.72522">
        <ele>1536.8046875</ele>
        <time>2007-08-27T07:22:41Z</time>
      </trkpt>
      <trkpt lat="44.87046" lon="6.72546">
        <ele>1545.4565429688</ele>
        <time>2007-08-27T07:22:55Z</time>
      </trkpt>
      <trkpt lat="44.87046" lon="6.72546">
        <ele>1544.9758300781</ele>
        <time>2007-08-27T07:22:56Z</time>
      </trkpt>
      <trkpt lat="44.87046" lon="6.72548">
        <ele>1551.224609375</ele>
        <time>2007-08-27T07:22:58Z</time>
      </trkpt>
      <trkpt lat="44.87046" lon="6.7255">
        <ele>1556.51171875</ele>
        <time>2007-08-27T07:23:00Z</time>
      </trkpt>
      <trkpt lat="44.87044" lon="6.7255">
        <ele>1561.7990722656</ele>
        <time>2007-08-27T07:23:02Z</time>
      </trkpt>
      <trkpt lat="44.87044" lon="6.7255">
        <ele>1566.6057128906</ele>
        <time>2007-08-27T07:23:04Z</time>
      </trkpt>
      <trkpt lat="44.87044" lon="6.72552">
        <ele>1570.931640625</ele>
        <time>2007-08-27T07:23:06Z</time>
      </trkpt>
      <trkpt lat="44.87044" lon="6.72554">
        <ele>1574.7768554688</ele>
        <time>2007-08-27T07:23:08Z</time>
      </trkpt>
      <trkpt lat="44.87044" lon="6.72556">
        <ele>1578.1413574219</ele>
        <time>2007-08-27T07:23:10Z</time>
      </trkpt>
      <trkpt lat="44.87042" lon="6.72559">
        <ele>1581.9868164062</ele>
        <time>2007-08-27T07:23:12Z</time>
      </trkpt>
      <trkpt lat="44.87042" lon="6.72559">
        <ele>1584.8708496094</ele>
        <time>2007-08-27T07:23:14Z</time>
      </trkpt>
      <trkpt lat="44.87042" lon="6.72561">
        <ele>1589.6772460938</ele>
        <time>2007-08-27T07:23:17Z</time>
      </trkpt>
      <trkpt lat="44.8704" lon="6.72563">
        <ele>1593.0417480469</ele>
        <time>2007-08-27T07:23:20Z</time>
      </trkpt>
      <trkpt lat="44.8704" lon="6.72563">
        <ele>1596.4067382812</ele>
        <time>2007-08-27T07:23:23Z</time>
      </trkpt>
      <trkpt lat="44.87042" lon="6.72563">
        <ele>1599.7712402344</ele>
        <time>2007-08-27T07:23:26Z</time>
      </trkpt>
      <trkpt lat="44.87042" lon="6.72563">
        <ele>1602.6550292969</ele>
        <time>2007-08-27T07:23:30Z</time>
      </trkpt>
      <trkpt lat="44.8704" lon="6.72563">
        <ele>1606.5002441406</ele>
        <time>2007-08-27T07:23:32Z</time>
      </trkpt>
      <trkpt lat="44.8704" lon="6.72563">
        <ele>1606.01953125</ele>
        <time>2007-08-27T07:23:33Z</time>
      </trkpt>
      <trkpt lat="44.87037" lon="6.72565">
        <ele>1609.3842773438</ele>
        <time>2007-08-27T07:23:37Z</time>
      </trkpt>
      <trkpt lat="44.87037" lon="6.72567">
        <ele>1612.2683105469</ele>
        <time>2007-08-27T07:23:41Z</time>
      </trkpt>
      <trkpt lat="44.87035" lon="6.72569">
        <ele>1616.1135253906</ele>
        <time>2007-08-27T07:23:48Z</time>
      </trkpt>
      <trkpt lat="44.87035" lon="6.72569">
        <ele>1617.5554199219</ele>
        <time>2007-08-27T07:23:51Z</time>
      </trkpt>
      <trkpt lat="44.87033" lon="6.72571">
        <ele>1620.9201660156</ele>
        <time>2007-08-27T07:23:58Z</time>
      </trkpt>
      <trkpt lat="44.87033" lon="6.72571">
        <ele>1621.4006347656</ele>
        <time>2007-08-27T07:23:59Z</time>
      </trkpt>
      <trkpt lat="44.87033" lon="6.72574">
        <ele>1624.2846679688</ele>
        <time>2007-08-27T07:24:07Z</time>
      </trkpt>
      <trkpt lat="44.87031" lon="6.72576">
        <ele>1626.2072753906</ele>
        <time>2007-08-27T07:24:12Z</time>
      </trkpt>
      <trkpt lat="44.87031" lon="6.72576">
        <ele>1629.5720214844</ele>
        <time>2007-08-27T07:24:23Z</time>
      </trkpt>
      <trkpt lat="44.87029" lon="6.72578">
        <ele>1632.9365234375</ele>
        <time>2007-08-27T07:24:42Z</time>
      </trkpt>
      <trkpt lat="44.87031" lon="6.72578">
        <ele>1634.859375</ele>
        <time>2007-08-27T07:25:35Z</time>
      </trkpt>
      <trkpt lat="44.87029" lon="6.72574">
        <ele>1633.8979492188</ele>
        <time>2007-08-27T07:29:24Z</time>
      </trkpt>
      <trkpt lat="44.87025" lon="6.72571">
        <ele>1634.859375</ele>
        <time>2007-08-27T07:29:35Z</time>
      </trkpt>
      <trkpt lat="44.87027" lon="6.72584">
        <ele>1634.859375</ele>
        <time>2007-08-27T07:29:43Z</time>
      </trkpt>
      <trkpt lat="44.87042" lon="6.72597">
        <ele>1634.859375</ele>
        <time>2007-08-27T07:29:52Z</time>
      </trkpt>
      <trkpt lat="44.87037" lon="6.72589">
        <ele>1634.3786621094</ele>
        <time>2007-08-27T07:29:58Z</time>
      </trkpt>
      <trkpt lat="44.8701" lon="6.72599">
        <ele>1635.8205566406</ele>
        <time>2007-08-27T07:30:09Z</time>
      </trkpt>
      <trkpt lat="44.86973" lon="6.72616">
        <ele>1637.2624511719</ele>
        <time>2007-08-27T07:30:22Z</time>
      </trkpt>
      <trkpt lat="44.86932" lon="6.72565">
        <ele>1638.2238769531</ele>
        <time>2007-08-27T07:30:39Z</time>
      </trkpt>
      <trkpt lat="44.86892" lon="6.72539">
        <ele>1641.1076660156</ele>
        <time>2007-08-27T07:30:55Z</time>
      </trkpt>
      <trkpt lat="44.86859" lon="6.72509">
        <ele>1644.4724121094</ele>
        <time>2007-08-27T07:31:10Z</time>
      </trkpt>
      <trkpt lat="44.86823" lon="6.72481">
        <ele>1648.3176269531</ele>
        <time>2007-08-27T07:31:26Z</time>
      </trkpt>
      <trkpt lat="44.86784" lon="6.72473">
        <ele>1650.2404785156</ele>
        <time>2007-08-27T07:31:42Z</time>
      </trkpt>
      <trkpt lat="44.86743" lon="6.72466">
        <ele>1652.6435546875</ele>
        <time>2007-08-27T07:31:58Z</time>
      </trkpt>
      <trkpt lat="44.86701" lon="6.72473">
        <ele>1655.5275878906</ele>
        <time>2007-08-27T07:32:14Z</time>
      </trkpt>
      <trkpt lat="44.86677" lon="6.72481">
        <ele>1658.8920898438</ele>
        <time>2007-08-27T07:32:24Z</time>
      </trkpt>
      <trkpt lat="44.86649" lon="6.72471">
        <ele>1660.8149414062</ele>
        <time>2007-08-27T07:32:35Z</time>
      </trkpt>
      <trkpt lat="44.86613" lon="6.72451">
        <ele>1664.1794433594</ele>
        <time>2007-08-27T07:32:51Z</time>
      </trkpt>
      <trkpt lat="44.8657" lon="6.72456">
        <ele>1667.5439453125</ele>
        <time>2007-08-27T07:33:08Z</time>
      </trkpt>
      <trkpt lat="44.86518" lon="6.72458">
        <ele>1670.9086914062</ele>
        <time>2007-08-27T07:33:28Z</time>
      </trkpt>
      <trkpt lat="44.86469" lon="6.72441">
        <ele>1674.2731933594</ele>
        <time>2007-08-27T07:33:47Z</time>
      </trkpt>
      <trkpt lat="44.86432" lon="6.7243">
        <ele>1677.6379394531</ele>
        <time>2007-08-27T07:34:02Z</time>
      </trkpt>
      <trkpt lat="44.86402" lon="6.7243">
        <ele>1681.0026855469</ele>
        <time>2007-08-27T07:34:14Z</time>
      </trkpt>
      <trkpt lat="44.86362" lon="6.72441">
        <ele>1683.8864746094</ele>
        <time>2007-08-27T07:34:31Z</time>
      </trkpt>
      <trkpt lat="44.86314" lon="6.72462">
        <ele>1687.2509765625</ele>
        <time>2007-08-27T07:34:50Z</time>
      </trkpt>
      <trkpt lat="44.86284" lon="6.72486">
        <ele>1690.6154785156</ele>
        <time>2007-08-27T07:35:03Z</time>
      </trkpt>
      <trkpt lat="44.86256" lon="6.72496">
        <ele>1694.4609375</ele>
        <time>2007-08-27T07:35:16Z</time>
      </trkpt>
      <trkpt lat="44.86211" lon="6.7249">
        <ele>1695.9030761719</ele>
        <time>2007-08-27T07:35:33Z</time>
      </trkpt>
      <trkpt lat="44.86162" lon="6.72503">
        <ele>1698.7868652344</ele>
        <time>2007-08-27T07:35:53Z</time>
      </trkpt>
      <trkpt lat="44.86128" lon="6.72507">
        <ele>1702.6320800781</ele>
        <time>2007-08-27T07:36:08Z</time>
      </trkpt>
      <trkpt lat="44.86087" lon="6.72505">
        <ele>1705.5161132812</ele>
        <time>2007-08-27T07:36:25Z</time>
      </trkpt>
      <trkpt lat="44.8605" lon="6.72498">
        <ele>1708.880859375</ele>
        <time>2007-08-27T07:36:40Z</time>
      </trkpt>
      <trkpt lat="44.86003" lon="6.72492">
        <ele>1712.2453613281</ele>
        <time>2007-08-27T07:36:59Z</time>
      </trkpt>
      <trkpt lat="44.85958" lon="6.72496">
        <ele>1714.16796875</ele>
        <time>2007-08-27T07:37:17Z</time>
      </trkpt>
      <trkpt lat="44.85922" lon="6.72498">
        <ele>1717.5324707031</ele>
        <time>2007-08-27T07:37:32Z</time>
      </trkpt>
      <trkpt lat="44.85883" lon="6.72509">
        <ele>1719.9357910156</ele>
        <time>2007-08-27T07:37:49Z</time>
      </trkpt>
      <trkpt lat="44.85862" lon="6.7252">
        <ele>1722.8198242188</ele>
        <time>2007-08-27T07:37:59Z</time>
      </trkpt>
      <trkpt lat="44.85823" lon="6.72541">
        <ele>1726.1845703125</ele>
        <time>2007-08-27T07:38:16Z</time>
      </trkpt>
      <trkpt lat="44.85782" lon="6.72565">
        <ele>1728.587890625</ele>
        <time>2007-08-27T07:38:34Z</time>
      </trkpt>
      <trkpt lat="44.85748" lon="6.72586">
        <ele>1731.4716796875</ele>
        <time>2007-08-27T07:38:49Z</time>
      </trkpt>
      <trkpt lat="44.85701" lon="6.72614">
        <ele>1734.3557128906</ele>
        <time>2007-08-27T07:39:07Z</time>
      </trkpt>
      <trkpt lat="44.85664" lon="6.7264">
        <ele>1737.2395019531</ele>
        <time>2007-08-27T07:39:21Z</time>
      </trkpt>
      <trkpt lat="44.8561" lon="6.72679">
        <ele>1739.162109375</ele>
        <time>2007-08-27T07:39:40Z</time>
      </trkpt>
      <trkpt lat="44.856" lon="6.72689">
        <ele>1738.681640625</ele>
        <time>2007-08-27T07:39:45Z</time>
      </trkpt>
      <trkpt lat="44.85602" lon="6.72674">
        <ele>1739.162109375</ele>
        <time>2007-08-27T07:39:56Z</time>
      </trkpt>
      <trkpt lat="44.85602" lon="6.72679">
        <ele>1739.6428222656</ele>
        <time>2007-08-27T07:42:06Z</time>
      </trkpt>
      <trkpt lat="44.85602" lon="6.72677">
        <ele>1739.6428222656</ele>
        <time>2007-08-27T07:42:48Z</time>
      </trkpt>
      <trkpt lat="44.85598" lon="6.72685">
        <ele>1740.1237792969</ele>
        <time>2007-08-27T07:42:54Z</time>
      </trkpt>
      <trkpt lat="44.85555" lon="6.72711">
        <ele>1741.0849609375</ele>
        <time>2007-08-27T07:43:11Z</time>
      </trkpt>
      <trkpt lat="44.85484" lon="6.72711">
        <ele>1743.0075683594</ele>
        <time>2007-08-27T07:43:34Z</time>
      </trkpt>
      <trkpt lat="44.85437" lon="6.72672">
        <ele>1746.3723144531</ele>
        <time>2007-08-27T07:43:52Z</time>
      </trkpt>
      <trkpt lat="44.85411" lon="6.72606">
        <ele>1748.2946777344</ele>
        <time>2007-08-27T07:44:09Z</time>
      </trkpt>
      <trkpt lat="44.85387" lon="6.72561">
        <ele>1751.1787109375</ele>
        <time>2007-08-27T07:44:25Z</time>
      </trkpt>
      <trkpt lat="44.85355" lon="6.7252">
        <ele>1754.5432128906</ele>
        <time>2007-08-27T07:44:43Z</time>
      </trkpt>
      <trkpt lat="44.85329" lon="6.72488">
        <ele>1757.4274902344</ele>
        <time>2007-08-27T07:44:57Z</time>
      </trkpt>
      <trkpt lat="44.85299" lon="6.72451">
        <ele>1760.7919921875</ele>
        <time>2007-08-27T07:45:14Z</time>
      </trkpt>
      <trkpt lat="44.85295" lon="6.72445">
        <ele>1760.7919921875</ele>
        <time>2007-08-27T07:45:26Z</time>
      </trkpt>
      <trkpt lat="44.85295" lon="6.72445">
        <ele>1761.2727050781</ele>
        <time>2007-08-27T07:45:27Z</time>
      </trkpt>
      <trkpt lat="44.85282" lon="6.72445">
        <ele>1762.7145996094</ele>
        <time>2007-08-27T07:45:36Z</time>
      </trkpt>
      <trkpt lat="44.8528" lon="6.72445">
        <ele>1762.7145996094</ele>
        <time>2007-08-27T07:45:37Z</time>
      </trkpt>
      <trkpt lat="44.85248" lon="6.72438">
        <ele>1766.0791015625</ele>
        <time>2007-08-27T07:45:51Z</time>
      </trkpt>
      <trkpt lat="44.85224" lon="6.72441">
        <ele>1769.4438476562</ele>
        <time>2007-08-27T07:46:01Z</time>
      </trkpt>
      <trkpt lat="44.85171" lon="6.72449">
        <ele>1772.80859375</ele>
        <time>2007-08-27T07:46:23Z</time>
      </trkpt>
      <trkpt lat="44.85128" lon="6.7246">
        <ele>1775.2116699219</ele>
        <time>2007-08-27T07:46:40Z</time>
      </trkpt>
      <trkpt lat="44.85096" lon="6.72471">
        <ele>1778.5764160156</ele>
        <time>2007-08-27T07:46:54Z</time>
      </trkpt>
      <trkpt lat="44.85076" lon="6.72479">
        <ele>1781.4602050781</ele>
        <time>2007-08-27T07:47:04Z</time>
      </trkpt>
      <trkpt lat="44.85038" lon="6.72494">
        <ele>1784.8249511719</ele>
        <time>2007-08-27T07:47:22Z</time>
      </trkpt>
      <trkpt lat="44.84995" lon="6.72486">
        <ele>1788.6704101562</ele>
        <time>2007-08-27T07:47:42Z</time>
      </trkpt>
      <trkpt lat="44.84952" lon="6.72453">
        <ele>1792.515625</ele>
        <time>2007-08-27T07:48:03Z</time>
      </trkpt>
      <trkpt lat="44.84939" lon="6.72447">
        <ele>1794.4379882812</ele>
        <time>2007-08-27T07:48:09Z</time>
      </trkpt>
      <trkpt lat="44.84892" lon="6.72423">
        <ele>1797.3220214844</ele>
        <time>2007-08-27T07:48:31Z</time>
      </trkpt>
      <trkpt lat="44.84864" lon="6.7241">
        <ele>1800.6865234375</ele>
        <time>2007-08-27T07:48:44Z</time>
      </trkpt>
      <trkpt lat="44.84821" lon="6.724">
        <ele>1804.0515136719</ele>
        <time>2007-08-27T07:49:03Z</time>
      </trkpt>
      <trkpt lat="44.84776" lon="6.72413">
        <ele>1806.9353027344</ele>
        <time>2007-08-27T07:49:21Z</time>
      </trkpt>
      <trkpt lat="44.84754" lon="6.72438">
        <ele>1809.8190917969</ele>
        <time>2007-08-27T07:49:31Z</time>
      </trkpt>
      <trkpt lat="44.8472" lon="6.72481">
        <ele>1813.1838378906</ele>
        <time>2007-08-27T07:49:47Z</time>
      </trkpt>
      <trkpt lat="44.84688" lon="6.72516">
        <ele>1816.0676269531</ele>
        <time>2007-08-27T07:50:03Z</time>
      </trkpt>
      <trkpt lat="44.84643" lon="6.72548">
        <ele>1819.4323730469</ele>
        <time>2007-08-27T07:50:26Z</time>
      </trkpt>
      <trkpt lat="44.84604" lon="6.72559">
        <ele>1822.31640625</ele>
        <time>2007-08-27T07:50:44Z</time>
      </trkpt>
      <trkpt lat="44.84583" lon="6.72565">
        <ele>1825.6809082031</ele>
        <time>2007-08-27T07:50:54Z</time>
      </trkpt>
      <trkpt lat="44.84471" lon="6.72413">
        <ele>1839.1394042969</ele>
        <time>2007-08-27T07:51:56Z</time>
      </trkpt>
      <trkpt lat="44.84443" lon="6.72449">
        <ele>1840.5812988281</ele>
        <time>2007-08-27T07:52:05Z</time>
      </trkpt>
      <trkpt lat="44.8442" lon="6.72423">
        <ele>1842.9846191406</ele>
        <time>2007-08-27T07:52:20Z</time>
      </trkpt>
      <trkpt lat="44.84422" lon="6.72421">
        <ele>1842.9846191406</ele>
        <time>2007-08-27T07:52:21Z</time>
      </trkpt>
      <trkpt lat="44.84493" lon="6.72443">
        <ele>1846.3493652344</ele>
        <time>2007-08-27T07:52:43Z</time>
      </trkpt>
      <trkpt lat="44.84535" lon="6.72443">
        <ele>1847.7912597656</ele>
        <time>2007-08-27T07:52:54Z</time>
      </trkpt>
      <trkpt lat="44.84538" lon="6.72426">
        <ele>1848.2717285156</ele>
        <time>2007-08-27T07:52:58Z</time>
      </trkpt>
      <trkpt lat="44.84535" lon="6.72413">
        <ele>1849.7138671875</ele>
        <time>2007-08-27T07:53:01Z</time>
      </trkpt>
      <trkpt lat="44.84529" lon="6.72406">
        <ele>1850.1945800781</ele>
        <time>2007-08-27T07:53:04Z</time>
      </trkpt>
      <trkpt lat="44.84488" lon="6.72387">
        <ele>1853.0786132812</ele>
        <time>2007-08-27T07:53:20Z</time>
      </trkpt>
      <trkpt lat="44.84467" lon="6.72372">
        <ele>1855.9624023438</ele>
        <time>2007-08-27T07:53:30Z</time>
      </trkpt>
      <trkpt lat="44.8445" lon="6.72355">
        <ele>1859.3271484375</ele>
        <time>2007-08-27T07:53:40Z</time>
      </trkpt>
      <trkpt lat="44.84445" lon="6.72348">
        <ele>1860.2883300781</ele>
        <time>2007-08-27T07:53:43Z</time>
      </trkpt>
      <trkpt lat="44.84402" lon="6.72329">
        <ele>1863.6528320312</ele>
        <time>2007-08-27T07:54:05Z</time>
      </trkpt>
      <trkpt lat="44.84379" lon="6.72333">
        <ele>1867.017578125</ele>
        <time>2007-08-27T07:54:17Z</time>
      </trkpt>
      <trkpt lat="44.84332" lon="6.7234">
        <ele>1869.9016113281</ele>
        <time>2007-08-27T07:54:40Z</time>
      </trkpt>
      <trkpt lat="44.84306" lon="6.7234">
        <ele>1873.2663574219</ele>
        <time>2007-08-27T07:54:54Z</time>
      </trkpt>
      <trkpt lat="44.84276" lon="6.72335">
        <ele>1876.1501464844</ele>
        <time>2007-08-27T07:55:11Z</time>
      </trkpt>
      <trkpt lat="44.84233" lon="6.72348">
        <ele>1879.5146484375</ele>
        <time>2007-08-27T07:55:32Z</time>
      </trkpt>
      <trkpt lat="44.84199" lon="6.7235">
        <ele>1882.3986816406</ele>
        <time>2007-08-27T07:55:48Z</time>
      </trkpt>
      <trkpt lat="44.84177" lon="6.72346">
        <ele>1885.7634277344</ele>
        <time>2007-08-27T07:55:59Z</time>
      </trkpt>
      <trkpt lat="44.84141" lon="6.72348">
        <ele>1888.6474609375</ele>
        <time>2007-08-27T07:56:18Z</time>
      </trkpt>
      <trkpt lat="44.84121" lon="6.72344">
        <ele>1892.0119628906</ele>
        <time>2007-08-27T07:56:29Z</time>
      </trkpt>
      <trkpt lat="44.84087" lon="6.72331">
        <ele>1894.8957519531</ele>
        <time>2007-08-27T07:56:47Z</time>
      </trkpt>
      <trkpt lat="44.84051" lon="6.72323">
        <ele>1898.2602539062</ele>
        <time>2007-08-27T07:57:05Z</time>
      </trkpt>
      <trkpt lat="44.84048" lon="6.72323">
        <ele>1898.7409667969</ele>
        <time>2007-08-27T07:57:06Z</time>
      </trkpt>
      <trkpt lat="44.84001" lon="6.72318">
        <ele>1902.1057128906</ele>
        <time>2007-08-27T07:57:30Z</time>
      </trkpt>
      <trkpt lat="44.83967" lon="6.72325">
        <ele>1905.9509277344</ele>
        <time>2007-08-27T07:57:47Z</time>
      </trkpt>
      <trkpt lat="44.8393" lon="6.7232">
        <ele>1909.3156738281</ele>
        <time>2007-08-27T07:58:06Z</time>
      </trkpt>
      <trkpt lat="44.83896" lon="6.72316">
        <ele>1912.1994628906</ele>
        <time>2007-08-27T07:58:24Z</time>
      </trkpt>
      <trkpt lat="44.83892" lon="6.72316">
        <ele>1913.1608886719</ele>
        <time>2007-08-27T07:58:26Z</time>
      </trkpt>
      <trkpt lat="44.83851" lon="6.72331">
        <ele>1917.4868164062</ele>
        <time>2007-08-27T07:58:48Z</time>
      </trkpt>
      <trkpt lat="44.83823" lon="6.72325">
        <ele>1920.3708496094</ele>
        <time>2007-08-27T07:59:04Z</time>
      </trkpt>
      <trkpt lat="44.83793" lon="6.72305">
        <ele>1923.7353515625</ele>
        <time>2007-08-27T07:59:19Z</time>
      </trkpt>
      <trkpt lat="44.83791" lon="6.72303">
        <ele>1923.7353515625</ele>
        <time>2007-08-27T07:59:20Z</time>
      </trkpt>
      <trkpt lat="44.83757" lon="6.72288">
        <ele>1926.6193847656</ele>
        <time>2007-08-27T07:59:39Z</time>
      </trkpt>
      <trkpt lat="44.83716" lon="6.72275">
        <ele>1929.5031738281</ele>
        <time>2007-08-27T08:00:01Z</time>
      </trkpt>
      <trkpt lat="44.83709" lon="6.72273">
        <ele>1930.9453125</ele>
        <time>2007-08-27T08:00:04Z</time>
      </trkpt>
      <trkpt lat="44.83684" lon="6.72256">
        <ele>1933.8293457031</ele>
        <time>2007-08-27T08:00:19Z</time>
      </trkpt>
      <trkpt lat="44.83649" lon="6.72239">
        <ele>1936.7131347656</ele>
        <time>2007-08-27T08:00:39Z</time>
      </trkpt>
      <trkpt lat="44.83649" lon="6.72235">
        <ele>1937.1938476562</ele>
        <time>2007-08-27T08:00:43Z</time>
      </trkpt>
      <trkpt lat="44.83664" lon="6.72215">
        <ele>1941.5197753906</ele>
        <time>2007-08-27T08:01:02Z</time>
      </trkpt>
      <trkpt lat="44.8369" lon="6.722">
        <ele>1943.9230957031</ele>
        <time>2007-08-27T08:01:21Z</time>
      </trkpt>
      <trkpt lat="44.83705" lon="6.72207">
        <ele>1944.8842773438</ele>
        <time>2007-08-27T08:01:25Z</time>
      </trkpt>
      <trkpt lat="44.83727" lon="6.72211">
        <ele>1945.845703125</ele>
        <time>2007-08-27T08:01:32Z</time>
      </trkpt>
      <trkpt lat="44.83735" lon="6.72202">
        <ele>1945.845703125</ele>
        <time>2007-08-27T08:01:37Z</time>
      </trkpt>
      <trkpt lat="44.83718" lon="6.72192">
        <ele>1948.7297363281</ele>
        <time>2007-08-27T08:01:52Z</time>
      </trkpt>
      <trkpt lat="44.83688" lon="6.72192">
        <ele>1952.0942382812</ele>
        <time>2007-08-27T08:02:09Z</time>
      </trkpt>
      <trkpt lat="44.83647" lon="6.7217">
        <ele>1954.9782714844</ele>
        <time>2007-08-27T08:02:35Z</time>
      </trkpt>
      <trkpt lat="44.83624" lon="6.72157">
        <ele>1958.3427734375</ele>
        <time>2007-08-27T08:02:50Z</time>
      </trkpt>
      <trkpt lat="44.836" lon="6.72142">
        <ele>1961.2268066406</ele>
        <time>2007-08-27T08:03:05Z</time>
      </trkpt>
      <trkpt lat="44.83574" lon="6.72142">
        <ele>1964.5915527344</ele>
        <time>2007-08-27T08:03:20Z</time>
      </trkpt>
      <trkpt lat="44.83548" lon="6.72151">
        <ele>1968.4367675781</ele>
        <time>2007-08-27T08:03:36Z</time>
      </trkpt>
      <trkpt lat="44.8351" lon="6.72164">
        <ele>1971.3205566406</ele>
        <time>2007-08-27T08:03:58Z</time>
      </trkpt>
      <trkpt lat="44.83529" lon="6.72239">
        <ele>1976.6079101562</ele>
        <time>2007-08-27T08:04:27Z</time>
      </trkpt>
      <trkpt lat="44.83529" lon="6.72241">
        <ele>1977.5690917969</ele>
        <time>2007-08-27T08:04:28Z</time>
      </trkpt>
      <trkpt lat="44.83508" lon="6.72305">
        <ele>1977.5690917969</ele>
        <time>2007-08-27T08:04:33Z</time>
      </trkpt>
      <trkpt lat="44.83488" lon="6.72303">
        <ele>1978.5305175781</ele>
        <time>2007-08-27T08:04:42Z</time>
      </trkpt>
      <trkpt lat="44.83497" lon="6.72232">
        <ele>1982.3759765625</ele>
        <time>2007-08-27T08:05:07Z</time>
      </trkpt>
      <trkpt lat="44.83508" lon="6.72166">
        <ele>1985.259765625</ele>
        <time>2007-08-27T08:05:30Z</time>
      </trkpt>
      <trkpt lat="44.8351" lon="6.72132">
        <ele>1986.7016601562</ele>
        <time>2007-08-27T08:05:41Z</time>
      </trkpt>
      <trkpt lat="44.8348" lon="6.72179">
        <ele>1989.5856933594</ele>
        <time>2007-08-27T08:05:58Z</time>
      </trkpt>
      <trkpt lat="44.83467" lon="6.7222">
        <ele>1992.4697265625</ele>
        <time>2007-08-27T08:06:11Z</time>
      </trkpt>
      <trkpt lat="44.83454" lon="6.72269">
        <ele>1995.353515625</ele>
        <time>2007-08-27T08:06:28Z</time>
      </trkpt>
      <trkpt lat="44.83454" lon="6.72275">
        <ele>1996.3151855469</ele>
        <time>2007-08-27T08:06:30Z</time>
      </trkpt>
      <trkpt lat="44.83443" lon="6.72305">
        <ele>1999.1989746094</ele>
        <time>2007-08-27T08:06:41Z</time>
      </trkpt>
      <trkpt lat="44.83426" lon="6.72335">
        <ele>2002.5634765625</ele>
        <time>2007-08-27T08:06:54Z</time>
      </trkpt>
      <trkpt lat="44.83398" lon="6.72361">
        <ele>2004.966796875</ele>
        <time>2007-08-27T08:07:11Z</time>
      </trkpt>
      <trkpt lat="44.83392" lon="6.72344">
        <ele>2006.4086914062</ele>
        <time>2007-08-27T08:07:19Z</time>
      </trkpt>
      <trkpt lat="44.83405" lon="6.72323">
        <ele>2008.3312988281</ele>
        <time>2007-08-27T08:07:28Z</time>
      </trkpt>
      <trkpt lat="44.83422" lon="6.72275">
        <ele>2011.2153320312</ele>
        <time>2007-08-27T08:07:46Z</time>
      </trkpt>
      <trkpt lat="44.8343" lon="6.72239">
        <ele>2013.1381835938</ele>
        <time>2007-08-27T08:08:01Z</time>
      </trkpt>
      <trkpt lat="44.83411" lon="6.72237">
        <ele>2015.0607910156</ele>
        <time>2007-08-27T08:08:09Z</time>
      </trkpt>
      <trkpt lat="44.83394" lon="6.7226">
        <ele>2017.4638671875</ele>
        <time>2007-08-27T08:08:19Z</time>
      </trkpt>
      <trkpt lat="44.83364" lon="6.7229">
        <ele>2020.8286132812</ele>
        <time>2007-08-27T08:08:34Z</time>
      </trkpt>
      <trkpt lat="44.83327" lon="6.72312">
        <ele>2024.1931152344</ele>
        <time>2007-08-27T08:08:53Z</time>
      </trkpt>
      <trkpt lat="44.83291" lon="6.7234">
        <ele>2027.5576171875</ele>
        <time>2007-08-27T08:09:12Z</time>
      </trkpt>
      <trkpt lat="44.83276" lon="6.72333">
        <ele>2030.9226074219</ele>
        <time>2007-08-27T08:09:24Z</time>
      </trkpt>
      <trkpt lat="44.83293" lon="6.72295">
        <ele>2033.3256835938</ele>
        <time>2007-08-27T08:09:39Z</time>
      </trkpt>
      <trkpt lat="44.83321" lon="6.72262">
        <ele>2036.6901855469</ele>
        <time>2007-08-27T08:09:55Z</time>
      </trkpt>
      <trkpt lat="44.83366" lon="6.72217">
        <ele>2037.6516113281</ele>
        <time>2007-08-27T08:10:17Z</time>
      </trkpt>
      <trkpt lat="44.83368" lon="6.72192">
        <ele>2038.1323242188</ele>
        <time>2007-08-27T08:10:23Z</time>
      </trkpt>
      <trkpt lat="44.83345" lon="6.72213">
        <ele>2039.0935058594</ele>
        <time>2007-08-27T08:10:36Z</time>
      </trkpt>
      <trkpt lat="44.83317" lon="6.72237">
        <ele>2042.4582519531</ele>
        <time>2007-08-27T08:10:51Z</time>
      </trkpt>
      <trkpt lat="44.83295" lon="6.72241">
        <ele>2045.3422851562</ele>
        <time>2007-08-27T08:11:05Z</time>
      </trkpt>
      <trkpt lat="44.83267" lon="6.72247">
        <ele>2048.7067871094</ele>
        <time>2007-08-27T08:11:22Z</time>
      </trkpt>
      <trkpt lat="44.83248" lon="6.7225">
        <ele>2051.5908203125</ele>
        <time>2007-08-27T08:11:34Z</time>
      </trkpt>
      <trkpt lat="44.83214" lon="6.72267">
        <ele>2054.9553222656</ele>
        <time>2007-08-27T08:11:56Z</time>
      </trkpt>
      <trkpt lat="44.83188" lon="6.72305">
        <ele>2057.8393554688</ele>
        <time>2007-08-27T08:12:17Z</time>
      </trkpt>
      <trkpt lat="44.8319" lon="6.72331">
        <ele>2060.7233886719</ele>
        <time>2007-08-27T08:12:27Z</time>
      </trkpt>
      <trkpt lat="44.83194" lon="6.72335">
        <ele>2062.1652832031</ele>
        <time>2007-08-27T08:12:30Z</time>
      </trkpt>
      <trkpt lat="44.83205" lon="6.72374">
        <ele>2065.0493164062</ele>
        <time>2007-08-27T08:12:45Z</time>
      </trkpt>
      <trkpt lat="44.83209" lon="6.72404">
        <ele>2066.9719238281</ele>
        <time>2007-08-27T08:12:56Z</time>
      </trkpt>
      <trkpt lat="44.83199" lon="6.724">
        <ele>2067.4523925781</ele>
        <time>2007-08-27T08:13:05Z</time>
      </trkpt>
      <trkpt lat="44.8319" lon="6.7235">
        <ele>2068.89453125</ele>
        <time>2007-08-27T08:13:23Z</time>
      </trkpt>
      <trkpt lat="44.83179" lon="6.72333">
        <ele>2070.8171386719</ele>
        <time>2007-08-27T08:13:32Z</time>
      </trkpt>
      <trkpt lat="44.83162" lon="6.72348">
        <ele>2071.2976074219</ele>
        <time>2007-08-27T08:13:40Z</time>
      </trkpt>
      <trkpt lat="44.83164" lon="6.72376">
        <ele>2073.2204589844</ele>
        <time>2007-08-27T08:13:48Z</time>
      </trkpt>
      <trkpt lat="44.83171" lon="6.72404">
        <ele>2076.1044921875</ele>
        <time>2007-08-27T08:13:57Z</time>
      </trkpt>
      <trkpt lat="44.83171" lon="6.72408">
        <ele>2077.0659179688</ele>
        <time>2007-08-27T08:13:59Z</time>
      </trkpt>
      <trkpt lat="44.83143" lon="6.72441">
        <ele>2079.9497070312</ele>
        <time>2007-08-27T08:14:19Z</time>
      </trkpt>
      <trkpt lat="44.83126" lon="6.72443">
        <ele>2084.2756347656</ele>
        <time>2007-08-27T08:14:30Z</time>
      </trkpt>
      <trkpt lat="44.83113" lon="6.72426">
        <ele>2084.7563476562</ele>
        <time>2007-08-27T08:14:40Z</time>
      </trkpt>
      <trkpt lat="44.83091" lon="6.72406">
        <ele>2088.1208496094</ele>
        <time>2007-08-27T08:14:56Z</time>
      </trkpt>
      <trkpt lat="44.83055" lon="6.724">
        <ele>2091.0046386719</ele>
        <time>2007-08-27T08:15:17Z</time>
      </trkpt>
      <trkpt lat="44.83027" lon="6.72432">
        <ele>2093.8889160156</ele>
        <time>2007-08-27T08:15:35Z</time>
      </trkpt>
      <trkpt lat="44.83021" lon="6.72441">
        <ele>2095.3308105469</ele>
        <time>2007-08-27T08:15:39Z</time>
      </trkpt>
      <trkpt lat="44.83012" lon="6.72436">
        <ele>2096.2922363281</ele>
        <time>2007-08-27T08:15:43Z</time>
      </trkpt>
      <trkpt lat="44.83021" lon="6.72419">
        <ele>2097.2534179688</ele>
        <time>2007-08-27T08:15:51Z</time>
      </trkpt>
      <trkpt lat="44.83044" lon="6.72387">
        <ele>2099.1760253906</ele>
        <time>2007-08-27T08:16:10Z</time>
      </trkpt>
      <trkpt lat="44.83053" lon="6.72368">
        <ele>2101.5793457031</ele>
        <time>2007-08-27T08:16:18Z</time>
      </trkpt>
      <trkpt lat="44.83046" lon="6.72325">
        <ele>2104.4631347656</ele>
        <time>2007-08-27T08:16:35Z</time>
      </trkpt>
      <trkpt lat="44.83014" lon="6.72314">
        <ele>2107.3471679688</ele>
        <time>2007-08-27T08:16:52Z</time>
      </trkpt>
      <trkpt lat="44.82969" lon="6.72346">
        <ele>2110.7119140625</ele>
        <time>2007-08-27T08:17:14Z</time>
      </trkpt>
      <trkpt lat="44.82943" lon="6.72372">
        <ele>2114.0764160156</ele>
        <time>2007-08-27T08:17:30Z</time>
      </trkpt>
      <trkpt lat="44.82911" lon="6.724">
        <ele>2115.9990234375</ele>
        <time>2007-08-27T08:17:49Z</time>
      </trkpt>
      <trkpt lat="44.82883" lon="6.72423">
        <ele>2118.8830566406</ele>
        <time>2007-08-27T08:18:06Z</time>
      </trkpt>
      <trkpt lat="44.82855" lon="6.72449">
        <ele>2121.7668457031</ele>
        <time>2007-08-27T08:18:24Z</time>
      </trkpt>
      <trkpt lat="44.82834" lon="6.72464">
        <ele>2124.6511230469</ele>
        <time>2007-08-27T08:18:37Z</time>
      </trkpt>
      <trkpt lat="44.82804" lon="6.7249">
        <ele>2128.015625</ele>
        <time>2007-08-27T08:18:57Z</time>
      </trkpt>
      <trkpt lat="44.82789" lon="6.72501">
        <ele>2130.8996582031</ele>
        <time>2007-08-27T08:19:06Z</time>
      </trkpt>
      <trkpt lat="44.82754" lon="6.72524">
        <ele>2133.7834472656</ele>
        <time>2007-08-27T08:19:26Z</time>
      </trkpt>
      <trkpt lat="44.82748" lon="6.72526">
        <ele>2134.2641601562</ele>
        <time>2007-08-27T08:19:30Z</time>
      </trkpt>
      <trkpt lat="44.82742" lon="6.72513">
        <ele>2136.1867675781</ele>
        <time>2007-08-27T08:19:36Z</time>
      </trkpt>
      <trkpt lat="44.82724" lon="6.72498">
        <ele>2138.5900878906</ele>
        <time>2007-08-27T08:19:49Z</time>
      </trkpt>
      <trkpt lat="44.82724" lon="6.72498">
        <ele>2138.109375</ele>
        <time>2007-08-27T08:19:50Z</time>
      </trkpt>
      <trkpt lat="44.82724" lon="6.72494">
        <ele>2139.0705566406</ele>
        <time>2007-08-27T08:20:08Z</time>
      </trkpt>
      <trkpt lat="44.82718" lon="6.72496">
        <ele>2138.109375</ele>
        <time>2007-08-27T08:20:45Z</time>
      </trkpt>
      <trkpt lat="44.82709" lon="6.72498">
        <ele>2138.5900878906</ele>
        <time>2007-08-27T08:21:04Z</time>
      </trkpt>
      <trkpt lat="44.82707" lon="6.72498">
        <ele>2139.0705566406</ele>
        <time>2007-08-27T08:22:15Z</time>
      </trkpt>
      <trkpt lat="44.82716" lon="6.72505">
        <ele>2139.0705566406</ele>
        <time>2007-08-27T08:22:19Z</time>
      </trkpt>
      <trkpt lat="44.82727" lon="6.72518">
        <ele>2138.109375</ele>
        <time>2007-08-27T08:22:22Z</time>
      </trkpt>
      <trkpt lat="44.82724" lon="6.72535">
        <ele>2137.6286621094</ele>
        <time>2007-08-27T08:22:29Z</time>
      </trkpt>
      <trkpt lat="44.82722" lon="6.72537">
        <ele>2138.5900878906</ele>
        <time>2007-08-27T08:22:31Z</time>
      </trkpt>
      <trkpt lat="44.8269" lon="6.72589">
        <ele>2140.9934082031</ele>
        <time>2007-08-27T08:22:54Z</time>
      </trkpt>
      <trkpt lat="44.8269" lon="6.72591">
        <ele>2140.5126953125</ele>
        <time>2007-08-27T08:22:55Z</time>
      </trkpt>
      <trkpt lat="44.82727" lon="6.72634">
        <ele>2143.8774414062</ele>
        <time>2007-08-27T08:23:14Z</time>
      </trkpt>
      <trkpt lat="44.82769" lon="6.72644">
        <ele>2147.2419433594</ele>
        <time>2007-08-27T08:23:33Z</time>
      </trkpt>
      <trkpt lat="44.828" lon="6.72651">
        <ele>2150.1259765625</ele>
        <time>2007-08-27T08:23:48Z</time>
      </trkpt>
      <trkpt lat="44.82819" lon="6.72664">
        <ele>2152.5290527344</ele>
        <time>2007-08-27T08:23:58Z</time>
      </trkpt>
      <trkpt lat="44.82842" lon="6.72717">
        <ele>2155.4130859375</ele>
        <time>2007-08-27T08:24:22Z</time>
      </trkpt>
      <trkpt lat="44.82851" lon="6.72752">
        <ele>2157.8166503906</ele>
        <time>2007-08-27T08:24:37Z</time>
      </trkpt>
      <trkpt lat="44.82847" lon="6.72775">
        <ele>2161.1811523438</ele>
        <time>2007-08-27T08:24:48Z</time>
      </trkpt>
      <trkpt lat="44.82842" lon="6.72784">
        <ele>2161.6618652344</ele>
        <time>2007-08-27T08:24:52Z</time>
      </trkpt>
      <trkpt lat="44.82836" lon="6.72784">
        <ele>2162.1423339844</ele>
        <time>2007-08-27T08:24:55Z</time>
      </trkpt>
      <trkpt lat="44.8283" lon="6.72777">
        <ele>2162.623046875</ele>
        <time>2007-08-27T08:25:00Z</time>
      </trkpt>
      <trkpt lat="44.82797" lon="6.72739">
        <ele>2166.4682617188</ele>
        <time>2007-08-27T08:25:19Z</time>
      </trkpt>
      <trkpt lat="44.82772" lon="6.72732">
        <ele>2169.3522949219</ele>
        <time>2007-08-27T08:25:33Z</time>
      </trkpt>
      <trkpt lat="44.8275" lon="6.7273">
        <ele>2172.7170410156</ele>
        <time>2007-08-27T08:25:45Z</time>
      </trkpt>
      <trkpt lat="44.82709" lon="6.72737">
        <ele>2175.1201171875</ele>
        <time>2007-08-27T08:26:07Z</time>
      </trkpt>
      <trkpt lat="44.82686" lon="6.72747">
        <ele>2178.4848632812</ele>
        <time>2007-08-27T08:26:19Z</time>
      </trkpt>
      <trkpt lat="44.8266" lon="6.72777">
        <ele>2181.8493652344</ele>
        <time>2007-08-27T08:26:36Z</time>
      </trkpt>
      <trkpt lat="44.82628" lon="6.7281">
        <ele>2185.6945800781</ele>
        <time>2007-08-27T08:26:56Z</time>
      </trkpt>
      <trkpt lat="44.82626" lon="6.7281">
        <ele>2185.6945800781</ele>
        <time>2007-08-27T08:26:57Z</time>
      </trkpt>
      <trkpt lat="44.82611" lon="6.72831">
        <ele>2188.0981445312</ele>
        <time>2007-08-27T08:27:08Z</time>
      </trkpt>
      <trkpt lat="44.82619" lon="6.72842">
        <ele>2188.5788574219</ele>
        <time>2007-08-27T08:27:13Z</time>
      </trkpt>
      <trkpt lat="44.82624" lon="6.72844">
        <ele>2188.0981445312</ele>
        <time>2007-08-27T08:27:15Z</time>
      </trkpt>
      <trkpt lat="44.82641" lon="6.72844">
        <ele>2188.5788574219</ele>
        <time>2007-08-27T08:27:20Z</time>
      </trkpt>
      <trkpt lat="44.82682" lon="6.72865">
        <ele>2190.9819335938</ele>
        <time>2007-08-27T08:27:38Z</time>
      </trkpt>
      <trkpt lat="44.82712" lon="6.72906">
        <ele>2194.3464355469</ele>
        <time>2007-08-27T08:27:55Z</time>
      </trkpt>
      <trkpt lat="44.82716" lon="6.72945">
        <ele>2195.7885742188</ele>
        <time>2007-08-27T08:28:08Z</time>
      </trkpt>
      <trkpt lat="44.82682" lon="6.72975">
        <ele>2197.23046875</ele>
        <time>2007-08-27T08:28:27Z</time>
      </trkpt>
      <trkpt lat="44.82651" lon="6.73001">
        <ele>2200.5949707031</ele>
        <time>2007-08-27T08:28:44Z</time>
      </trkpt>
      <trkpt lat="44.82626" lon="6.73024">
        <ele>2203.9597167969</ele>
        <time>2007-08-27T08:28:59Z</time>
      </trkpt>
      <trkpt lat="44.82598" lon="6.73046">
        <ele>2206.84375</ele>
        <time>2007-08-27T08:29:15Z</time>
      </trkpt>
      <trkpt lat="44.82574" lon="6.73069">
        <ele>2210.2082519531</ele>
        <time>2007-08-27T08:29:29Z</time>
      </trkpt>
      <trkpt lat="44.82557" lon="6.73089">
        <ele>2213.0922851562</ele>
        <time>2007-08-27T08:29:41Z</time>
      </trkpt>
      <trkpt lat="44.82529" lon="6.7311">
        <ele>2215.0148925781</ele>
        <time>2007-08-27T08:29:58Z</time>
      </trkpt>
      <trkpt lat="44.82512" lon="6.73116">
        <ele>2217.41796875</ele>
        <time>2007-08-27T08:30:07Z</time>
      </trkpt>
      <trkpt lat="44.82506" lon="6.73121">
        <ele>2217.41796875</ele>
        <time>2007-08-27T08:30:11Z</time>
      </trkpt>
      <trkpt lat="44.82486" lon="6.7314">
        <ele>2221.2634277344</ele>
        <time>2007-08-27T08:30:23Z</time>
      </trkpt>
      <trkpt lat="44.82469" lon="6.73166">
        <ele>2224.1474609375</ele>
        <time>2007-08-27T08:30:37Z</time>
      </trkpt>
      <trkpt lat="44.8243" lon="6.73196">
        <ele>2227.0314941406</ele>
        <time>2007-08-27T08:30:59Z</time>
      </trkpt>
      <trkpt lat="44.82394" lon="6.73207">
        <ele>2228.9538574219</ele>
        <time>2007-08-27T08:31:18Z</time>
      </trkpt>
      <trkpt lat="44.82373" lon="6.73228">
        <ele>2232.3186035156</ele>
        <time>2007-08-27T08:31:31Z</time>
      </trkpt>
      <trkpt lat="44.82353" lon="6.73234">
        <ele>2235.6831054688</ele>
        <time>2007-08-27T08:31:42Z</time>
      </trkpt>
      <trkpt lat="44.82345" lon="6.73228">
        <ele>2236.1640625</ele>
        <time>2007-08-27T08:31:46Z</time>
      </trkpt>
      <trkpt lat="44.82342" lon="6.73181">
        <ele>2237.6059570312</ele>
        <time>2007-08-27T08:32:01Z</time>
      </trkpt>
      <trkpt lat="44.82342" lon="6.73177">
        <ele>2238.5673828125</ele>
        <time>2007-08-27T08:32:03Z</time>
      </trkpt>
      <trkpt lat="44.82325" lon="6.73179">
        <ele>2239.0478515625</ele>
        <time>2007-08-27T08:32:11Z</time>
      </trkpt>
      <trkpt lat="44.82302" lon="6.73204">
        <ele>2242.8930664062</ele>
        <time>2007-08-27T08:32:26Z</time>
      </trkpt>
      <trkpt lat="44.82274" lon="6.73198">
        <ele>2245.7770996094</ele>
        <time>2007-08-27T08:32:40Z</time>
      </trkpt>
      <trkpt lat="44.82259" lon="6.73164">
        <ele>2247.2189941406</ele>
        <time>2007-08-27T08:32:54Z</time>
      </trkpt>
      <trkpt lat="44.82255" lon="6.73125">
        <ele>2250.5834960938</ele>
        <time>2007-08-27T08:33:09Z</time>
      </trkpt>
      <trkpt lat="44.8225" lon="6.73119">
        <ele>2250.5834960938</ele>
        <time>2007-08-27T08:33:12Z</time>
      </trkpt>
      <trkpt lat="44.82244" lon="6.73116">
        <ele>2251.0642089844</ele>
        <time>2007-08-27T08:33:16Z</time>
      </trkpt>
      <trkpt lat="44.82237" lon="6.73125">
        <ele>2251.544921875</ele>
        <time>2007-08-27T08:33:21Z</time>
      </trkpt>
      <trkpt lat="44.82231" lon="6.73166">
        <ele>2254.4289550781</ele>
        <time>2007-08-27T08:33:35Z</time>
      </trkpt>
      <trkpt lat="44.8222" lon="6.73204">
        <ele>2258.2741699219</ele>
        <time>2007-08-27T08:33:50Z</time>
      </trkpt>
      <trkpt lat="44.82218" lon="6.73256">
        <ele>2260.6774902344</ele>
        <time>2007-08-27T08:34:09Z</time>
      </trkpt>
      <trkpt lat="44.82231" lon="6.73301">
        <ele>2263.0808105469</ele>
        <time>2007-08-27T08:34:25Z</time>
      </trkpt>
      <trkpt lat="44.82267" lon="6.73325">
        <ele>2265.4841308594</ele>
        <time>2007-08-27T08:34:41Z</time>
      </trkpt>
      <trkpt lat="44.82285" lon="6.73363">
        <ele>2267.4064941406</ele>
        <time>2007-08-27T08:34:57Z</time>
      </trkpt>
      <trkpt lat="44.8225" lon="6.73391">
        <ele>2270.2907714844</ele>
        <time>2007-08-27T08:35:17Z</time>
      </trkpt>
      <trkpt lat="44.82222" lon="6.7338">
        <ele>2273.6552734375</ele>
        <time>2007-08-27T08:35:31Z</time>
      </trkpt>
      <trkpt lat="44.82212" lon="6.73372">
        <ele>2273.6552734375</ele>
        <time>2007-08-27T08:35:36Z</time>
      </trkpt>
      <trkpt lat="44.82199" lon="6.73337">
        <ele>2277.9812011719</ele>
        <time>2007-08-27T08:35:49Z</time>
      </trkpt>
      <trkpt lat="44.82197" lon="6.73292">
        <ele>2279.4230957031</ele>
        <time>2007-08-27T08:36:04Z</time>
      </trkpt>
      <trkpt lat="44.82179" lon="6.7329">
        <ele>2281.345703125</ele>
        <time>2007-08-27T08:36:12Z</time>
      </trkpt>
      <trkpt lat="44.82171" lon="6.73305">
        <ele>2280.865234375</ele>
        <time>2007-08-27T08:36:17Z</time>
      </trkpt>
      <trkpt lat="44.82173" lon="6.73318">
        <ele>2281.345703125</ele>
        <time>2007-08-27T08:36:21Z</time>
      </trkpt>
      <trkpt lat="44.82184" lon="6.7337">
        <ele>2284.7106933594</ele>
        <time>2007-08-27T08:36:38Z</time>
      </trkpt>
      <trkpt lat="44.82179" lon="6.73406">
        <ele>2287.1137695312</ele>
        <time>2007-08-27T08:36:51Z</time>
      </trkpt>
      <trkpt lat="44.82175" lon="6.73436">
        <ele>2290.4782714844</ele>
        <time>2007-08-27T08:37:02Z</time>
      </trkpt>
      <trkpt lat="44.82173" lon="6.73438">
        <ele>2290.958984375</ele>
        <time>2007-08-27T08:37:03Z</time>
      </trkpt>
      <trkpt lat="44.82182" lon="6.73481">
        <ele>2294.3234863281</ele>
        <time>2007-08-27T08:37:20Z</time>
      </trkpt>
      <trkpt lat="44.82182" lon="6.73486">
        <ele>2294.3234863281</ele>
        <time>2007-08-27T08:37:22Z</time>
      </trkpt>
      <trkpt lat="44.82203" lon="6.73518">
        <ele>2295.765625</ele>
        <time>2007-08-27T08:37:37Z</time>
      </trkpt>
      <trkpt lat="44.82227" lon="6.73554">
        <ele>2299.6108398438</ele>
        <time>2007-08-27T08:37:55Z</time>
      </trkpt>
      <trkpt lat="44.82229" lon="6.73558">
        <ele>2300.091796875</ele>
        <time>2007-08-27T08:37:57Z</time>
      </trkpt>
      <trkpt lat="44.82255" lon="6.73589">
        <ele>2302.9755859375</ele>
        <time>2007-08-27T08:38:13Z</time>
      </trkpt>
      <trkpt lat="44.82255" lon="6.73591">
        <ele>2302.9755859375</ele>
        <time>2007-08-27T08:38:14Z</time>
      </trkpt>
      <trkpt lat="44.8225" lon="6.73604">
        <ele>2304.4174804688</ele>
        <time>2007-08-27T08:38:19Z</time>
      </trkpt>
      <trkpt lat="44.8222" lon="6.73606">
        <ele>2306.3400878906</ele>
        <time>2007-08-27T08:38:32Z</time>
      </trkpt>
      <trkpt lat="44.82186" lon="6.73593">
        <ele>2308.7434082031</ele>
        <time>2007-08-27T08:38:49Z</time>
      </trkpt>
      <trkpt lat="44.82152" lon="6.73578">
        <ele>2311.6274414062</ele>
        <time>2007-08-27T08:39:07Z</time>
      </trkpt>
      <trkpt lat="44.82134" lon="6.73567">
        <ele>2314.9919433594</ele>
        <time>2007-08-27T08:39:16Z</time>
      </trkpt>
      <trkpt lat="44.82132" lon="6.73567">
        <ele>2314.9919433594</ele>
        <time>2007-08-27T08:39:17Z</time>
      </trkpt>
      <trkpt lat="44.82106" lon="6.7355">
        <ele>2318.3566894531</ele>
        <time>2007-08-27T08:39:31Z</time>
      </trkpt>
      <trkpt lat="44.82087" lon="6.73516">
        <ele>2321.2404785156</ele>
        <time>2007-08-27T08:39:43Z</time>
      </trkpt>
      <trkpt lat="44.82091" lon="6.73475">
        <ele>2324.1245117188</ele>
        <time>2007-08-27T08:39:58Z</time>
      </trkpt>
      <trkpt lat="44.82104" lon="6.73434">
        <ele>2325.56640625</ele>
        <time>2007-08-27T08:40:14Z</time>
      </trkpt>
      <trkpt lat="44.82102" lon="6.73421">
        <ele>2326.5278320312</ele>
        <time>2007-08-27T08:40:18Z</time>
      </trkpt>
      <trkpt lat="44.82079" lon="6.73423">
        <ele>2329.4116210938</ele>
        <time>2007-08-27T08:40:29Z</time>
      </trkpt>
      <trkpt lat="44.82074" lon="6.73436">
        <ele>2329.4116210938</ele>
        <time>2007-08-27T08:40:33Z</time>
      </trkpt>
      <trkpt lat="44.82053" lon="6.73483">
        <ele>2330.8537597656</ele>
        <time>2007-08-27T08:40:49Z</time>
      </trkpt>
      <trkpt lat="44.82038" lon="6.73509">
        <ele>2334.2185058594</ele>
        <time>2007-08-27T08:40:58Z</time>
      </trkpt>
      <trkpt lat="44.82036" lon="6.73516">
        <ele>2335.1796875</ele>
        <time>2007-08-27T08:41:00Z</time>
      </trkpt>
      <trkpt lat="44.82001" lon="6.73509">
        <ele>2338.5444335938</ele>
        <time>2007-08-27T08:41:14Z</time>
      </trkpt>
      <trkpt lat="44.81971" lon="6.73522">
        <ele>2339.5056152344</ele>
        <time>2007-08-27T08:41:30Z</time>
      </trkpt>
      <trkpt lat="44.81956" lon="6.73535">
        <ele>2342.8701171875</ele>
        <time>2007-08-27T08:41:41Z</time>
      </trkpt>
      <trkpt lat="44.81958" lon="6.73535">
        <ele>2343.3508300781</ele>
        <time>2007-08-27T08:41:53Z</time>
      </trkpt>
      <trkpt lat="44.81961" lon="6.73535">
        <ele>2343.3508300781</ele>
        <time>2007-08-27T08:42:17Z</time>
      </trkpt>
      <trkpt lat="44.81961" lon="6.73535">
        <ele>2346.2348632812</ele>
        <time>2007-08-27T08:46:55Z</time>
      </trkpt>
      <trkpt lat="44.81958" lon="6.73533">
        <ele>2347.6767578125</ele>
        <time>2007-08-27T08:51:37Z</time>
      </trkpt>
      <trkpt lat="44.81956" lon="6.73531">
        <ele>2347.1960449219</ele>
        <time>2007-08-27T08:52:21Z</time>
      </trkpt>
      <trkpt lat="44.81952" lon="6.7352">
        <ele>2347.1960449219</ele>
        <time>2007-08-27T08:52:25Z</time>
      </trkpt>
      <trkpt lat="44.81946" lon="6.73492">
        <ele>2345.2734375</ele>
        <time>2007-08-27T08:52:31Z</time>
      </trkpt>
      <trkpt lat="44.81928" lon="6.73477">
        <ele>2343.3508300781</ele>
        <time>2007-08-27T08:52:40Z</time>
      </trkpt>
      <trkpt lat="44.81911" lon="6.73479">
        <ele>2342.8701171875</ele>
        <time>2007-08-27T08:52:56Z</time>
      </trkpt>
      <trkpt lat="44.81888" lon="6.73466">
        <ele>2341.9089355469</ele>
        <time>2007-08-27T08:53:00Z</time>
      </trkpt>
      <trkpt lat="44.81879" lon="6.73445">
        <ele>2339.986328125</ele>
        <time>2007-08-27T08:53:03Z</time>
      </trkpt>
      <trkpt lat="44.81907" lon="6.734">
        <ele>2336.6215820312</ele>
        <time>2007-08-27T08:53:08Z</time>
      </trkpt>
      <trkpt lat="44.81918" lon="6.73342">
        <ele>2333.2570800781</ele>
        <time>2007-08-27T08:53:12Z</time>
      </trkpt>
      <trkpt lat="44.81935" lon="6.7328">
        <ele>2329.8923339844</ele>
        <time>2007-08-27T08:53:16Z</time>
      </trkpt>
      <trkpt lat="44.81952" lon="6.73237">
        <ele>2327.4890136719</ele>
        <time>2007-08-27T08:53:19Z</time>
      </trkpt>
      <trkpt lat="44.81958" lon="6.73204">
        <ele>2325.56640625</ele>
        <time>2007-08-27T08:53:22Z</time>
      </trkpt>
      <trkpt lat="44.81954" lon="6.73196">
        <ele>2325.0856933594</ele>
        <time>2007-08-27T08:53:23Z</time>
      </trkpt>
      <trkpt lat="44.81937" lon="6.73215">
        <ele>2324.1245117188</ele>
        <time>2007-08-27T08:53:27Z</time>
      </trkpt>
      <trkpt lat="44.8193" lon="6.73234">
        <ele>2322.2019042969</ele>
        <time>2007-08-27T08:53:29Z</time>
      </trkpt>
      <trkpt lat="44.81915" lon="6.73262">
        <ele>2319.7985839844</ele>
        <time>2007-08-27T08:53:32Z</time>
      </trkpt>
      <trkpt lat="44.81894" lon="6.73295">
        <ele>2317.8759765625</ele>
        <time>2007-08-27T08:53:37Z</time>
      </trkpt>
      <trkpt lat="44.81885" lon="6.73307">
        <ele>2316.4340820312</ele>
        <time>2007-08-27T08:53:39Z</time>
      </trkpt>
      <trkpt lat="44.81851" lon="6.7335">
        <ele>2313.0693359375</ele>
        <time>2007-08-27T08:53:45Z</time>
      </trkpt>
      <trkpt lat="44.81812" lon="6.73383">
        <ele>2310.666015625</ele>
        <time>2007-08-27T08:53:50Z</time>
      </trkpt>
      <trkpt lat="44.81789" lon="6.73413">
        <ele>2307.7822265625</ele>
        <time>2007-08-27T08:53:53Z</time>
      </trkpt>
      <trkpt lat="44.81776" lon="6.7344">
        <ele>2304.4174804688</ele>
        <time>2007-08-27T08:53:56Z</time>
      </trkpt>
      <trkpt lat="44.81763" lon="6.73432">
        <ele>2301.5336914062</ele>
        <time>2007-08-27T08:54:00Z</time>
      </trkpt>
      <trkpt lat="44.81778" lon="6.734">
        <ele>2301.0529785156</ele>
        <time>2007-08-27T08:54:04Z</time>
      </trkpt>
      <trkpt lat="44.81817" lon="6.73331">
        <ele>2297.2075195312</ele>
        <time>2007-08-27T08:54:11Z</time>
      </trkpt>
      <trkpt lat="44.81838" lon="6.73286">
        <ele>2294.8041992188</ele>
        <time>2007-08-27T08:54:15Z</time>
      </trkpt>
      <trkpt lat="44.81838" lon="6.73258">
        <ele>2292.8815917969</ele>
        <time>2007-08-27T08:54:18Z</time>
      </trkpt>
      <trkpt lat="44.81823" lon="6.73269">
        <ele>2289.9978027344</ele>
        <time>2007-08-27T08:54:21Z</time>
      </trkpt>
      <trkpt lat="44.81817" lon="6.7328">
        <ele>2290.4782714844</ele>
        <time>2007-08-27T08:54:22Z</time>
      </trkpt>
      <trkpt lat="44.8178" lon="6.73333">
        <ele>2287.1137695312</ele>
        <time>2007-08-27T08:54:27Z</time>
      </trkpt>
      <trkpt lat="44.81763" lon="6.73359">
        <ele>2284.2299804688</ele>
        <time>2007-08-27T08:54:29Z</time>
      </trkpt>
      <trkpt lat="44.81752" lon="6.73372">
        <ele>2284.2299804688</ele>
        <time>2007-08-27T08:54:30Z</time>
      </trkpt>
      <trkpt lat="44.81733" lon="6.734">
        <ele>2282.3071289062</ele>
        <time>2007-08-27T08:54:32Z</time>
      </trkpt>
      <trkpt lat="44.81705" lon="6.73443">
        <ele>2277.5004882812</ele>
        <time>2007-08-27T08:54:35Z</time>
      </trkpt>
      <trkpt lat="44.81664" lon="6.73466">
        <ele>2273.1748046875</ele>
        <time>2007-08-27T08:54:39Z</time>
      </trkpt>
      <trkpt lat="44.81619" lon="6.73464">
        <ele>2269.8100585938</ele>
        <time>2007-08-27T08:54:43Z</time>
      </trkpt>
      <trkpt lat="44.81602" lon="6.73486">
        <ele>2268.3681640625</ele>
        <time>2007-08-27T08:54:45Z</time>
      </trkpt>
      <trkpt lat="44.81594" lon="6.73494">
        <ele>2266.4453125</ele>
        <time>2007-08-27T08:54:46Z</time>
      </trkpt>
      <trkpt lat="44.81566" lon="6.73507">
        <ele>2264.5227050781</ele>
        <time>2007-08-27T08:54:50Z</time>
      </trkpt>
      <trkpt lat="44.81557" lon="6.73505">
        <ele>2262.1193847656</ele>
        <time>2007-08-27T08:54:57Z</time>
      </trkpt>
      <trkpt lat="44.81553" lon="6.73509">
        <ele>2262.1193847656</ele>
        <time>2007-08-27T08:55:17Z</time>
      </trkpt>
      <trkpt lat="44.81561" lon="6.73576">
        <ele>2258.2741699219</ele>
        <time>2007-08-27T08:55:29Z</time>
      </trkpt>
      <trkpt lat="44.81561" lon="6.73584">
        <ele>2257.7937011719</ele>
        <time>2007-08-27T08:55:30Z</time>
      </trkpt>
      <trkpt lat="44.81564" lon="6.73638">
        <ele>2255.8708496094</ele>
        <time>2007-08-27T08:55:37Z</time>
      </trkpt>
      <trkpt lat="44.8154" lon="6.73642">
        <ele>2252.5063476562</ele>
        <time>2007-08-27T08:55:43Z</time>
      </trkpt>
      <trkpt lat="44.81497" lon="6.73642">
        <ele>2249.1416015625</ele>
        <time>2007-08-27T08:55:48Z</time>
      </trkpt>
      <trkpt lat="44.81476" lon="6.73642">
        <ele>2248.1801757812</ele>
        <time>2007-08-27T08:55:50Z</time>
      </trkpt>
      <trkpt lat="44.81441" lon="6.73631">
        <ele>2245.7770996094</ele>
        <time>2007-08-27T08:55:53Z</time>
      </trkpt>
      <trkpt lat="44.81431" lon="6.73627">
        <ele>2244.8156738281</ele>
        <time>2007-08-27T08:55:54Z</time>
      </trkpt>
      <trkpt lat="44.81407" lon="6.73623">
        <ele>2241.451171875</ele>
        <time>2007-08-27T08:55:56Z</time>
      </trkpt>
      <trkpt lat="44.81377" lon="6.73606">
        <ele>2237.6059570312</ele>
        <time>2007-08-27T08:55:59Z</time>
      </trkpt>
      <trkpt lat="44.81358" lon="6.73554">
        <ele>2233.2797851562</ele>
        <time>2007-08-27T08:56:03Z</time>
      </trkpt>
      <trkpt lat="44.81349" lon="6.73522">
        <ele>2232.7990722656</ele>
        <time>2007-08-27T08:56:05Z</time>
      </trkpt>
      <trkpt lat="44.81334" lon="6.73479">
        <ele>2230.8767089844</ele>
        <time>2007-08-27T08:56:08Z</time>
      </trkpt>
      <trkpt lat="44.81321" lon="6.73453">
        <ele>2227.5119628906</ele>
        <time>2007-08-27T08:56:10Z</time>
      </trkpt>
      <trkpt lat="44.81287" lon="6.73451">
        <ele>2224.6281738281</ele>
        <time>2007-08-27T08:56:14Z</time>
      </trkpt>
      <trkpt lat="44.81278" lon="6.73458">
        <ele>2224.1474609375</ele>
        <time>2007-08-27T08:56:15Z</time>
      </trkpt>
      <trkpt lat="44.81259" lon="6.73475">
        <ele>2221.2634277344</ele>
        <time>2007-08-27T08:56:17Z</time>
      </trkpt>
      <trkpt lat="44.81216" lon="6.73496">
        <ele>2216.4567871094</ele>
        <time>2007-08-27T08:56:21Z</time>
      </trkpt>
      <trkpt lat="44.81179" lon="6.73522">
        <ele>2213.0922851562</ele>
        <time>2007-08-27T08:56:25Z</time>
      </trkpt>
      <trkpt lat="44.81158" lon="6.73537">
        <ele>2210.2082519531</ele>
        <time>2007-08-27T08:56:28Z</time>
      </trkpt>
      <trkpt lat="44.81145" lon="6.73541">
        <ele>2207.8051757812</ele>
        <time>2007-08-27T08:56:36Z</time>
      </trkpt>
      <trkpt lat="44.81145" lon="6.73541">
        <ele>2207.8051757812</ele>
        <time>2007-08-27T08:56:48Z</time>
      </trkpt>
      <trkpt lat="44.81141" lon="6.73563">
        <ele>2207.3244628906</ele>
        <time>2007-08-27T08:56:53Z</time>
      </trkpt>
      <trkpt lat="44.81149" lon="6.73614">
        <ele>2202.517578125</ele>
        <time>2007-08-27T08:56:58Z</time>
      </trkpt>
      <trkpt lat="44.81154" lon="6.73625">
        <ele>2201.0756835938</ele>
        <time>2007-08-27T08:56:59Z</time>
      </trkpt>
      <trkpt lat="44.8116" lon="6.73681">
        <ele>2197.23046875</ele>
        <time>2007-08-27T08:57:04Z</time>
      </trkpt>
      <trkpt lat="44.81139" lon="6.73702">
        <ele>2195.3078613281</ele>
        <time>2007-08-27T08:57:08Z</time>
      </trkpt>
      <trkpt lat="44.81126" lon="6.73711">
        <ele>2193.3852539062</ele>
        <time>2007-08-27T08:57:20Z</time>
      </trkpt>
      <trkpt lat="44.81126" lon="6.73709">
        <ele>2191.943359375</ele>
        <time>2007-08-27T08:57:35Z</time>
      </trkpt>
      <trkpt lat="44.81124" lon="6.7373">
        <ele>2190.0207519531</ele>
        <time>2007-08-27T08:57:38Z</time>
      </trkpt>
      <trkpt lat="44.81102" lon="6.73775">
        <ele>2187.6171875</ele>
        <time>2007-08-27T08:57:43Z</time>
      </trkpt>
      <trkpt lat="44.81074" lon="6.73803">
        <ele>2186.6557617188</ele>
        <time>2007-08-27T08:57:47Z</time>
      </trkpt>
      <trkpt lat="44.80978" lon="6.73835">
        <ele>2185.6945800781</ele>
        <time>2007-08-27T08:57:59Z</time>
      </trkpt>
      <trkpt lat="44.80952" lon="6.73837">
        <ele>2187.1364746094</ele>
        <time>2007-08-27T08:58:03Z</time>
      </trkpt>
      <trkpt lat="44.80916" lon="6.7381">
        <ele>2188.5788574219</ele>
        <time>2007-08-27T08:58:11Z</time>
      </trkpt>
      <trkpt lat="44.80892" lon="6.73767">
        <ele>2191.943359375</ele>
        <time>2007-08-27T08:58:22Z</time>
      </trkpt>
      <trkpt lat="44.80873" lon="6.7373">
        <ele>2195.3078613281</ele>
        <time>2007-08-27T08:58:35Z</time>
      </trkpt>
      <trkpt lat="44.80845" lon="6.73713">
        <ele>2198.6723632812</ele>
        <time>2007-08-27T08:58:50Z</time>
      </trkpt>
      <trkpt lat="44.80815" lon="6.73713">
        <ele>2202.0368652344</ele>
        <time>2007-08-27T08:59:05Z</time>
      </trkpt>
      <trkpt lat="44.80791" lon="6.73713">
        <ele>2203.9597167969</ele>
        <time>2007-08-27T08:59:19Z</time>
      </trkpt>
      <trkpt lat="44.80763" lon="6.73666">
        <ele>2206.84375</ele>
        <time>2007-08-27T08:59:40Z</time>
      </trkpt>
      <trkpt lat="44.80757" lon="6.73627">
        <ele>2210.2082519531</ele>
        <time>2007-08-27T08:59:54Z</time>
      </trkpt>
      <trkpt lat="44.80761" lon="6.73597">
        <ele>2212.130859375</ele>
        <time>2007-08-27T09:00:12Z</time>
      </trkpt>
      <trkpt lat="44.80767" lon="6.73608">
        <ele>2213.5727539062</ele>
        <time>2007-08-27T09:02:21Z</time>
      </trkpt>
      <trkpt lat="44.80752" lon="6.73595">
        <ele>2213.5727539062</ele>
        <time>2007-08-27T09:02:41Z</time>
      </trkpt>
      <trkpt lat="44.80742" lon="6.73589">
        <ele>2212.130859375</ele>
        <time>2007-08-27T09:03:02Z</time>
      </trkpt>
      <trkpt lat="44.80746" lon="6.73589">
        <ele>2212.130859375</ele>
        <time>2007-08-27T09:03:31Z</time>
      </trkpt>
      <trkpt lat="44.8074" lon="6.73597">
        <ele>2214.5341796875</ele>
        <time>2007-08-27T09:03:54Z</time>
      </trkpt>
      <trkpt lat="44.8074" lon="6.73597">
        <ele>2213.5727539062</ele>
        <time>2007-08-27T09:04:11Z</time>
      </trkpt>
      <trkpt lat="44.80729" lon="6.73612">
        <ele>2213.5727539062</ele>
        <time>2007-08-27T09:04:16Z</time>
      </trkpt>
      <trkpt lat="44.80712" lon="6.73623">
        <ele>2214.5341796875</ele>
        <time>2007-08-27T09:04:32Z</time>
      </trkpt>
      <trkpt lat="44.80701" lon="6.73629">
        <ele>2216.9375</ele>
        <time>2007-08-27T09:04:42Z</time>
      </trkpt>
      <trkpt lat="44.80671" lon="6.73651">
        <ele>2220.3022460938</ele>
        <time>2007-08-27T09:05:04Z</time>
      </trkpt>
      <trkpt lat="44.80645" lon="6.73672">
        <ele>2223.1862792969</ele>
        <time>2007-08-27T09:05:24Z</time>
      </trkpt>
      <trkpt lat="44.80574" lon="6.73771">
        <ele>2228.9538574219</ele>
        <time>2007-08-27T09:06:15Z</time>
      </trkpt>
      <trkpt lat="44.80637" lon="6.73741">
        <ele>2227.0314941406</ele>
        <time>2007-08-27T09:06:00Z</time>
      </trkpt>
      <trkpt lat="44.80752" lon="6.73719">
        <ele>2223.6667480469</ele>
        <time>2007-08-27T09:05:34Z</time>
      </trkpt>
      <trkpt lat="44.80521" lon="6.73797">
        <ele>2230.3959960938</ele>
        <time>2007-08-27T09:06:39Z</time>
      </trkpt>
      <trkpt lat="44.8051" lon="6.73818">
        <ele>2232.7990722656</ele>
        <time>2007-08-27T09:06:51Z</time>
      </trkpt>
      <trkpt lat="44.80478" lon="6.7384">
        <ele>2235.6831054688</ele>
        <time>2007-08-27T09:07:14Z</time>
      </trkpt>
      <trkpt lat="44.80463" lon="6.73842">
        <ele>2236.1640625</ele>
        <time>2007-08-27T09:07:19Z</time>
      </trkpt>
      <trkpt lat="44.80452" lon="6.7387">
        <ele>2239.5285644531</ele>
        <time>2007-08-27T09:07:31Z</time>
      </trkpt>
      <trkpt lat="44.80446" lon="6.7388">
        <ele>2240.0092773438</ele>
        <time>2007-08-27T09:07:38Z</time>
      </trkpt>
      <trkpt lat="44.80441" lon="6.73898">
        <ele>2243.8544921875</ele>
        <time>2007-08-27T09:07:57Z</time>
      </trkpt>
      <trkpt lat="44.80439" lon="6.73898">
        <ele>2243.8544921875</ele>
        <time>2007-08-27T09:07:58Z</time>
      </trkpt>
      <trkpt lat="44.80435" lon="6.73921">
        <ele>2246.73828125</ele>
        <time>2007-08-27T09:08:29Z</time>
      </trkpt>
      <trkpt lat="44.80424" lon="6.73936">
        <ele>2250.1030273438</ele>
        <time>2007-08-27T09:08:47Z</time>
      </trkpt>
      <trkpt lat="44.80394" lon="6.73985">
        <ele>2252.9870605469</ele>
        <time>2007-08-27T09:09:23Z</time>
      </trkpt>
      <trkpt lat="44.80375" lon="6.74013">
        <ele>2254.4289550781</ele>
        <time>2007-08-27T09:09:42Z</time>
      </trkpt>
      <trkpt lat="44.80379" lon="6.74031">
        <ele>2254.9096679688</ele>
        <time>2007-08-27T09:09:48Z</time>
      </trkpt>
      <trkpt lat="44.80353" lon="6.74114">
        <ele>2256.8322753906</ele>
        <time>2007-08-27T09:10:13Z</time>
      </trkpt>
      <trkpt lat="44.80349" lon="6.74172">
        <ele>2260.1967773438</ele>
        <time>2007-08-27T09:10:29Z</time>
      </trkpt>
      <trkpt lat="44.80332" lon="6.74247">
        <ele>2263.0808105469</ele>
        <time>2007-08-27T09:10:56Z</time>
      </trkpt>
      <trkpt lat="44.80323" lon="6.74277">
        <ele>2265.9645996094</ele>
        <time>2007-08-27T09:11:10Z</time>
      </trkpt>
      <trkpt lat="44.803" lon="6.74333">
        <ele>2267.8872070312</ele>
        <time>2007-08-27T09:11:39Z</time>
      </trkpt>
      <trkpt lat="44.80298" lon="6.74382">
        <ele>2271.251953125</ele>
        <time>2007-08-27T09:11:58Z</time>
      </trkpt>
      <trkpt lat="44.80295" lon="6.74387">
        <ele>2272.6940917969</ele>
        <time>2007-08-27T09:12:00Z</time>
      </trkpt>
      <trkpt lat="44.80289" lon="6.74393">
        <ele>2274.1359863281</ele>
        <time>2007-08-27T09:12:06Z</time>
      </trkpt>
      <trkpt lat="44.80278" lon="6.74406">
        <ele>2277.5004882812</ele>
        <time>2007-08-27T09:12:17Z</time>
      </trkpt>
      <trkpt lat="44.80263" lon="6.74425">
        <ele>2280.3845214844</ele>
        <time>2007-08-27T09:12:34Z</time>
      </trkpt>
      <trkpt lat="44.80242" lon="6.74445">
        <ele>2283.7490234375</ele>
        <time>2007-08-27T09:12:56Z</time>
      </trkpt>
      <trkpt lat="44.80218" lon="6.74458">
        <ele>2287.5944824219</ele>
        <time>2007-08-27T09:13:13Z</time>
      </trkpt>
      <trkpt lat="44.80197" lon="6.74473">
        <ele>2290.4782714844</ele>
        <time>2007-08-27T09:13:31Z</time>
      </trkpt>
      <trkpt lat="44.80175" lon="6.7449">
        <ele>2293.8430175781</ele>
        <time>2007-08-27T09:13:51Z</time>
      </trkpt>
      <trkpt lat="44.80154" lon="6.74511">
        <ele>2296.7268066406</ele>
        <time>2007-08-27T09:14:15Z</time>
      </trkpt>
      <trkpt lat="44.80147" lon="6.7452">
        <ele>2300.091796875</ele>
        <time>2007-08-27T09:14:26Z</time>
      </trkpt>
      <trkpt lat="44.80143" lon="6.74526">
        <ele>2303.4562988281</ele>
        <time>2007-08-27T09:14:37Z</time>
      </trkpt>
      <trkpt lat="44.80141" lon="6.74528">
        <ele>2303.9370117188</ele>
        <time>2007-08-27T09:14:39Z</time>
      </trkpt>
      <trkpt lat="44.80137" lon="6.74528">
        <ele>2303.9370117188</ele>
        <time>2007-08-27T09:14:42Z</time>
      </trkpt>
      <trkpt lat="44.80152" lon="6.74546">
        <ele>2305.37890625</ele>
        <time>2007-08-27T09:14:47Z</time>
      </trkpt>
      <trkpt lat="44.80137" lon="6.74552">
        <ele>2308.7434082031</ele>
        <time>2007-08-27T09:15:06Z</time>
      </trkpt>
      <trkpt lat="44.80128" lon="6.74556">
        <ele>2310.666015625</ele>
        <time>2007-08-27T09:15:18Z</time>
      </trkpt>
      <trkpt lat="44.80109" lon="6.74567">
        <ele>2314.0305175781</ele>
        <time>2007-08-27T09:15:37Z</time>
      </trkpt>
      <trkpt lat="44.80098" lon="6.74573">
        <ele>2315.47265625</ele>
        <time>2007-08-27T09:15:50Z</time>
      </trkpt>
      <trkpt lat="44.80089" lon="6.74584">
        <ele>2318.3566894531</ele>
        <time>2007-08-27T09:16:05Z</time>
      </trkpt>
      <trkpt lat="44.80074" lon="6.74591">
        <ele>2318.3566894531</ele>
        <time>2007-08-27T09:16:43Z</time>
      </trkpt>
      <trkpt lat="44.80064" lon="6.74612">
        <ele>2321.2404785156</ele>
        <time>2007-08-27T09:17:01Z</time>
      </trkpt>
      <trkpt lat="44.80062" lon="6.74616">
        <ele>2322.6826171875</ele>
        <time>2007-08-27T09:17:04Z</time>
      </trkpt>
      <trkpt lat="44.80062" lon="6.74649">
        <ele>2323.6437988281</ele>
        <time>2007-08-27T09:17:18Z</time>
      </trkpt>
      <trkpt lat="44.80092" lon="6.74702">
        <ele>2321.7211914062</ele>
        <time>2007-08-27T09:17:34Z</time>
      </trkpt>
      <trkpt lat="44.80111" lon="6.74743">
        <ele>2322.2019042969</ele>
        <time>2007-08-27T09:17:47Z</time>
      </trkpt>
      <trkpt lat="44.80115" lon="6.74771">
        <ele>2323.1633300781</ele>
        <time>2007-08-27T09:18:14Z</time>
      </trkpt>
      <trkpt lat="44.80126" lon="6.74801">
        <ele>2323.1633300781</ele>
        <time>2007-08-27T09:18:22Z</time>
      </trkpt>
      <trkpt lat="44.8015" lon="6.74852">
        <ele>2323.6437988281</ele>
        <time>2007-08-27T09:18:39Z</time>
      </trkpt>
      <trkpt lat="44.80152" lon="6.74859">
        <ele>2322.2019042969</ele>
        <time>2007-08-27T09:18:45Z</time>
      </trkpt>
      <trkpt lat="44.80152" lon="6.74859">
        <ele>2325.56640625</ele>
        <time>2007-08-27T09:18:46Z</time>
      </trkpt>
      <trkpt lat="44.80152" lon="6.74859">
        <ele>2324.6052246094</ele>
        <time>2007-08-27T09:18:47Z</time>
      </trkpt>
      <trkpt lat="44.80152" lon="6.74859">
        <ele>2323.1633300781</ele>
        <time>2007-08-27T09:18:49Z</time>
      </trkpt>
      <trkpt lat="44.80152" lon="6.74859">
        <ele>2323.1633300781</ele>
        <time>2007-08-27T09:19:04Z</time>
      </trkpt>
      <trkpt lat="44.80156" lon="6.7491">
        <ele>2322.6826171875</ele>
        <time>2007-08-27T09:19:19Z</time>
      </trkpt>
      <trkpt lat="44.80156" lon="6.7493">
        <ele>2326.0471191406</ele>
        <time>2007-08-27T09:19:25Z</time>
      </trkpt>
      <trkpt lat="44.80158" lon="6.74932">
        <ele>2326.5278320312</ele>
        <time>2007-08-27T09:19:26Z</time>
      </trkpt>
      <trkpt lat="44.8016" lon="6.74938">
        <ele>2327.0085449219</ele>
        <time>2007-08-27T09:19:29Z</time>
      </trkpt>
      <trkpt lat="44.80152" lon="6.74949">
        <ele>2327.9697265625</ele>
        <time>2007-08-27T09:19:35Z</time>
      </trkpt>
      <trkpt lat="44.80141" lon="6.74973">
        <ele>2330.8537597656</ele>
        <time>2007-08-27T09:19:47Z</time>
      </trkpt>
      <trkpt lat="44.80126" lon="6.74998">
        <ele>2331.3342285156</ele>
        <time>2007-08-27T09:20:02Z</time>
      </trkpt>
      <trkpt lat="44.80126" lon="6.75005">
        <ele>2331.3342285156</ele>
        <time>2007-08-27T09:20:04Z</time>
      </trkpt>
      <trkpt lat="44.8013" lon="6.7502">
        <ele>2331.3342285156</ele>
        <time>2007-08-27T09:20:08Z</time>
      </trkpt>
      <trkpt lat="44.80134" lon="6.75033">
        <ele>2330.8537597656</ele>
        <time>2007-08-27T09:20:11Z</time>
      </trkpt>
      <trkpt lat="44.80126" lon="6.75063">
        <ele>2328.9309082031</ele>
        <time>2007-08-27T09:20:17Z</time>
      </trkpt>
      <trkpt lat="44.80122" lon="6.75071">
        <ele>2327.4890136719</ele>
        <time>2007-08-27T09:20:19Z</time>
      </trkpt>
      <trkpt lat="44.801" lon="6.75116">
        <ele>2324.6052246094</ele>
        <time>2007-08-27T09:20:31Z</time>
      </trkpt>
      <trkpt lat="44.80096" lon="6.75121">
        <ele>2325.56640625</ele>
        <time>2007-08-27T09:20:36Z</time>
      </trkpt>
      <trkpt lat="44.80089" lon="6.75127">
        <ele>2326.0471191406</ele>
        <time>2007-08-27T09:20:42Z</time>
      </trkpt>
      <trkpt lat="44.80074" lon="6.75151">
        <ele>2321.7211914062</ele>
        <time>2007-08-27T09:20:51Z</time>
      </trkpt>
      <trkpt lat="44.8007" lon="6.75153">
        <ele>2321.2404785156</ele>
        <time>2007-08-27T09:20:53Z</time>
      </trkpt>
      <trkpt lat="44.80064" lon="6.75148">
        <ele>2320.7600097656</ele>
        <time>2007-08-27T09:21:11Z</time>
      </trkpt>
      <trkpt lat="44.80057" lon="6.75155">
        <ele>2316.9147949219</ele>
        <time>2007-08-27T09:21:23Z</time>
      </trkpt>
      <trkpt lat="44.80055" lon="6.75157">
        <ele>2315.953125</ele>
        <time>2007-08-27T09:21:27Z</time>
      </trkpt>
      <trkpt lat="44.80053" lon="6.75166">
        <ele>2313.0693359375</ele>
        <time>2007-08-27T09:21:42Z</time>
      </trkpt>
      <trkpt lat="44.80047" lon="6.75174">
        <ele>2311.6274414062</ele>
        <time>2007-08-27T09:21:59Z</time>
      </trkpt>
      <trkpt lat="44.80038" lon="6.75187">
        <ele>2307.7822265625</ele>
        <time>2007-08-27T09:22:16Z</time>
      </trkpt>
      <trkpt lat="44.80031" lon="6.75196">
        <ele>2305.859375</ele>
        <time>2007-08-27T09:22:19Z</time>
      </trkpt>
      <trkpt lat="44.8001" lon="6.75234">
        <ele>2302.9755859375</ele>
        <time>2007-08-27T09:22:32Z</time>
      </trkpt>
      <trkpt lat="44.79997" lon="6.75254">
        <ele>2301.5336914062</ele>
        <time>2007-08-27T09:22:38Z</time>
      </trkpt>
      <trkpt lat="44.79954" lon="6.75301">
        <ele>2301.5336914062</ele>
        <time>2007-08-27T09:22:56Z</time>
      </trkpt>
      <trkpt lat="44.79939" lon="6.75335">
        <ele>2300.572265625</ele>
        <time>2007-08-27T09:23:09Z</time>
      </trkpt>
      <trkpt lat="44.79911" lon="6.75354">
        <ele>2302.9755859375</ele>
        <time>2007-08-27T09:23:28Z</time>
      </trkpt>
      <trkpt lat="44.7989" lon="6.75372">
        <ele>2303.9370117188</ele>
        <time>2007-08-27T09:23:41Z</time>
      </trkpt>
      <trkpt lat="44.79883" lon="6.75376">
        <ele>2304.8981933594</ele>
        <time>2007-08-27T09:23:45Z</time>
      </trkpt>
      <trkpt lat="44.79868" lon="6.7541">
        <ele>2306.8208007812</ele>
        <time>2007-08-27T09:24:05Z</time>
      </trkpt>
      <trkpt lat="44.79851" lon="6.75442">
        <ele>2306.8208007812</ele>
        <time>2007-08-27T09:24:21Z</time>
      </trkpt>
      <trkpt lat="44.79838" lon="6.7547">
        <ele>2306.3400878906</ele>
        <time>2007-08-27T09:24:30Z</time>
      </trkpt>
      <trkpt lat="44.79834" lon="6.7549">
        <ele>2306.3400878906</ele>
        <time>2007-08-27T09:24:33Z</time>
      </trkpt>
      <trkpt lat="44.79821" lon="6.75515">
        <ele>2304.8981933594</ele>
        <time>2007-08-27T09:24:37Z</time>
      </trkpt>
      <trkpt lat="44.79795" lon="6.75539">
        <ele>2303.9370117188</ele>
        <time>2007-08-27T09:24:46Z</time>
      </trkpt>
      <trkpt lat="44.79789" lon="6.75539">
        <ele>2304.4174804688</ele>
        <time>2007-08-27T09:24:50Z</time>
      </trkpt>
      <trkpt lat="44.79776" lon="6.75541">
        <ele>2304.4174804688</ele>
        <time>2007-08-27T09:25:01Z</time>
      </trkpt>
      <trkpt lat="44.79768" lon="6.75548">
        <ele>2305.37890625</ele>
        <time>2007-08-27T09:25:14Z</time>
      </trkpt>
      <trkpt lat="44.79759" lon="6.75554">
        <ele>2308.7434082031</ele>
        <time>2007-08-27T09:25:24Z</time>
      </trkpt>
      <trkpt lat="44.79744" lon="6.75556">
        <ele>2309.2241210938</ele>
        <time>2007-08-27T09:25:37Z</time>
      </trkpt>
      <trkpt lat="44.79738" lon="6.75556">
        <ele>2309.2241210938</ele>
        <time>2007-08-27T09:25:39Z</time>
      </trkpt>
      <trkpt lat="44.79729" lon="6.75563">
        <ele>2311.1467285156</ele>
        <time>2007-08-27T09:25:45Z</time>
      </trkpt>
      <trkpt lat="44.7972" lon="6.75571">
        <ele>2312.5886230469</ele>
        <time>2007-08-27T09:25:52Z</time>
      </trkpt>
      <trkpt lat="44.79712" lon="6.75586">
        <ele>2315.47265625</ele>
        <time>2007-08-27T09:26:06Z</time>
      </trkpt>
      <trkpt lat="44.79701" lon="6.75603">
        <ele>2317.3952636719</ele>
        <time>2007-08-27T09:26:28Z</time>
      </trkpt>
      <trkpt lat="44.7969" lon="6.75614">
        <ele>2320.7600097656</ele>
        <time>2007-08-27T09:26:44Z</time>
      </trkpt>
      <trkpt lat="44.7969" lon="6.75616">
        <ele>2320.7600097656</ele>
        <time>2007-08-27T09:26:48Z</time>
      </trkpt>
      <trkpt lat="44.79682" lon="6.75629">
        <ele>2322.2019042969</ele>
        <time>2007-08-27T09:27:06Z</time>
      </trkpt>
      <trkpt lat="44.79665" lon="6.75638">
        <ele>2325.0856933594</ele>
        <time>2007-08-27T09:27:21Z</time>
      </trkpt>
      <trkpt lat="44.79665" lon="6.75638">
        <ele>2324.6052246094</ele>
        <time>2007-08-27T09:27:22Z</time>
      </trkpt>
      <trkpt lat="44.79662" lon="6.7564">
        <ele>2325.56640625</ele>
        <time>2007-08-27T09:27:25Z</time>
      </trkpt>
      <trkpt lat="44.79654" lon="6.75651">
        <ele>2326.5278320312</ele>
        <time>2007-08-27T09:27:40Z</time>
      </trkpt>
      <trkpt lat="44.79647" lon="6.75657">
        <ele>2329.8923339844</ele>
        <time>2007-08-27T09:27:50Z</time>
      </trkpt>
      <trkpt lat="44.79645" lon="6.75672">
        <ele>2333.2570800781</ele>
        <time>2007-08-27T09:28:08Z</time>
      </trkpt>
      <trkpt lat="44.79639" lon="6.75683">
        <ele>2336.6215820312</ele>
        <time>2007-08-27T09:28:25Z</time>
      </trkpt>
      <trkpt lat="44.79641" lon="6.75696">
        <ele>2338.5444335938</ele>
        <time>2007-08-27T09:28:42Z</time>
      </trkpt>
      <trkpt lat="44.79643" lon="6.75696">
        <ele>2336.6215820312</ele>
        <time>2007-08-27T09:28:46Z</time>
      </trkpt>
      <trkpt lat="44.79643" lon="6.75696">
        <ele>2340.9475097656</ele>
        <time>2007-08-27T09:28:47Z</time>
      </trkpt>
      <trkpt lat="44.79643" lon="6.75696">
        <ele>2339.5056152344</ele>
        <time>2007-08-27T09:28:48Z</time>
      </trkpt>
      <trkpt lat="44.79643" lon="6.75696">
        <ele>2338.5444335938</ele>
        <time>2007-08-27T09:28:50Z</time>
      </trkpt>
      <trkpt lat="44.79645" lon="6.75696">
        <ele>2341.4282226562</ele>
        <time>2007-08-27T09:31:05Z</time>
      </trkpt>
      <trkpt lat="44.79643" lon="6.75698">
        <ele>2342.3896484375</ele>
        <time>2007-08-27T09:35:12Z</time>
      </trkpt>
      <trkpt lat="44.79641" lon="6.75709">
        <ele>2339.0249023438</ele>
        <time>2007-08-27T09:36:53Z</time>
      </trkpt>
      <trkpt lat="44.79635" lon="6.75706">
        <ele>2338.0637207031</ele>
        <time>2007-08-27T09:36:55Z</time>
      </trkpt>
      <trkpt lat="44.79622" lon="6.75711">
        <ele>2334.2185058594</ele>
        <time>2007-08-27T09:36:59Z</time>
      </trkpt>
      <trkpt lat="44.79611" lon="6.75717">
        <ele>2331.3342285156</ele>
        <time>2007-08-27T09:37:02Z</time>
      </trkpt>
      <trkpt lat="44.79607" lon="6.75724">
        <ele>2329.4116210938</ele>
        <time>2007-08-27T09:37:04Z</time>
      </trkpt>
      <trkpt lat="44.79604" lon="6.75726">
        <ele>2328.4504394531</ele>
        <time>2007-08-27T09:37:05Z</time>
      </trkpt>
      <trkpt lat="44.79589" lon="6.75736">
        <ele>2323.1633300781</ele>
        <time>2007-08-27T09:37:10Z</time>
      </trkpt>
      <trkpt lat="44.79574" lon="6.75747">
        <ele>2319.7985839844</ele>
        <time>2007-08-27T09:37:14Z</time>
      </trkpt>
      <trkpt lat="44.7957" lon="6.75751">
        <ele>2319.7985839844</ele>
        <time>2007-08-27T09:37:15Z</time>
      </trkpt>
      <trkpt lat="44.79559" lon="6.75762">
        <ele>2316.9147949219</ele>
        <time>2007-08-27T09:37:19Z</time>
      </trkpt>
      <trkpt lat="44.79547" lon="6.75771">
        <ele>2314.0305175781</ele>
        <time>2007-08-27T09:37:23Z</time>
      </trkpt>
      <trkpt lat="44.79544" lon="6.75775">
        <ele>2312.1079101562</ele>
        <time>2007-08-27T09:37:26Z</time>
      </trkpt>
      <trkpt lat="44.79549" lon="6.75777">
        <ele>2309.2241210938</ele>
        <time>2007-08-27T09:37:30Z</time>
      </trkpt>
      <trkpt lat="44.79566" lon="6.75777">
        <ele>2306.3400878906</ele>
        <time>2007-08-27T09:37:36Z</time>
      </trkpt>
      <trkpt lat="44.79589" lon="6.75781">
        <ele>2303.4562988281</ele>
        <time>2007-08-27T09:37:41Z</time>
      </trkpt>
      <trkpt lat="44.79592" lon="6.75784">
        <ele>2302.0141601562</ele>
        <time>2007-08-27T09:37:42Z</time>
      </trkpt>
      <trkpt lat="44.79589" lon="6.75801">
        <ele>2301.0529785156</ele>
        <time>2007-08-27T09:37:47Z</time>
      </trkpt>
      <trkpt lat="44.79583" lon="6.75809">
        <ele>2298.6494140625</ele>
        <time>2007-08-27T09:37:51Z</time>
      </trkpt>
      <trkpt lat="44.79581" lon="6.75812">
        <ele>2297.2075195312</ele>
        <time>2007-08-27T09:37:53Z</time>
      </trkpt>
      <trkpt lat="44.79579" lon="6.7582">
        <ele>2295.765625</ele>
        <time>2007-08-27T09:37:57Z</time>
      </trkpt>
      <trkpt lat="44.79572" lon="6.75829">
        <ele>2292.8815917969</ele>
        <time>2007-08-27T09:38:02Z</time>
      </trkpt>
      <trkpt lat="44.79568" lon="6.75837">
        <ele>2292.4011230469</ele>
        <time>2007-08-27T09:38:07Z</time>
      </trkpt>
      <trkpt lat="44.79566" lon="6.75852">
        <ele>2288.5559082031</ele>
        <time>2007-08-27T09:38:12Z</time>
      </trkpt>
      <trkpt lat="44.79562" lon="6.75861">
        <ele>2286.6330566406</ele>
        <time>2007-08-27T09:38:15Z</time>
      </trkpt>
      <trkpt lat="44.79559" lon="6.75874">
        <ele>2283.7490234375</ele>
        <time>2007-08-27T09:38:18Z</time>
      </trkpt>
      <trkpt lat="44.79568" lon="6.7588">
        <ele>2283.2683105469</ele>
        <time>2007-08-27T09:38:22Z</time>
      </trkpt>
      <trkpt lat="44.79566" lon="6.75891">
        <ele>2280.3845214844</ele>
        <time>2007-08-27T09:38:26Z</time>
      </trkpt>
      <trkpt lat="44.79566" lon="6.75897">
        <ele>2280.865234375</ele>
        <time>2007-08-27T09:38:38Z</time>
      </trkpt>
      <trkpt lat="44.79564" lon="6.75897">
        <ele>2280.865234375</ele>
        <time>2007-08-27T09:38:41Z</time>
      </trkpt>
      <trkpt lat="44.79557" lon="6.75895">
        <ele>2279.9038085938</ele>
        <time>2007-08-27T09:38:45Z</time>
      </trkpt>
      <trkpt lat="44.79553" lon="6.75891">
        <ele>2279.4230957031</ele>
        <time>2007-08-27T09:38:47Z</time>
      </trkpt>
      <trkpt lat="44.79555" lon="6.75897">
        <ele>2275.5778808594</ele>
        <time>2007-08-27T09:38:53Z</time>
      </trkpt>
      <trkpt lat="44.79577" lon="6.75915">
        <ele>2273.1748046875</ele>
        <time>2007-08-27T09:39:03Z</time>
      </trkpt>
      <trkpt lat="44.79581" lon="6.75921">
        <ele>2270.2907714844</ele>
        <time>2007-08-27T09:39:08Z</time>
      </trkpt>
      <trkpt lat="44.7957" lon="6.75938">
        <ele>2266.4453125</ele>
        <time>2007-08-27T09:39:25Z</time>
      </trkpt>
      <trkpt lat="44.79568" lon="6.75938">
        <ele>2266.4453125</ele>
        <time>2007-08-27T09:39:30Z</time>
      </trkpt>
      <trkpt lat="44.79568" lon="6.75942">
        <ele>2265.4841308594</ele>
        <time>2007-08-27T09:39:34Z</time>
      </trkpt>
      <trkpt lat="44.79572" lon="6.75951">
        <ele>2264.5227050781</ele>
        <time>2007-08-27T09:39:38Z</time>
      </trkpt>
      <trkpt lat="44.79577" lon="6.75953">
        <ele>2263.5612792969</ele>
        <time>2007-08-27T09:39:41Z</time>
      </trkpt>
      <trkpt lat="44.79587" lon="6.7596">
        <ele>2260.1967773438</ele>
        <time>2007-08-27T09:39:50Z</time>
      </trkpt>
      <trkpt lat="44.79568" lon="6.75953">
        <ele>2258.7548828125</ele>
        <time>2007-08-27T09:39:57Z</time>
      </trkpt>
      <trkpt lat="44.79564" lon="6.75949">
        <ele>2257.3129882812</ele>
        <time>2007-08-27T09:39:59Z</time>
      </trkpt>
      <trkpt lat="44.79542" lon="6.75919">
        <ele>2254.4289550781</ele>
        <time>2007-08-27T09:40:16Z</time>
      </trkpt>
      <trkpt lat="44.79538" lon="6.75919">
        <ele>2252.5063476562</ele>
        <time>2007-08-27T09:40:33Z</time>
      </trkpt>
      <trkpt lat="44.79538" lon="6.75921">
        <ele>2250.5834960938</ele>
        <time>2007-08-27T09:40:34Z</time>
      </trkpt>
      <trkpt lat="44.7954" lon="6.75936">
        <ele>2248.6608886719</ele>
        <time>2007-08-27T09:40:37Z</time>
      </trkpt>
      <trkpt lat="44.79547" lon="6.7596">
        <ele>2245.7770996094</ele>
        <time>2007-08-27T09:40:43Z</time>
      </trkpt>
      <trkpt lat="44.79555" lon="6.7597">
        <ele>2243.3737792969</ele>
        <time>2007-08-27T09:40:47Z</time>
      </trkpt>
      <trkpt lat="44.79562" lon="6.75985">
        <ele>2240.0092773438</ele>
        <time>2007-08-27T09:40:52Z</time>
      </trkpt>
      <trkpt lat="44.79564" lon="6.76011">
        <ele>2237.1252441406</ele>
        <time>2007-08-27T09:41:01Z</time>
      </trkpt>
      <trkpt lat="44.79562" lon="6.76024">
        <ele>2234.7219238281</ele>
        <time>2007-08-27T09:41:04Z</time>
      </trkpt>
      <trkpt lat="44.79553" lon="6.76026">
        <ele>2234.2412109375</ele>
        <time>2007-08-27T09:41:16Z</time>
      </trkpt>
      <trkpt lat="44.79551" lon="6.7603">
        <ele>2233.2797851562</ele>
        <time>2007-08-27T09:41:23Z</time>
      </trkpt>
      <trkpt lat="44.79557" lon="6.76054">
        <ele>2228.9538574219</ele>
        <time>2007-08-27T09:41:33Z</time>
      </trkpt>
      <trkpt lat="44.79562" lon="6.76067">
        <ele>2225.1086425781</ele>
        <time>2007-08-27T09:41:43Z</time>
      </trkpt>
      <trkpt lat="44.79559" lon="6.7608">
        <ele>2222.2248535156</ele>
        <time>2007-08-27T09:42:00Z</time>
      </trkpt>
      <trkpt lat="44.79564" lon="6.76088">
        <ele>2221.2634277344</ele>
        <time>2007-08-27T09:42:09Z</time>
      </trkpt>
      <trkpt lat="44.79562" lon="6.76093">
        <ele>2220.3022460938</ele>
        <time>2007-08-27T09:42:11Z</time>
      </trkpt>
      <trkpt lat="44.79564" lon="6.76108">
        <ele>2218.8601074219</ele>
        <time>2007-08-27T09:42:16Z</time>
      </trkpt>
      <trkpt lat="44.79568" lon="6.76131">
        <ele>2215.9760742188</ele>
        <time>2007-08-27T09:42:26Z</time>
      </trkpt>
      <trkpt lat="44.79564" lon="6.7614">
        <ele>2213.0922851562</ele>
        <time>2007-08-27T09:42:31Z</time>
      </trkpt>
      <trkpt lat="44.79562" lon="6.76144">
        <ele>2212.130859375</ele>
        <time>2007-08-27T09:42:50Z</time>
      </trkpt>
      <trkpt lat="44.79562" lon="6.76148">
        <ele>2210.6889648438</ele>
        <time>2007-08-27T09:42:53Z</time>
      </trkpt>
      <trkpt lat="44.79559" lon="6.76161">
        <ele>2207.3244628906</ele>
        <time>2007-08-27T09:42:59Z</time>
      </trkpt>
      <trkpt lat="44.79559" lon="6.76168">
        <ele>2206.3630371094</ele>
        <time>2007-08-27T09:43:01Z</time>
      </trkpt>
      <trkpt lat="44.79559" lon="6.76174">
        <ele>2204.9211425781</ele>
        <time>2007-08-27T09:43:04Z</time>
      </trkpt>
      <trkpt lat="44.79559" lon="6.76181">
        <ele>2201.5563964844</ele>
        <time>2007-08-27T09:43:07Z</time>
      </trkpt>
      <trkpt lat="44.79557" lon="6.76191">
        <ele>2198.1916503906</ele>
        <time>2007-08-27T09:43:13Z</time>
      </trkpt>
      <trkpt lat="44.79542" lon="6.76198">
        <ele>2195.3078613281</ele>
        <time>2007-08-27T09:43:29Z</time>
      </trkpt>
      <trkpt lat="44.79534" lon="6.76196">
        <ele>2194.3464355469</ele>
        <time>2007-08-27T09:43:45Z</time>
      </trkpt>
      <trkpt lat="44.79532" lon="6.76198">
        <ele>2193.8659667969</ele>
        <time>2007-08-27T09:43:47Z</time>
      </trkpt>
      <trkpt lat="44.79525" lon="6.76213">
        <ele>2190.5012207031</ele>
        <time>2007-08-27T09:43:54Z</time>
      </trkpt>
      <trkpt lat="44.79521" lon="6.76221">
        <ele>2188.0981445312</ele>
        <time>2007-08-27T09:43:57Z</time>
      </trkpt>
      <trkpt lat="44.79519" lon="6.7623">
        <ele>2186.1752929688</ele>
        <time>2007-08-27T09:44:00Z</time>
      </trkpt>
      <trkpt lat="44.79517" lon="6.76236">
        <ele>2184.2526855469</ele>
        <time>2007-08-27T09:44:03Z</time>
      </trkpt>
      <trkpt lat="44.79514" lon="6.76247">
        <ele>2182.330078125</ele>
        <time>2007-08-27T09:44:07Z</time>
      </trkpt>
      <trkpt lat="44.79517" lon="6.76251">
        <ele>2180.8881835938</ele>
        <time>2007-08-27T09:44:09Z</time>
      </trkpt>
      <trkpt lat="44.79508" lon="6.76251">
        <ele>2180.8881835938</ele>
        <time>2007-08-27T09:44:23Z</time>
      </trkpt>
      <trkpt lat="44.79504" lon="6.76256">
        <ele>2178.0041503906</ele>
        <time>2007-08-27T09:44:36Z</time>
      </trkpt>
      <trkpt lat="44.79504" lon="6.76258">
        <ele>2177.04296875</ele>
        <time>2007-08-27T09:44:37Z</time>
      </trkpt>
      <trkpt lat="44.79506" lon="6.76266">
        <ele>2176.5622558594</ele>
        <time>2007-08-27T09:44:39Z</time>
      </trkpt>
      <trkpt lat="44.7951" lon="6.76271">
        <ele>2175.1201171875</ele>
        <time>2007-08-27T09:44:41Z</time>
      </trkpt>
      <trkpt lat="44.79532" lon="6.76281">
        <ele>2171.2746582031</ele>
        <time>2007-08-27T09:44:49Z</time>
      </trkpt>
      <trkpt lat="44.79527" lon="6.76292">
        <ele>2169.8327636719</ele>
        <time>2007-08-27T09:44:53Z</time>
      </trkpt>
      <trkpt lat="44.79519" lon="6.76299">
        <ele>2168.3908691406</ele>
        <time>2007-08-27T09:44:57Z</time>
      </trkpt>
      <trkpt lat="44.79504" lon="6.76311">
        <ele>2167.4294433594</ele>
        <time>2007-08-27T09:45:16Z</time>
      </trkpt>
      <trkpt lat="44.79501" lon="6.76314">
        <ele>2165.5070800781</ele>
        <time>2007-08-27T09:45:23Z</time>
      </trkpt>
      <trkpt lat="44.79501" lon="6.76314">
        <ele>2164.0649414062</ele>
        <time>2007-08-27T09:45:25Z</time>
      </trkpt>
      <trkpt lat="44.79501" lon="6.76316">
        <ele>2162.1423339844</ele>
        <time>2007-08-27T09:45:29Z</time>
      </trkpt>
      <trkpt lat="44.79499" lon="6.76316">
        <ele>2160.7004394531</ele>
        <time>2007-08-27T09:45:32Z</time>
      </trkpt>
      <trkpt lat="44.79493" lon="6.76327">
        <ele>2159.7390136719</ele>
        <time>2007-08-27T09:45:49Z</time>
      </trkpt>
      <trkpt lat="44.79493" lon="6.76346">
        <ele>2157.3359375</ele>
        <time>2007-08-27T09:46:21Z</time>
      </trkpt>
      <trkpt lat="44.79504" lon="6.76352">
        <ele>2153.9711914062</ele>
        <time>2007-08-27T09:46:30Z</time>
      </trkpt>
      <trkpt lat="44.79517" lon="6.76357">
        <ele>2151.5678710938</ele>
        <time>2007-08-27T09:46:37Z</time>
      </trkpt>
      <trkpt lat="44.79532" lon="6.76369">
        <ele>2148.6838378906</ele>
        <time>2007-08-27T09:46:41Z</time>
      </trkpt>
      <trkpt lat="44.79536" lon="6.76387">
        <ele>2144.8386230469</ele>
        <time>2007-08-27T09:46:46Z</time>
      </trkpt>
      <trkpt lat="44.79534" lon="6.76397">
        <ele>2141.4741210938</ele>
        <time>2007-08-27T09:46:50Z</time>
      </trkpt>
      <trkpt lat="44.79534" lon="6.76408">
        <ele>2138.5900878906</ele>
        <time>2007-08-27T09:46:58Z</time>
      </trkpt>
      <trkpt lat="44.79544" lon="6.76408">
        <ele>2135.7060546875</ele>
        <time>2007-08-27T09:47:14Z</time>
      </trkpt>
      <trkpt lat="44.79547" lon="6.76414">
        <ele>2133.302734375</ele>
        <time>2007-08-27T09:47:27Z</time>
      </trkpt>
      <trkpt lat="44.79544" lon="6.76414">
        <ele>2132.8220214844</ele>
        <time>2007-08-27T09:47:29Z</time>
      </trkpt>
      <trkpt lat="44.79536" lon="6.76421">
        <ele>2128.9768066406</ele>
        <time>2007-08-27T09:47:35Z</time>
      </trkpt>
      <trkpt lat="44.79523" lon="6.76427">
        <ele>2126.0930175781</ele>
        <time>2007-08-27T09:47:42Z</time>
      </trkpt>
      <trkpt lat="44.79486" lon="6.76434">
        <ele>2122.7282714844</ele>
        <time>2007-08-27T09:47:57Z</time>
      </trkpt>
      <trkpt lat="44.79467" lon="6.76436">
        <ele>2120.8056640625</ele>
        <time>2007-08-27T09:48:04Z</time>
      </trkpt>
      <trkpt lat="44.79439" lon="6.76438">
        <ele>2120.3249511719</ele>
        <time>2007-08-27T09:48:23Z</time>
      </trkpt>
      <trkpt lat="44.79439" lon="6.76436">
        <ele>2117.4409179688</ele>
        <time>2007-08-27T09:48:30Z</time>
      </trkpt>
      <trkpt lat="44.79439" lon="6.76436">
        <ele>2115.0378417969</ele>
        <time>2007-08-27T09:48:33Z</time>
      </trkpt>
      <trkpt lat="44.79435" lon="6.76436">
        <ele>2112.1538085938</ele>
        <time>2007-08-27T09:48:36Z</time>
      </trkpt>
      <trkpt lat="44.79431" lon="6.76436">
        <ele>2110.7119140625</ele>
        <time>2007-08-27T09:48:39Z</time>
      </trkpt>
      <trkpt lat="44.79414" lon="6.76438">
        <ele>2107.3471679688</ele>
        <time>2007-08-27T09:48:51Z</time>
      </trkpt>
      <trkpt lat="44.79409" lon="6.7644">
        <ele>2105.4245605469</ele>
        <time>2007-08-27T09:48:54Z</time>
      </trkpt>
      <trkpt lat="44.79401" lon="6.7644">
        <ele>2102.0598144531</ele>
        <time>2007-08-27T09:48:58Z</time>
      </trkpt>
      <trkpt lat="44.79398" lon="6.7644">
        <ele>2102.0598144531</ele>
        <time>2007-08-27T09:48:59Z</time>
      </trkpt>
      <trkpt lat="44.7939" lon="6.7644">
        <ele>2098.6953125</ele>
        <time>2007-08-27T09:49:03Z</time>
      </trkpt>
      <trkpt lat="44.79379" lon="6.7644">
        <ele>2095.8115234375</ele>
        <time>2007-08-27T09:49:07Z</time>
      </trkpt>
      <trkpt lat="44.79353" lon="6.76438">
        <ele>2094.8500976562</ele>
        <time>2007-08-27T09:49:24Z</time>
      </trkpt>
      <trkpt lat="44.79349" lon="6.76438">
        <ele>2091.4853515625</ele>
        <time>2007-08-27T09:49:35Z</time>
      </trkpt>
      <trkpt lat="44.79343" lon="6.76438">
        <ele>2088.1208496094</ele>
        <time>2007-08-27T09:49:41Z</time>
      </trkpt>
      <trkpt lat="44.79343" lon="6.76438">
        <ele>2088.1208496094</ele>
        <time>2007-08-27T09:49:42Z</time>
      </trkpt>
      <trkpt lat="44.79338" lon="6.7644">
        <ele>2086.1982421875</ele>
        <time>2007-08-27T09:49:46Z</time>
      </trkpt>
      <trkpt lat="44.79326" lon="6.76449">
        <ele>2084.2756347656</ele>
        <time>2007-08-27T09:50:04Z</time>
      </trkpt>
      <trkpt lat="44.79328" lon="6.76455">
        <ele>2081.8723144531</ele>
        <time>2007-08-27T09:50:41Z</time>
      </trkpt>
      <trkpt lat="44.79328" lon="6.7646">
        <ele>2078.98828125</ele>
        <time>2007-08-27T09:50:49Z</time>
      </trkpt>
      <trkpt lat="44.79328" lon="6.7646">
        <ele>2078.0270996094</ele>
        <time>2007-08-27T09:50:51Z</time>
      </trkpt>
      <trkpt lat="44.79328" lon="6.76468">
        <ele>2074.181640625</ele>
        <time>2007-08-27T09:51:08Z</time>
      </trkpt>
      <trkpt lat="44.79328" lon="6.76468">
        <ele>2074.181640625</ele>
        <time>2007-08-27T09:51:09Z</time>
      </trkpt>
      <trkpt lat="44.79328" lon="6.76468">
        <ele>2072.7397460938</ele>
        <time>2007-08-27T09:51:11Z</time>
      </trkpt>
      <trkpt lat="44.79328" lon="6.7647">
        <ele>2069.8557128906</ele>
        <time>2007-08-27T09:51:16Z</time>
      </trkpt>
      <trkpt lat="44.79328" lon="6.76472">
        <ele>2067.9331054688</ele>
        <time>2007-08-27T09:51:19Z</time>
      </trkpt>
      <trkpt lat="44.79177" lon="6.76509">
        <ele>2066.0104980469</ele>
        <time>2007-08-27T09:51:29Z</time>
      </trkpt>
      <trkpt lat="44.79173" lon="6.76507">
        <ele>2064.5686035156</ele>
        <time>2007-08-27T09:51:30Z</time>
      </trkpt>
      <trkpt lat="44.79162" lon="6.76533">
        <ele>2062.6459960938</ele>
        <time>2007-08-27T09:51:40Z</time>
      </trkpt>
      <trkpt lat="44.7915" lon="6.76541">
        <ele>2059.28125</ele>
        <time>2007-08-27T09:51:45Z</time>
      </trkpt>
      <trkpt lat="44.79126" lon="6.76563">
        <ele>2055.9165039062</ele>
        <time>2007-08-27T09:51:56Z</time>
      </trkpt>
      <trkpt lat="44.79111" lon="6.76571">
        <ele>2052.5520019531</ele>
        <time>2007-08-27T09:52:03Z</time>
      </trkpt>
      <trkpt lat="44.791" lon="6.76571">
        <ele>2049.1875</ele>
        <time>2007-08-27T09:52:09Z</time>
      </trkpt>
      <trkpt lat="44.79089" lon="6.76575">
        <ele>2045.3422851562</ele>
        <time>2007-08-27T09:52:13Z</time>
      </trkpt>
      <trkpt lat="44.79079" lon="6.7658">
        <ele>2041.0161132812</ele>
        <time>2007-08-27T09:52:18Z</time>
      </trkpt>
      <trkpt lat="44.79066" lon="6.76584">
        <ele>2038.6130371094</ele>
        <time>2007-08-27T09:52:23Z</time>
      </trkpt>
      <trkpt lat="44.79053" lon="6.76578">
        <ele>2036.6901855469</ele>
        <time>2007-08-27T09:52:25Z</time>
      </trkpt>
      <trkpt lat="44.79049" lon="6.7658">
        <ele>2035.2482910156</ele>
        <time>2007-08-27T09:52:27Z</time>
      </trkpt>
      <trkpt lat="44.79038" lon="6.76582">
        <ele>2031.8837890625</ele>
        <time>2007-08-27T09:52:31Z</time>
      </trkpt>
      <trkpt lat="44.79029" lon="6.76586">
        <ele>2028.5192871094</ele>
        <time>2007-08-27T09:52:35Z</time>
      </trkpt>
      <trkpt lat="44.79025" lon="6.76588">
        <ele>2025.154296875</ele>
        <time>2007-08-27T09:52:37Z</time>
      </trkpt>
      <trkpt lat="44.79006" lon="6.76569">
        <ele>2022.2705078125</ele>
        <time>2007-08-27T09:52:40Z</time>
      </trkpt>
      <trkpt lat="44.78995" lon="6.76563">
        <ele>2020.8286132812</ele>
        <time>2007-08-27T09:52:42Z</time>
      </trkpt>
      <trkpt lat="44.78987" lon="6.76563">
        <ele>2017.4638671875</ele>
        <time>2007-08-27T09:52:45Z</time>
      </trkpt>
      <trkpt lat="44.78984" lon="6.76565">
        <ele>2017.4638671875</ele>
        <time>2007-08-27T09:52:46Z</time>
      </trkpt>
      <trkpt lat="44.78967" lon="6.76565">
        <ele>2015.0607910156</ele>
        <time>2007-08-27T09:52:52Z</time>
      </trkpt>
      <trkpt lat="44.7895" lon="6.7656">
        <ele>2011.2153320312</ele>
        <time>2007-08-27T09:52:57Z</time>
      </trkpt>
      <trkpt lat="44.78941" lon="6.76552">
        <ele>2009.7731933594</ele>
        <time>2007-08-27T09:53:00Z</time>
      </trkpt>
      <trkpt lat="44.78937" lon="6.76552">
        <ele>2008.8120117188</ele>
        <time>2007-08-27T09:53:02Z</time>
      </trkpt>
      <trkpt lat="44.78924" lon="6.76548">
        <ele>2006.8894042969</ele>
        <time>2007-08-27T09:53:06Z</time>
      </trkpt>
      <trkpt lat="44.7892" lon="6.76545">
        <ele>2003.5249023438</ele>
        <time>2007-08-27T09:53:08Z</time>
      </trkpt>
      <trkpt lat="44.78914" lon="6.76539">
        <ele>2000.1604003906</ele>
        <time>2007-08-27T09:53:12Z</time>
      </trkpt>
      <trkpt lat="44.78911" lon="6.76537">
        <ele>2000.1604003906</ele>
        <time>2007-08-27T09:53:13Z</time>
      </trkpt>
      <trkpt lat="44.78905" lon="6.76533">
        <ele>1996.7956542969</ele>
        <time>2007-08-27T09:53:17Z</time>
      </trkpt>
      <trkpt lat="44.78903" lon="6.7653">
        <ele>1996.7956542969</ele>
        <time>2007-08-27T09:53:18Z</time>
      </trkpt>
      <trkpt lat="44.78899" lon="6.76528">
        <ele>1995.353515625</ele>
        <time>2007-08-27T09:53:20Z</time>
      </trkpt>
      <trkpt lat="44.7889" lon="6.76522">
        <ele>1991.9890136719</ele>
        <time>2007-08-27T09:53:24Z</time>
      </trkpt>
      <trkpt lat="44.78877" lon="6.76515">
        <ele>1988.1437988281</ele>
        <time>2007-08-27T09:53:29Z</time>
      </trkpt>
      <trkpt lat="44.78868" lon="6.76513">
        <ele>1986.2211914062</ele>
        <time>2007-08-27T09:53:33Z</time>
      </trkpt>
      <trkpt lat="44.78853" lon="6.76511">
        <ele>1982.8564453125</ele>
        <time>2007-08-27T09:53:38Z</time>
      </trkpt>
      <trkpt lat="44.78843" lon="6.76511">
        <ele>1979.9724121094</ele>
        <time>2007-08-27T09:53:42Z</time>
      </trkpt>
      <trkpt lat="44.78826" lon="6.76515">
        <ele>1977.5690917969</ele>
        <time>2007-08-27T09:53:49Z</time>
      </trkpt>
      <trkpt lat="44.78815" lon="6.76517">
        <ele>1973.2434082031</ele>
        <time>2007-08-27T09:53:52Z</time>
      </trkpt>
      <trkpt lat="44.78811" lon="6.7652">
        <ele>1971.8012695312</ele>
        <time>2007-08-27T09:53:53Z</time>
      </trkpt>
      <trkpt lat="44.78798" lon="6.76541">
        <ele>1968.9174804688</ele>
        <time>2007-08-27T09:53:58Z</time>
      </trkpt>
      <trkpt lat="44.78763" lon="6.7658">
        <ele>1965.5529785156</ele>
        <time>2007-08-27T09:54:10Z</time>
      </trkpt>
      <trkpt lat="44.78755" lon="6.76582">
        <ele>1964.5915527344</ele>
        <time>2007-08-27T09:54:12Z</time>
      </trkpt>
      <trkpt lat="44.78738" lon="6.76593">
        <ele>1962.6687011719</ele>
        <time>2007-08-27T09:54:17Z</time>
      </trkpt>
      <trkpt lat="44.78723" lon="6.76597">
        <ele>1959.3041992188</ele>
        <time>2007-08-27T09:54:21Z</time>
      </trkpt>
      <trkpt lat="44.78718" lon="6.76599">
        <ele>1959.3041992188</ele>
        <time>2007-08-27T09:54:22Z</time>
      </trkpt>
      <trkpt lat="44.78686" lon="6.76605">
        <ele>1955.939453125</ele>
        <time>2007-08-27T09:54:30Z</time>
      </trkpt>
      <trkpt lat="44.7865" lon="6.76608">
        <ele>1952.5749511719</ele>
        <time>2007-08-27T09:54:39Z</time>
      </trkpt>
      <trkpt lat="44.78635" lon="6.76605">
        <ele>1949.6911621094</ele>
        <time>2007-08-27T09:54:43Z</time>
      </trkpt>
      <trkpt lat="44.78602" lon="6.76601">
        <ele>1945.845703125</ele>
        <time>2007-08-27T09:54:51Z</time>
      </trkpt>
      <trkpt lat="44.78598" lon="6.76599">
        <ele>1946.3264160156</ele>
        <time>2007-08-27T09:54:52Z</time>
      </trkpt>
      <trkpt lat="44.78577" lon="6.76588">
        <ele>1942.9616699219</ele>
        <time>2007-08-27T09:54:57Z</time>
      </trkpt>
      <trkpt lat="44.78557" lon="6.76575">
        <ele>1941.0390625</ele>
        <time>2007-08-27T09:55:01Z</time>
      </trkpt>
      <trkpt lat="44.78532" lon="6.76565">
        <ele>1938.6359863281</ele>
        <time>2007-08-27T09:55:06Z</time>
      </trkpt>
      <trkpt lat="44.78495" lon="6.76567">
        <ele>1934.3100585938</ele>
        <time>2007-08-27T09:55:13Z</time>
      </trkpt>
      <trkpt lat="44.78489" lon="6.76567">
        <ele>1934.3100585938</ele>
        <time>2007-08-27T09:55:14Z</time>
      </trkpt>
      <trkpt lat="44.78467" lon="6.76569">
        <ele>1932.3874511719</ele>
        <time>2007-08-27T09:55:18Z</time>
      </trkpt>
      <trkpt lat="44.78431" lon="6.76563">
        <ele>1929.5031738281</ele>
        <time>2007-08-27T09:55:26Z</time>
      </trkpt>
      <trkpt lat="44.78407" lon="6.76556">
        <ele>1926.138671875</ele>
        <time>2007-08-27T09:55:31Z</time>
      </trkpt>
      <trkpt lat="44.78384" lon="6.76554">
        <ele>1922.7741699219</ele>
        <time>2007-08-27T09:55:36Z</time>
      </trkpt>
      <trkpt lat="44.78354" lon="6.7655">
        <ele>1919.8901367188</ele>
        <time>2007-08-27T09:55:43Z</time>
      </trkpt>
      <trkpt lat="44.78319" lon="6.76535">
        <ele>1917.0063476562</ele>
        <time>2007-08-27T09:55:52Z</time>
      </trkpt>
      <trkpt lat="44.78306" lon="6.76526">
        <ele>1914.6027832031</ele>
        <time>2007-08-27T09:55:56Z</time>
      </trkpt>
      <trkpt lat="44.78298" lon="6.76522">
        <ele>1913.6413574219</ele>
        <time>2007-08-27T09:55:58Z</time>
      </trkpt>
      <trkpt lat="44.78274" lon="6.76515">
        <ele>1910.2768554688</ele>
        <time>2007-08-27T09:56:04Z</time>
      </trkpt>
      <trkpt lat="44.78259" lon="6.76513">
        <ele>1907.3930664062</ele>
        <time>2007-08-27T09:56:08Z</time>
      </trkpt>
      <trkpt lat="44.78246" lon="6.76511">
        <ele>1905.9509277344</ele>
        <time>2007-08-27T09:56:11Z</time>
      </trkpt>
      <trkpt lat="44.78233" lon="6.76509">
        <ele>1904.0285644531</ele>
        <time>2007-08-27T09:56:14Z</time>
      </trkpt>
      <trkpt lat="44.78178" lon="6.7652">
        <ele>1900.6638183594</ele>
        <time>2007-08-27T09:56:24Z</time>
      </trkpt>
      <trkpt lat="44.78145" lon="6.76539">
        <ele>1898.7409667969</ele>
        <time>2007-08-27T09:56:28Z</time>
      </trkpt>
      <trkpt lat="44.78111" lon="6.76556">
        <ele>1895.3764648438</ele>
        <time>2007-08-27T09:56:33Z</time>
      </trkpt>
      <trkpt lat="44.78092" lon="6.76567">
        <ele>1893.9345703125</ele>
        <time>2007-08-27T09:56:36Z</time>
      </trkpt>
      <trkpt lat="44.78057" lon="6.76584">
        <ele>1891.53125</ele>
        <time>2007-08-27T09:56:41Z</time>
      </trkpt>
      <trkpt lat="44.78036" lon="6.76593">
        <ele>1888.6474609375</ele>
        <time>2007-08-27T09:56:44Z</time>
      </trkpt>
      <trkpt lat="44.7801" lon="6.76605">
        <ele>1885.7634277344</ele>
        <time>2007-08-27T09:56:48Z</time>
      </trkpt>
      <trkpt lat="44.77991" lon="6.76616">
        <ele>1881.91796875</ele>
        <time>2007-08-27T09:56:51Z</time>
      </trkpt>
      <trkpt lat="44.77965" lon="6.76629">
        <ele>1879.0339355469</ele>
        <time>2007-08-27T09:56:55Z</time>
      </trkpt>
      <trkpt lat="44.77948" lon="6.76638">
        <ele>1875.6694335938</ele>
        <time>2007-08-27T09:56:58Z</time>
      </trkpt>
      <trkpt lat="44.77894" lon="6.76655">
        <ele>1872.3049316406</ele>
        <time>2007-08-27T09:57:05Z</time>
      </trkpt>
      <trkpt lat="44.77886" lon="6.76657">
        <ele>1872.3049316406</ele>
        <time>2007-08-27T09:57:06Z</time>
      </trkpt>
      <trkpt lat="44.7777" lon="6.76696">
        <ele>1869.4211425781</ele>
        <time>2007-08-27T09:57:22Z</time>
      </trkpt>
      <trkpt lat="44.77744" lon="6.76708">
        <ele>1869.4211425781</ele>
        <time>2007-08-27T09:57:26Z</time>
      </trkpt>
      <trkpt lat="44.77693" lon="6.76726">
        <ele>1868.4597167969</ele>
        <time>2007-08-27T09:57:34Z</time>
      </trkpt>
      <trkpt lat="44.7768" lon="6.7673">
        <ele>1867.9787597656</ele>
        <time>2007-08-27T09:57:37Z</time>
      </trkpt>
      <trkpt lat="44.77639" lon="6.7676">
        <ele>1864.6142578125</ele>
        <time>2007-08-27T09:57:48Z</time>
      </trkpt>
      <trkpt lat="44.77553" lon="6.76848">
        <ele>1862.6916503906</ele>
        <time>2007-08-27T09:59:53Z</time>
      </trkpt>
      <trkpt lat="44.77598" lon="6.7682">
        <ele>1863.1723632812</ele>
        <time>2007-08-27T09:59:36Z</time>
      </trkpt>
      <trkpt lat="44.77605" lon="6.76818">
        <ele>1863.6528320312</ele>
        <time>2007-08-27T09:59:32Z</time>
      </trkpt>
      <trkpt lat="44.77605" lon="6.76816">
        <ele>1863.6528320312</ele>
        <time>2007-08-27T09:59:25Z</time>
      </trkpt>
      <trkpt lat="44.77607" lon="6.76814">
        <ele>1863.6528320312</ele>
        <time>2007-08-27T09:59:24Z</time>
      </trkpt>
      <trkpt lat="44.77615" lon="6.76801">
        <ele>1863.1723632812</ele>
        <time>2007-08-27T09:59:11Z</time>
      </trkpt>
      <trkpt lat="44.77622" lon="6.7679">
        <ele>1862.6916503906</ele>
        <time>2007-08-27T09:58:53Z</time>
      </trkpt>
      <trkpt lat="44.77592" lon="6.76758">
        <ele>1863.1723632812</ele>
        <time>2007-08-27T09:58:42Z</time>
      </trkpt>
      <trkpt lat="44.77525" lon="6.76887">
        <ele>1872.3049316406</ele>
        <time>2007-08-27T10:04:12Z</time>
      </trkpt>
      <trkpt lat="44.77547" lon="6.76912">
        <ele>1872.7856445312</ele>
        <time>2007-08-27T10:04:15Z</time>
      </trkpt>
      <trkpt lat="44.7757" lon="6.76917">
        <ele>1874.2275390625</ele>
        <time>2007-08-27T10:04:32Z</time>
      </trkpt>
      <trkpt lat="44.77577" lon="6.76925">
        <ele>1875.6694335938</ele>
        <time>2007-08-27T10:05:41Z</time>
      </trkpt>
      <trkpt lat="44.77575" lon="6.76929">
        <ele>1878.0727539062</ele>
        <time>2007-08-27T10:06:45Z</time>
      </trkpt>
      <trkpt lat="44.77581" lon="6.76929">
        <ele>1881.4372558594</ele>
        <time>2007-08-27T10:06:55Z</time>
      </trkpt>
      <trkpt lat="44.77594" lon="6.76927">
        <ele>1882.8791503906</ele>
        <time>2007-08-27T10:07:14Z</time>
      </trkpt>
      <trkpt lat="44.77594" lon="6.76927">
        <ele>1886.244140625</ele>
        <time>2007-08-27T10:07:19Z</time>
      </trkpt>
      <trkpt lat="44.77607" lon="6.76927">
        <ele>1887.2053222656</ele>
        <time>2007-08-27T10:07:36Z</time>
      </trkpt>
      <trkpt lat="44.77613" lon="6.76927">
        <ele>1890.5698242188</ele>
        <time>2007-08-27T10:07:51Z</time>
      </trkpt>
      <trkpt lat="44.77622" lon="6.76934">
        <ele>1891.53125</ele>
        <time>2007-08-27T10:08:08Z</time>
      </trkpt>
      <trkpt lat="44.77624" lon="6.76934">
        <ele>1892.4926757812</ele>
        <time>2007-08-27T10:08:10Z</time>
      </trkpt>
      <trkpt lat="44.77622" lon="6.76936">
        <ele>1896.818359375</ele>
        <time>2007-08-27T10:08:12Z</time>
      </trkpt>
      <trkpt lat="44.77622" lon="6.76936">
        <ele>1896.818359375</ele>
        <time>2007-08-27T10:08:13Z</time>
      </trkpt>
      <trkpt lat="44.77615" lon="6.76944">
        <ele>1899.7023925781</ele>
        <time>2007-08-27T10:08:25Z</time>
      </trkpt>
      <trkpt lat="44.77622" lon="6.76944">
        <ele>1902.1057128906</ele>
        <time>2007-08-27T10:08:43Z</time>
      </trkpt>
      <trkpt lat="44.77628" lon="6.76942">
        <ele>1902.1057128906</ele>
        <time>2007-08-27T10:08:54Z</time>
      </trkpt>
      <trkpt lat="44.77618" lon="6.76951">
        <ele>1905.4704589844</ele>
        <time>2007-08-27T10:09:07Z</time>
      </trkpt>
      <trkpt lat="44.77618" lon="6.76953">
        <ele>1906.9123535156</ele>
        <time>2007-08-27T10:09:14Z</time>
      </trkpt>
      <trkpt lat="44.77624" lon="6.76962">
        <ele>1909.7961425781</ele>
        <time>2007-08-27T10:09:41Z</time>
      </trkpt>
      <trkpt lat="44.77641" lon="6.76964">
        <ele>1912.6801757812</ele>
        <time>2007-08-27T10:09:58Z</time>
      </trkpt>
      <trkpt lat="44.77656" lon="6.76962">
        <ele>1914.6027832031</ele>
        <time>2007-08-27T10:10:17Z</time>
      </trkpt>
      <trkpt lat="44.77665" lon="6.76962">
        <ele>1916.044921875</ele>
        <time>2007-08-27T10:10:31Z</time>
      </trkpt>
      <trkpt lat="44.77675" lon="6.76957">
        <ele>1918.9289550781</ele>
        <time>2007-08-27T10:10:47Z</time>
      </trkpt>
      <trkpt lat="44.77686" lon="6.76957">
        <ele>1922.2934570312</ele>
        <time>2007-08-27T10:11:09Z</time>
      </trkpt>
      <trkpt lat="44.77701" lon="6.76983">
        <ele>1925.1772460938</ele>
        <time>2007-08-27T10:11:43Z</time>
      </trkpt>
      <trkpt lat="44.77701" lon="6.76985">
        <ele>1928.5419921875</ele>
        <time>2007-08-27T10:11:55Z</time>
      </trkpt>
      <trkpt lat="44.77701" lon="6.76985">
        <ele>1928.5419921875</ele>
        <time>2007-08-27T10:11:56Z</time>
      </trkpt>
      <trkpt lat="44.77708" lon="6.76992">
        <ele>1931.9064941406</ele>
        <time>2007-08-27T10:12:18Z</time>
      </trkpt>
      <trkpt lat="44.7771" lon="6.76992">
        <ele>1931.9064941406</ele>
        <time>2007-08-27T10:12:19Z</time>
      </trkpt>
      <trkpt lat="44.77725" lon="6.76998">
        <ele>1933.3486328125</ele>
        <time>2007-08-27T10:12:45Z</time>
      </trkpt>
      <trkpt lat="44.77736" lon="6.76996">
        <ele>1933.3486328125</ele>
        <time>2007-08-27T10:13:05Z</time>
      </trkpt>
      <trkpt lat="44.77736" lon="6.76996">
        <ele>1933.3486328125</ele>
        <time>2007-08-27T10:13:09Z</time>
      </trkpt>
      <trkpt lat="44.77723" lon="6.77013">
        <ele>1936.7131347656</ele>
        <time>2007-08-27T10:13:26Z</time>
      </trkpt>
      <trkpt lat="44.7772" lon="6.77017">
        <ele>1937.6745605469</ele>
        <time>2007-08-27T10:13:30Z</time>
      </trkpt>
      <trkpt lat="44.77688" lon="6.77039">
        <ele>1940.0778808594</ele>
        <time>2007-08-27T10:13:59Z</time>
      </trkpt>
      <trkpt lat="44.77671" lon="6.77071">
        <ele>1943.4423828125</ele>
        <time>2007-08-27T10:14:21Z</time>
      </trkpt>
      <trkpt lat="44.77665" lon="6.77086">
        <ele>1946.8068847656</ele>
        <time>2007-08-27T10:14:34Z</time>
      </trkpt>
      <trkpt lat="44.7766" lon="6.77103">
        <ele>1949.6911621094</ele>
        <time>2007-08-27T10:14:54Z</time>
      </trkpt>
      <trkpt lat="44.77667" lon="6.77129">
        <ele>1953.0556640625</ele>
        <time>2007-08-27T10:15:37Z</time>
      </trkpt>
      <trkpt lat="44.77678" lon="6.77142">
        <ele>1956.4201660156</ele>
        <time>2007-08-27T10:16:08Z</time>
      </trkpt>
      <trkpt lat="44.77693" lon="6.77148">
        <ele>1959.3041992188</ele>
        <time>2007-08-27T10:16:35Z</time>
      </trkpt>
      <trkpt lat="44.77757" lon="6.77065">
        <ele>1960.74609375</ele>
        <time>2007-08-27T10:16:47Z</time>
      </trkpt>
      <trkpt lat="44.7774" lon="6.77084">
        <ele>1959.7846679688</ele>
        <time>2007-08-27T10:16:59Z</time>
      </trkpt>
      <trkpt lat="44.77736" lon="6.77097">
        <ele>1959.7846679688</ele>
        <time>2007-08-27T10:17:06Z</time>
      </trkpt>
      <trkpt lat="44.77718" lon="6.7711">
        <ele>1962.6687011719</ele>
        <time>2007-08-27T10:17:18Z</time>
      </trkpt>
      <trkpt lat="44.77716" lon="6.7711">
        <ele>1962.6687011719</ele>
        <time>2007-08-27T10:17:19Z</time>
      </trkpt>
      <trkpt lat="44.77682" lon="6.77131">
        <ele>1966.0334472656</ele>
        <time>2007-08-27T10:17:45Z</time>
      </trkpt>
      <trkpt lat="44.77669" lon="6.77142">
        <ele>1967.4753417969</ele>
        <time>2007-08-27T10:18:04Z</time>
      </trkpt>
      <trkpt lat="44.7772" lon="6.77133">
        <ele>1970.8400878906</ele>
        <time>2007-08-27T10:18:30Z</time>
      </trkpt>
      <trkpt lat="44.77742" lon="6.77129">
        <ele>1974.6853027344</ele>
        <time>2007-08-27T10:18:46Z</time>
      </trkpt>
      <trkpt lat="44.77748" lon="6.77125">
        <ele>1977.0886230469</ele>
        <time>2007-08-27T10:18:59Z</time>
      </trkpt>
      <trkpt lat="44.77744" lon="6.7714">
        <ele>1979.0109863281</ele>
        <time>2007-08-27T10:19:15Z</time>
      </trkpt>
      <trkpt lat="44.77733" lon="6.77159">
        <ele>1981.4145507812</ele>
        <time>2007-08-27T10:19:39Z</time>
      </trkpt>
      <trkpt lat="44.77725" lon="6.77172">
        <ele>1984.779296875</ele>
        <time>2007-08-27T10:19:58Z</time>
      </trkpt>
      <trkpt lat="44.77723" lon="6.77174">
        <ele>1985.7404785156</ele>
        <time>2007-08-27T10:20:03Z</time>
      </trkpt>
      <trkpt lat="44.77723" lon="6.77176">
        <ele>1986.2211914062</ele>
        <time>2007-08-27T10:20:06Z</time>
      </trkpt>
      <trkpt lat="44.77753" lon="6.77168">
        <ele>1987.1823730469</ele>
        <time>2007-08-27T10:20:22Z</time>
      </trkpt>
      <trkpt lat="44.77776" lon="6.77157">
        <ele>1990.06640625</ele>
        <time>2007-08-27T10:20:42Z</time>
      </trkpt>
      <trkpt lat="44.77787" lon="6.77142">
        <ele>1993.9116210938</ele>
        <time>2007-08-27T10:21:01Z</time>
      </trkpt>
      <trkpt lat="44.77789" lon="6.77144">
        <ele>1993.4309082031</ele>
        <time>2007-08-27T10:21:14Z</time>
      </trkpt>
      <trkpt lat="44.77776" lon="6.77174">
        <ele>1996.7956542969</ele>
        <time>2007-08-27T10:21:32Z</time>
      </trkpt>
      <trkpt lat="44.77766" lon="6.77198">
        <ele>1998.7182617188</ele>
        <time>2007-08-27T10:21:48Z</time>
      </trkpt>
      <trkpt lat="44.77757" lon="6.772">
        <ele>1999.1989746094</ele>
        <time>2007-08-27T10:21:53Z</time>
      </trkpt>
      <trkpt lat="44.77738" lon="6.77215">
        <ele>2002.0827636719</ele>
        <time>2007-08-27T10:22:11Z</time>
      </trkpt>
      <trkpt lat="44.77729" lon="6.77219">
        <ele>2002.5634765625</ele>
        <time>2007-08-27T10:22:17Z</time>
      </trkpt>
      <trkpt lat="44.77716" lon="6.77241">
        <ele>2005.9279785156</ele>
        <time>2007-08-27T10:22:32Z</time>
      </trkpt>
      <trkpt lat="44.77705" lon="6.77266">
        <ele>2009.2927246094</ele>
        <time>2007-08-27T10:22:54Z</time>
      </trkpt>
      <trkpt lat="44.77712" lon="6.77264">
        <ele>2008.8120117188</ele>
        <time>2007-08-27T10:22:59Z</time>
      </trkpt>
      <trkpt lat="44.77751" lon="6.77251">
        <ele>2012.6574707031</ele>
        <time>2007-08-27T10:23:24Z</time>
      </trkpt>
      <trkpt lat="44.77768" lon="6.77243">
        <ele>2016.0219726562</ele>
        <time>2007-08-27T10:23:46Z</time>
      </trkpt>
      <trkpt lat="44.77787" lon="6.77232">
        <ele>2018.4252929688</ele>
        <time>2007-08-27T10:24:12Z</time>
      </trkpt>
      <trkpt lat="44.77804" lon="6.77226">
        <ele>2021.3090820312</ele>
        <time>2007-08-27T10:24:32Z</time>
      </trkpt>
      <trkpt lat="44.77808" lon="6.7723">
        <ele>2023.2319335938</ele>
        <time>2007-08-27T10:24:55Z</time>
      </trkpt>
      <trkpt lat="44.77798" lon="6.77247">
        <ele>2026.5964355469</ele>
        <time>2007-08-27T10:25:06Z</time>
      </trkpt>
      <trkpt lat="44.77785" lon="6.77258">
        <ele>2028.9997558594</ele>
        <time>2007-08-27T10:25:19Z</time>
      </trkpt>
      <trkpt lat="44.77778" lon="6.77277">
        <ele>2031.8837890625</ele>
        <time>2007-08-27T10:25:34Z</time>
      </trkpt>
      <trkpt lat="44.77755" lon="6.77294">
        <ele>2033.8063964844</ele>
        <time>2007-08-27T10:25:57Z</time>
      </trkpt>
      <trkpt lat="44.77751" lon="6.7732">
        <ele>2036.2097167969</ele>
        <time>2007-08-27T10:26:25Z</time>
      </trkpt>
      <trkpt lat="44.77763" lon="6.77322">
        <ele>2039.57421875</ele>
        <time>2007-08-27T10:26:52Z</time>
      </trkpt>
      <trkpt lat="44.77778" lon="6.77314">
        <ele>2042.4582519531</ele>
        <time>2007-08-27T10:27:08Z</time>
      </trkpt>
      <trkpt lat="44.77791" lon="6.77314">
        <ele>2045.8229980469</ele>
        <time>2007-08-27T10:27:26Z</time>
      </trkpt>
      <trkpt lat="44.77811" lon="6.77299">
        <ele>2048.7067871094</ele>
        <time>2007-08-27T10:27:50Z</time>
      </trkpt>
      <trkpt lat="44.77823" lon="6.77292">
        <ele>2052.0712890625</ele>
        <time>2007-08-27T10:28:06Z</time>
      </trkpt>
      <trkpt lat="44.77843" lon="6.77286">
        <ele>2054.9553222656</ele>
        <time>2007-08-27T10:28:26Z</time>
      </trkpt>
      <trkpt lat="44.77847" lon="6.77286">
        <ele>2058.3198242188</ele>
        <time>2007-08-27T10:28:47Z</time>
      </trkpt>
      <trkpt lat="44.77834" lon="6.77303">
        <ele>2060.7233886719</ele>
        <time>2007-08-27T10:29:08Z</time>
      </trkpt>
      <trkpt lat="44.77823" lon="6.77329">
        <ele>2062.6459960938</ele>
        <time>2007-08-27T10:29:37Z</time>
      </trkpt>
      <trkpt lat="44.77811" lon="6.77341">
        <ele>2064.5686035156</ele>
        <time>2007-08-27T10:29:55Z</time>
      </trkpt>
      <trkpt lat="44.77798" lon="6.77359">
        <ele>2066.9719238281</ele>
        <time>2007-08-27T10:30:22Z</time>
      </trkpt>
      <trkpt lat="44.77787" lon="6.77374">
        <ele>2070.3364257812</ele>
        <time>2007-08-27T10:30:49Z</time>
      </trkpt>
      <trkpt lat="44.77772" lon="6.77397">
        <ele>2072.7397460938</ele>
        <time>2007-08-27T10:31:12Z</time>
      </trkpt>
      <trkpt lat="44.77763" lon="6.77406">
        <ele>2073.7009277344</ele>
        <time>2007-08-27T10:31:27Z</time>
      </trkpt>
      <trkpt lat="44.77742" lon="6.77427">
        <ele>2075.1428222656</ele>
        <time>2007-08-27T10:31:57Z</time>
      </trkpt>
      <trkpt lat="44.77731" lon="6.77419">
        <ele>2075.1428222656</ele>
        <time>2007-08-27T10:33:02Z</time>
      </trkpt>
      <trkpt lat="44.77742" lon="6.77427">
        <ele>2078.5078125</ele>
        <time>2007-08-27T10:33:21Z</time>
      </trkpt>
      <trkpt lat="44.77746" lon="6.77429">
        <ele>2078.0270996094</ele>
        <time>2007-08-27T10:33:27Z</time>
      </trkpt>
      <trkpt lat="44.77763" lon="6.77425">
        <ele>2081.3916015625</ele>
        <time>2007-08-27T10:33:45Z</time>
      </trkpt>
      <trkpt lat="44.77778" lon="6.77419">
        <ele>2084.2756347656</ele>
        <time>2007-08-27T10:34:04Z</time>
      </trkpt>
      <trkpt lat="44.77781" lon="6.77419">
        <ele>2086.1982421875</ele>
        <time>2007-08-27T10:34:37Z</time>
      </trkpt>
      <trkpt lat="44.77783" lon="6.77419">
        <ele>2088.1208496094</ele>
        <time>2007-08-27T10:35:07Z</time>
      </trkpt>
      <trkpt lat="44.77778" lon="6.77429">
        <ele>2090.5239257812</ele>
        <time>2007-08-27T10:35:25Z</time>
      </trkpt>
      <trkpt lat="44.77772" lon="6.7744">
        <ele>2092.4470214844</ele>
        <time>2007-08-27T10:35:38Z</time>
      </trkpt>
      <trkpt lat="44.77766" lon="6.77451">
        <ele>2094.8500976562</ele>
        <time>2007-08-27T10:35:52Z</time>
      </trkpt>
      <trkpt lat="44.77746" lon="6.77459">
        <ele>2097.7341308594</ele>
        <time>2007-08-27T10:36:16Z</time>
      </trkpt>
      <trkpt lat="44.77731" lon="6.77479">
        <ele>2098.6953125</ele>
        <time>2007-08-27T10:36:39Z</time>
      </trkpt>
      <trkpt lat="44.77714" lon="6.7749">
        <ele>2102.5405273438</ele>
        <time>2007-08-27T10:36:57Z</time>
      </trkpt>
      <trkpt lat="44.77699" lon="6.77498">
        <ele>2103.501953125</ele>
        <time>2007-08-27T10:37:14Z</time>
      </trkpt>
      <trkpt lat="44.77693" lon="6.77507">
        <ele>2105.4245605469</ele>
        <time>2007-08-27T10:37:39Z</time>
      </trkpt>
      <trkpt lat="44.77695" lon="6.77509">
        <ele>2109.2700195312</ele>
        <time>2007-08-27T10:37:54Z</time>
      </trkpt>
      <trkpt lat="44.77695" lon="6.77522">
        <ele>2112.6345214844</ele>
        <time>2007-08-27T10:38:16Z</time>
      </trkpt>
      <trkpt lat="44.77695" lon="6.77524">
        <ele>2112.6345214844</ele>
        <time>2007-08-27T10:38:17Z</time>
      </trkpt>
      <trkpt lat="44.77695" lon="6.77535">
        <ele>2114.0764160156</ele>
        <time>2007-08-27T10:38:34Z</time>
      </trkpt>
      <trkpt lat="44.77699" lon="6.7755">
        <ele>2116.9604492188</ele>
        <time>2007-08-27T10:38:53Z</time>
      </trkpt>
      <trkpt lat="44.77701" lon="6.77571">
        <ele>2119.8442382812</ele>
        <time>2007-08-27T10:39:21Z</time>
      </trkpt>
      <trkpt lat="44.77699" lon="6.77575">
        <ele>2121.2861328125</ele>
        <time>2007-08-27T10:39:26Z</time>
      </trkpt>
      <trkpt lat="44.77697" lon="6.77588">
        <ele>2124.1704101562</ele>
        <time>2007-08-27T10:39:42Z</time>
      </trkpt>
      <trkpt lat="44.77699" lon="6.77601">
        <ele>2126.5737304688</ele>
        <time>2007-08-27T10:39:58Z</time>
      </trkpt>
      <trkpt lat="44.77703" lon="6.77616">
        <ele>2129.4575195312</ele>
        <time>2007-08-27T10:40:16Z</time>
      </trkpt>
      <trkpt lat="44.77705" lon="6.77627">
        <ele>2130.4189453125</ele>
        <time>2007-08-27T10:40:34Z</time>
      </trkpt>
      <trkpt lat="44.7771" lon="6.77633">
        <ele>2131.3801269531</ele>
        <time>2007-08-27T10:40:53Z</time>
      </trkpt>
      <trkpt lat="44.77714" lon="6.77653">
        <ele>2133.7834472656</ele>
        <time>2007-08-27T10:41:09Z</time>
      </trkpt>
      <trkpt lat="44.77718" lon="6.77668">
        <ele>2137.1479492188</ele>
        <time>2007-08-27T10:41:25Z</time>
      </trkpt>
      <trkpt lat="44.7772" lon="6.77674">
        <ele>2138.109375</ele>
        <time>2007-08-27T10:41:45Z</time>
      </trkpt>
      <trkpt lat="44.77727" lon="6.77693">
        <ele>2139.5512695312</ele>
        <time>2007-08-27T10:41:59Z</time>
      </trkpt>
      <trkpt lat="44.77729" lon="6.77696">
        <ele>2140.5126953125</ele>
        <time>2007-08-27T10:42:09Z</time>
      </trkpt>
      <trkpt lat="44.77736" lon="6.77713">
        <ele>2140.0322265625</ele>
        <time>2007-08-27T10:42:22Z</time>
      </trkpt>
      <trkpt lat="44.77751" lon="6.77764">
        <ele>2142.916015625</ele>
        <time>2007-08-27T10:42:53Z</time>
      </trkpt>
      <trkpt lat="44.77757" lon="6.77796">
        <ele>2145.3193359375</ele>
        <time>2007-08-27T10:43:11Z</time>
      </trkpt>
      <trkpt lat="44.77766" lon="6.77816">
        <ele>2146.7612304688</ele>
        <time>2007-08-27T10:43:22Z</time>
      </trkpt>
      <trkpt lat="44.77802" lon="6.77835">
        <ele>2147.2419433594</ele>
        <time>2007-08-27T10:43:40Z</time>
      </trkpt>
      <trkpt lat="44.77834" lon="6.77854">
        <ele>2149.6452636719</ele>
        <time>2007-08-27T10:43:59Z</time>
      </trkpt>
      <trkpt lat="44.77873" lon="6.77863">
        <ele>2151.0871582031</ele>
        <time>2007-08-27T10:44:18Z</time>
      </trkpt>
      <trkpt lat="44.77905" lon="6.77867">
        <ele>2151.5678710938</ele>
        <time>2007-08-27T10:44:34Z</time>
      </trkpt>
      <trkpt lat="44.77911" lon="6.77871">
        <ele>2151.5678710938</ele>
        <time>2007-08-27T10:44:36Z</time>
      </trkpt>
      <trkpt lat="44.77942" lon="6.77884">
        <ele>2153.009765625</ele>
        <time>2007-08-27T10:44:51Z</time>
      </trkpt>
      <trkpt lat="44.77954" lon="6.77882">
        <ele>2154.4516601562</ele>
        <time>2007-08-27T10:45:14Z</time>
      </trkpt>
      <trkpt lat="44.77967" lon="6.77882">
        <ele>2155.4130859375</ele>
        <time>2007-08-27T10:45:28Z</time>
      </trkpt>
      <trkpt lat="44.77982" lon="6.77891">
        <ele>2156.3745117188</ele>
        <time>2007-08-27T10:45:42Z</time>
      </trkpt>
      <trkpt lat="44.78006" lon="6.77899">
        <ele>2159.7390136719</ele>
        <time>2007-08-27T10:45:56Z</time>
      </trkpt>
      <trkpt lat="44.78027" lon="6.77912">
        <ele>2161.1811523438</ele>
        <time>2007-08-27T10:46:14Z</time>
      </trkpt>
      <trkpt lat="44.78042" lon="6.77919">
        <ele>2163.1037597656</ele>
        <time>2007-08-27T10:46:33Z</time>
      </trkpt>
      <trkpt lat="44.78053" lon="6.77929">
        <ele>2163.5842285156</ele>
        <time>2007-08-27T10:46:48Z</time>
      </trkpt>
      <trkpt lat="44.78075" lon="6.77938">
        <ele>2164.5456542969</ele>
        <time>2007-08-27T10:47:03Z</time>
      </trkpt>
      <trkpt lat="44.78102" lon="6.77951">
        <ele>2165.9875488281</ele>
        <time>2007-08-27T10:47:23Z</time>
      </trkpt>
      <trkpt lat="44.78122" lon="6.77962">
        <ele>2165.9875488281</ele>
        <time>2007-08-27T10:47:35Z</time>
      </trkpt>
      <trkpt lat="44.78141" lon="6.77964">
        <ele>2169.3522949219</ele>
        <time>2007-08-27T10:47:48Z</time>
      </trkpt>
      <trkpt lat="44.78171" lon="6.77977">
        <ele>2171.7553710938</ele>
        <time>2007-08-27T10:48:12Z</time>
      </trkpt>
      <trkpt lat="44.78175" lon="6.77979">
        <ele>2172.7170410156</ele>
        <time>2007-08-27T10:48:15Z</time>
      </trkpt>
      <trkpt lat="44.78186" lon="6.77985">
        <ele>2174.1589355469</ele>
        <time>2007-08-27T10:48:29Z</time>
      </trkpt>
      <trkpt lat="44.78193" lon="6.77992">
        <ele>2175.1201171875</ele>
        <time>2007-08-27T10:48:41Z</time>
      </trkpt>
      <trkpt lat="44.78205" lon="6.78002">
        <ele>2178.4848632812</ele>
        <time>2007-08-27T10:49:00Z</time>
      </trkpt>
      <trkpt lat="44.78216" lon="6.78022">
        <ele>2180.8881835938</ele>
        <time>2007-08-27T10:49:19Z</time>
      </trkpt>
      <trkpt lat="44.78233" lon="6.78043">
        <ele>2180.4074707031</ele>
        <time>2007-08-27T10:49:48Z</time>
      </trkpt>
      <trkpt lat="44.78248" lon="6.7806">
        <ele>2183.2912597656</ele>
        <time>2007-08-27T10:50:03Z</time>
      </trkpt>
      <trkpt lat="44.78268" lon="6.78082">
        <ele>2183.7719726562</ele>
        <time>2007-08-27T10:50:19Z</time>
      </trkpt>
      <trkpt lat="44.78289" lon="6.78099">
        <ele>2185.2138671875</ele>
        <time>2007-08-27T10:50:37Z</time>
      </trkpt>
      <trkpt lat="44.78293" lon="6.78099">
        <ele>2186.6557617188</ele>
        <time>2007-08-27T10:50:41Z</time>
      </trkpt>
      <trkpt lat="44.78304" lon="6.78101">
        <ele>2189.5400390625</ele>
        <time>2007-08-27T10:50:50Z</time>
      </trkpt>
      <trkpt lat="44.78317" lon="6.78108">
        <ele>2192.9045410156</ele>
        <time>2007-08-27T10:51:10Z</time>
      </trkpt>
      <trkpt lat="44.78332" lon="6.78118">
        <ele>2193.8659667969</ele>
        <time>2007-08-27T10:51:30Z</time>
      </trkpt>
      <trkpt lat="44.78351" lon="6.78123">
        <ele>2196.2692871094</ele>
        <time>2007-08-27T10:51:55Z</time>
      </trkpt>
      <trkpt lat="44.78356" lon="6.78125">
        <ele>2195.7885742188</ele>
        <time>2007-08-27T10:51:59Z</time>
      </trkpt>
      <trkpt lat="44.78366" lon="6.78131">
        <ele>2196.7497558594</ele>
        <time>2007-08-27T10:52:08Z</time>
      </trkpt>
      <trkpt lat="44.78375" lon="6.78133">
        <ele>2199.6337890625</ele>
        <time>2007-08-27T10:52:15Z</time>
      </trkpt>
      <trkpt lat="44.78394" lon="6.78142">
        <ele>2200.5949707031</ele>
        <time>2007-08-27T10:52:31Z</time>
      </trkpt>
      <trkpt lat="44.78416" lon="6.78142">
        <ele>2201.5563964844</ele>
        <time>2007-08-27T10:52:48Z</time>
      </trkpt>
      <trkpt lat="44.78433" lon="6.78146">
        <ele>2204.9211425781</ele>
        <time>2007-08-27T10:53:03Z</time>
      </trkpt>
      <trkpt lat="44.78452" lon="6.78146">
        <ele>2207.3244628906</ele>
        <time>2007-08-27T10:53:21Z</time>
      </trkpt>
      <trkpt lat="44.78469" lon="6.78142">
        <ele>2208.7663574219</ele>
        <time>2007-08-27T10:53:42Z</time>
      </trkpt>
      <trkpt lat="44.78478" lon="6.78142">
        <ele>2210.6889648438</ele>
        <time>2007-08-27T10:54:17Z</time>
      </trkpt>
      <trkpt lat="44.78491" lon="6.78146">
        <ele>2214.0534667969</ele>
        <time>2007-08-27T10:54:34Z</time>
      </trkpt>
      <trkpt lat="44.78502" lon="6.78159">
        <ele>2215.4956054688</ele>
        <time>2007-08-27T10:54:54Z</time>
      </trkpt>
      <trkpt lat="44.7851" lon="6.78168">
        <ele>2217.8986816406</ele>
        <time>2007-08-27T10:55:09Z</time>
      </trkpt>
      <trkpt lat="44.78519" lon="6.78178">
        <ele>2220.7829589844</ele>
        <time>2007-08-27T10:55:27Z</time>
      </trkpt>
      <trkpt lat="44.78525" lon="6.78187">
        <ele>2221.744140625</ele>
        <time>2007-08-27T10:55:39Z</time>
      </trkpt>
      <trkpt lat="44.78538" lon="6.78206">
        <ele>2223.6667480469</ele>
        <time>2007-08-27T10:55:58Z</time>
      </trkpt>
      <trkpt lat="44.7854" lon="6.78208">
        <ele>2223.6667480469</ele>
        <time>2007-08-27T10:56:00Z</time>
      </trkpt>
      <trkpt lat="44.78547" lon="6.78226">
        <ele>2226.55078125</ele>
        <time>2007-08-27T10:56:16Z</time>
      </trkpt>
      <trkpt lat="44.78562" lon="6.78232">
        <ele>2227.9926757812</ele>
        <time>2007-08-27T10:56:33Z</time>
      </trkpt>
      <trkpt lat="44.78572" lon="6.78238">
        <ele>2229.9152832031</ele>
        <time>2007-08-27T10:56:48Z</time>
      </trkpt>
      <trkpt lat="44.78587" lon="6.78251">
        <ele>2233.2797851562</ele>
        <time>2007-08-27T10:57:08Z</time>
      </trkpt>
      <trkpt lat="44.78596" lon="6.78258">
        <ele>2233.7604980469</ele>
        <time>2007-08-27T10:57:20Z</time>
      </trkpt>
      <trkpt lat="44.78611" lon="6.78262">
        <ele>2236.1640625</ele>
        <time>2007-08-27T10:57:38Z</time>
      </trkpt>
      <trkpt lat="44.78613" lon="6.78264">
        <ele>2235.2023925781</ele>
        <time>2007-08-27T10:57:50Z</time>
      </trkpt>
      <trkpt lat="44.78617" lon="6.78268">
        <ele>2237.1252441406</ele>
        <time>2007-08-27T10:58:01Z</time>
      </trkpt>
      <trkpt lat="44.7862" lon="6.78271">
        <ele>2238.0866699219</ele>
        <time>2007-08-27T10:58:05Z</time>
      </trkpt>
      <trkpt lat="44.78635" lon="6.78294">
        <ele>2239.0478515625</ele>
        <time>2007-08-27T10:58:25Z</time>
      </trkpt>
      <trkpt lat="44.78643" lon="6.78298">
        <ele>2242.4125976562</ele>
        <time>2007-08-27T10:58:37Z</time>
      </trkpt>
      <trkpt lat="44.78652" lon="6.78307">
        <ele>2244.3349609375</ele>
        <time>2007-08-27T10:58:55Z</time>
      </trkpt>
      <trkpt lat="44.78662" lon="6.78311">
        <ele>2246.2578125</ele>
        <time>2007-08-27T10:59:13Z</time>
      </trkpt>
      <trkpt lat="44.78671" lon="6.78322">
        <ele>2248.6608886719</ele>
        <time>2007-08-27T10:59:30Z</time>
      </trkpt>
      <trkpt lat="44.7868" lon="6.78326">
        <ele>2251.544921875</ele>
        <time>2007-08-27T10:59:44Z</time>
      </trkpt>
      <trkpt lat="44.7868" lon="6.78326">
        <ele>2251.0642089844</ele>
        <time>2007-08-27T10:59:46Z</time>
      </trkpt>
      <trkpt lat="44.78686" lon="6.78326">
        <ele>2251.544921875</ele>
        <time>2007-08-27T11:00:09Z</time>
      </trkpt>
      <trkpt lat="44.78697" lon="6.78329">
        <ele>2252.0256347656</ele>
        <time>2007-08-27T11:00:23Z</time>
      </trkpt>
      <trkpt lat="44.78725" lon="6.78335">
        <ele>2251.544921875</ele>
        <time>2007-08-27T11:00:36Z</time>
      </trkpt>
      <trkpt lat="44.78753" lon="6.78361">
        <ele>2252.9870605469</ele>
        <time>2007-08-27T11:00:52Z</time>
      </trkpt>
      <trkpt lat="44.78778" lon="6.78374">
        <ele>2252.0256347656</ele>
        <time>2007-08-27T11:01:02Z</time>
      </trkpt>
      <trkpt lat="44.78789" lon="6.78391">
        <ele>2252.5063476562</ele>
        <time>2007-08-27T11:01:11Z</time>
      </trkpt>
      <trkpt lat="44.78796" lon="6.78401">
        <ele>2254.4289550781</ele>
        <time>2007-08-27T11:01:23Z</time>
      </trkpt>
      <trkpt lat="44.78808" lon="6.78419">
        <ele>2254.9096679688</ele>
        <time>2007-08-27T11:01:38Z</time>
      </trkpt>
      <trkpt lat="44.78815" lon="6.7844">
        <ele>2256.8322753906</ele>
        <time>2007-08-27T11:01:49Z</time>
      </trkpt>
      <trkpt lat="44.78815" lon="6.78444">
        <ele>2257.7937011719</ele>
        <time>2007-08-27T11:01:51Z</time>
      </trkpt>
      <trkpt lat="44.78817" lon="6.78457">
        <ele>2258.2741699219</ele>
        <time>2007-08-27T11:01:59Z</time>
      </trkpt>
      <trkpt lat="44.78826" lon="6.78483">
        <ele>2260.1967773438</ele>
        <time>2007-08-27T11:02:17Z</time>
      </trkpt>
      <trkpt lat="44.78841" lon="6.78504">
        <ele>2260.1967773438</ele>
        <time>2007-08-27T11:02:29Z</time>
      </trkpt>
      <trkpt lat="44.7886" lon="6.78526">
        <ele>2260.1967773438</ele>
        <time>2007-08-27T11:02:45Z</time>
      </trkpt>
      <trkpt lat="44.78877" lon="6.78547">
        <ele>2260.1967773438</ele>
        <time>2007-08-27T11:02:58Z</time>
      </trkpt>
      <trkpt lat="44.78884" lon="6.78584">
        <ele>2262.6000976562</ele>
        <time>2007-08-27T11:03:13Z</time>
      </trkpt>
      <trkpt lat="44.78896" lon="6.78616">
        <ele>2265.0034179688</ele>
        <time>2007-08-27T11:03:29Z</time>
      </trkpt>
      <trkpt lat="44.78918" lon="6.78646">
        <ele>2266.4453125</ele>
        <time>2007-08-27T11:03:48Z</time>
      </trkpt>
      <trkpt lat="44.78946" lon="6.7867">
        <ele>2267.8872070312</ele>
        <time>2007-08-27T11:04:08Z</time>
      </trkpt>
      <trkpt lat="44.78959" lon="6.78676">
        <ele>2268.8488769531</ele>
        <time>2007-08-27T11:04:16Z</time>
      </trkpt>
      <trkpt lat="44.78965" lon="6.78683">
        <ele>2268.8488769531</ele>
        <time>2007-08-27T11:04:30Z</time>
      </trkpt>
      <trkpt lat="44.78963" lon="6.78683">
        <ele>2270.2907714844</ele>
        <time>2007-08-27T11:05:39Z</time>
      </trkpt>
      <trkpt lat="44.78965" lon="6.78683">
        <ele>2269.8100585938</ele>
        <time>2007-08-27T11:06:24Z</time>
      </trkpt>
      <trkpt lat="44.78967" lon="6.78678">
        <ele>2270.2907714844</ele>
        <time>2007-08-27T11:06:26Z</time>
      </trkpt>
      <trkpt lat="44.78961" lon="6.78668">
        <ele>2273.6552734375</ele>
        <time>2007-08-27T11:06:40Z</time>
      </trkpt>
      <trkpt lat="44.78956" lon="6.78655">
        <ele>2276.5393066406</ele>
        <time>2007-08-27T11:06:57Z</time>
      </trkpt>
      <trkpt lat="44.7895" lon="6.7864">
        <ele>2279.4230957031</ele>
        <time>2007-08-27T11:07:17Z</time>
      </trkpt>
      <trkpt lat="44.78946" lon="6.78629">
        <ele>2281.345703125</ele>
        <time>2007-08-27T11:07:36Z</time>
      </trkpt>
      <trkpt lat="44.78948" lon="6.7862">
        <ele>2283.7490234375</ele>
        <time>2007-08-27T11:07:53Z</time>
      </trkpt>
      <trkpt lat="44.78956" lon="6.78625">
        <ele>2285.1911621094</ele>
        <time>2007-08-27T11:08:08Z</time>
      </trkpt>
      <trkpt lat="44.78967" lon="6.78622">
        <ele>2288.0751953125</ele>
        <time>2007-08-27T11:08:26Z</time>
      </trkpt>
      <trkpt lat="44.78978" lon="6.78625">
        <ele>2291.4396972656</ele>
        <time>2007-08-27T11:08:45Z</time>
      </trkpt>
      <trkpt lat="44.78991" lon="6.78627">
        <ele>2292.4011230469</ele>
        <time>2007-08-27T11:09:02Z</time>
      </trkpt>
      <trkpt lat="44.78997" lon="6.78627">
        <ele>2293.8430175781</ele>
        <time>2007-08-27T11:09:09Z</time>
      </trkpt>
      <trkpt lat="44.79014" lon="6.78638">
        <ele>2296.7268066406</ele>
        <time>2007-08-27T11:09:29Z</time>
      </trkpt>
      <trkpt lat="44.79029" lon="6.78646">
        <ele>2299.1301269531</ele>
        <time>2007-08-27T11:09:49Z</time>
      </trkpt>
      <trkpt lat="44.79038" lon="6.78657">
        <ele>2300.091796875</ele>
        <time>2007-08-27T11:10:03Z</time>
      </trkpt>
      <trkpt lat="44.79053" lon="6.78668">
        <ele>2303.9370117188</ele>
        <time>2007-08-27T11:10:23Z</time>
      </trkpt>
      <trkpt lat="44.79066" lon="6.78676">
        <ele>2306.8208007812</ele>
        <time>2007-08-27T11:10:42Z</time>
      </trkpt>
      <trkpt lat="44.79079" lon="6.78693">
        <ele>2308.7434082031</ele>
        <time>2007-08-27T11:11:02Z</time>
      </trkpt>
      <trkpt lat="44.79087" lon="6.78713">
        <ele>2309.7045898438</ele>
        <time>2007-08-27T11:11:19Z</time>
      </trkpt>
      <trkpt lat="44.79094" lon="6.78732">
        <ele>2313.0693359375</ele>
        <time>2007-08-27T11:11:36Z</time>
      </trkpt>
      <trkpt lat="44.79098" lon="6.78745">
        <ele>2315.953125</ele>
        <time>2007-08-27T11:11:53Z</time>
      </trkpt>
      <trkpt lat="44.79102" lon="6.7876">
        <ele>2318.3566894531</ele>
        <time>2007-08-27T11:12:10Z</time>
      </trkpt>
      <trkpt lat="44.79109" lon="6.78775">
        <ele>2320.7600097656</ele>
        <time>2007-08-27T11:12:28Z</time>
      </trkpt>
      <trkpt lat="44.79122" lon="6.78781">
        <ele>2323.6437988281</ele>
        <time>2007-08-27T11:12:48Z</time>
      </trkpt>
      <trkpt lat="44.79122" lon="6.78781">
        <ele>2323.6437988281</ele>
        <time>2007-08-27T11:12:54Z</time>
      </trkpt>
      <trkpt lat="44.79141" lon="6.78794">
        <ele>2326.0471191406</ele>
        <time>2007-08-27T11:13:10Z</time>
      </trkpt>
      <trkpt lat="44.79143" lon="6.78796">
        <ele>2326.5278320312</ele>
        <time>2007-08-27T11:13:13Z</time>
      </trkpt>
      <trkpt lat="44.79145" lon="6.78801">
        <ele>2326.0471191406</ele>
        <time>2007-08-27T11:13:16Z</time>
      </trkpt>
      <trkpt lat="44.7916" lon="6.78813">
        <ele>2328.4504394531</ele>
        <time>2007-08-27T11:13:32Z</time>
      </trkpt>
      <trkpt lat="44.79158" lon="6.78824">
        <ele>2328.9309082031</ele>
        <time>2007-08-27T11:13:36Z</time>
      </trkpt>
      <trkpt lat="44.7916" lon="6.78824">
        <ele>2329.4116210938</ele>
        <time>2007-08-27T11:13:39Z</time>
      </trkpt>
      <trkpt lat="44.79167" lon="6.78831">
        <ele>2330.8537597656</ele>
        <time>2007-08-27T11:13:45Z</time>
      </trkpt>
      <trkpt lat="44.79175" lon="6.78843">
        <ele>2331.8149414062</ele>
        <time>2007-08-27T11:13:58Z</time>
      </trkpt>
      <trkpt lat="44.79188" lon="6.78854">
        <ele>2331.8149414062</ele>
        <time>2007-08-27T11:14:10Z</time>
      </trkpt>
      <trkpt lat="44.79192" lon="6.78856">
        <ele>2331.8149414062</ele>
        <time>2007-08-27T11:14:28Z</time>
      </trkpt>
      <trkpt lat="44.79192" lon="6.78856">
        <ele>2333.2570800781</ele>
        <time>2007-08-27T11:14:47Z</time>
      </trkpt>
      <trkpt lat="44.79197" lon="6.78863">
        <ele>2333.2570800781</ele>
        <time>2007-08-27T11:15:01Z</time>
      </trkpt>
      <trkpt lat="44.79199" lon="6.78867">
        <ele>2334.2185058594</ele>
        <time>2007-08-27T11:15:05Z</time>
      </trkpt>
      <trkpt lat="44.79208" lon="6.78882">
        <ele>2335.1796875</ele>
        <time>2007-08-27T11:15:21Z</time>
      </trkpt>
      <trkpt lat="44.7922" lon="6.78891">
        <ele>2336.1411132812</ele>
        <time>2007-08-27T11:15:34Z</time>
      </trkpt>
      <trkpt lat="44.79231" lon="6.78893">
        <ele>2336.1411132812</ele>
        <time>2007-08-27T11:15:51Z</time>
      </trkpt>
      <trkpt lat="44.79231" lon="6.78893">
        <ele>2335.6604003906</ele>
        <time>2007-08-27T11:17:05Z</time>
      </trkpt>
      <trkpt lat="44.79229" lon="6.78895">
        <ele>2339.0249023438</ele>
        <time>2007-08-27T11:33:40Z</time>
      </trkpt>
      <trkpt lat="44.79229" lon="6.78895">
        <ele>2339.986328125</ele>
        <time>2007-08-27T11:33:56Z</time>
      </trkpt>
      <trkpt lat="44.79229" lon="6.78895">
        <ele>2339.986328125</ele>
        <time>2007-08-27T11:36:49Z</time>
      </trkpt>
      <trkpt lat="44.79231" lon="6.78895">
        <ele>2340.466796875</ele>
        <time>2007-08-27T11:36:54Z</time>
      </trkpt>
      <trkpt lat="44.79235" lon="6.78891">
        <ele>2334.69921875</ele>
        <time>2007-08-27T11:37:03Z</time>
      </trkpt>
      <trkpt lat="44.79235" lon="6.78891">
        <ele>2339.5056152344</ele>
        <time>2007-08-27T11:37:04Z</time>
      </trkpt>
      <trkpt lat="44.79235" lon="6.78891">
        <ele>2345.2734375</ele>
        <time>2007-08-27T11:37:05Z</time>
      </trkpt>
      <trkpt lat="44.79238" lon="6.78891">
        <ele>2342.8701171875</ele>
        <time>2007-08-27T11:37:06Z</time>
      </trkpt>
      <trkpt lat="44.7924" lon="6.78889">
        <ele>2341.4282226562</ele>
        <time>2007-08-27T11:37:08Z</time>
      </trkpt>
      <trkpt lat="44.79255" lon="6.78882">
        <ele>2341.9089355469</ele>
        <time>2007-08-27T11:37:21Z</time>
      </trkpt>
      <trkpt lat="44.79268" lon="6.7888">
        <ele>2341.9089355469</ele>
        <time>2007-08-27T11:37:33Z</time>
      </trkpt>
      <trkpt lat="44.79285" lon="6.78871">
        <ele>2342.3896484375</ele>
        <time>2007-08-27T11:37:48Z</time>
      </trkpt>
      <trkpt lat="44.79308" lon="6.78865">
        <ele>2342.8701171875</ele>
        <time>2007-08-27T11:38:05Z</time>
      </trkpt>
      <trkpt lat="44.79336" lon="6.78867">
        <ele>2341.4282226562</ele>
        <time>2007-08-27T11:38:14Z</time>
      </trkpt>
      <trkpt lat="44.79338" lon="6.78874">
        <ele>2342.3896484375</ele>
        <time>2007-08-27T11:38:23Z</time>
      </trkpt>
      <trkpt lat="44.79356" lon="6.78891">
        <ele>2344.7927246094</ele>
        <time>2007-08-27T11:38:44Z</time>
      </trkpt>
      <trkpt lat="44.79362" lon="6.78901">
        <ele>2347.6767578125</ele>
        <time>2007-08-27T11:38:59Z</time>
      </trkpt>
      <trkpt lat="44.79379" lon="6.78927">
        <ele>2350.0803222656</ele>
        <time>2007-08-27T11:39:24Z</time>
      </trkpt>
      <trkpt lat="44.79383" lon="6.78931">
        <ele>2350.5607910156</ele>
        <time>2007-08-27T11:39:29Z</time>
      </trkpt>
      <trkpt lat="44.79396" lon="6.78953">
        <ele>2352.4833984375</ele>
        <time>2007-08-27T11:39:49Z</time>
      </trkpt>
      <trkpt lat="44.79414" lon="6.78981">
        <ele>2354.4060058594</ele>
        <time>2007-08-27T11:40:06Z</time>
      </trkpt>
      <trkpt lat="44.79437" lon="6.79013">
        <ele>2353.9255371094</ele>
        <time>2007-08-27T11:40:23Z</time>
      </trkpt>
      <trkpt lat="44.79465" lon="6.79043">
        <ele>2353.4448242188</ele>
        <time>2007-08-27T11:40:35Z</time>
      </trkpt>
      <trkpt lat="44.79474" lon="6.79056">
        <ele>2354.4060058594</ele>
        <time>2007-08-27T11:40:40Z</time>
      </trkpt>
      <trkpt lat="44.79484" lon="6.79062">
        <ele>2354.88671875</ele>
        <time>2007-08-27T11:40:45Z</time>
      </trkpt>
      <trkpt lat="44.79497" lon="6.79069">
        <ele>2354.4060058594</ele>
        <time>2007-08-27T11:40:57Z</time>
      </trkpt>
      <trkpt lat="44.79523" lon="6.79075">
        <ele>2352.0026855469</ele>
        <time>2007-08-27T11:41:09Z</time>
      </trkpt>
      <trkpt lat="44.7954" lon="6.79088">
        <ele>2348.6381835938</ele>
        <time>2007-08-27T11:41:15Z</time>
      </trkpt>
      <trkpt lat="44.79557" lon="6.79097">
        <ele>2345.7541503906</ele>
        <time>2007-08-27T11:41:20Z</time>
      </trkpt>
      <trkpt lat="44.79559" lon="6.79099">
        <ele>2345.7541503906</ele>
        <time>2007-08-27T11:41:21Z</time>
      </trkpt>
      <trkpt lat="44.79579" lon="6.79107">
        <ele>2343.3508300781</ele>
        <time>2007-08-27T11:41:27Z</time>
      </trkpt>
      <trkpt lat="44.79585" lon="6.7911">
        <ele>2343.3508300781</ele>
        <time>2007-08-27T11:41:29Z</time>
      </trkpt>
      <trkpt lat="44.79596" lon="6.79116">
        <ele>2343.3508300781</ele>
        <time>2007-08-27T11:41:32Z</time>
      </trkpt>
      <trkpt lat="44.79609" lon="6.79129">
        <ele>2341.4282226562</ele>
        <time>2007-08-27T11:41:36Z</time>
      </trkpt>
      <trkpt lat="44.79615" lon="6.79144">
        <ele>2341.4282226562</ele>
        <time>2007-08-27T11:41:41Z</time>
      </trkpt>
      <trkpt lat="44.79624" lon="6.79146">
        <ele>2340.466796875</ele>
        <time>2007-08-27T11:41:45Z</time>
      </trkpt>
      <trkpt lat="44.7963" lon="6.79157">
        <ele>2338.5444335938</ele>
        <time>2007-08-27T11:41:50Z</time>
      </trkpt>
      <trkpt lat="44.79645" lon="6.7918">
        <ele>2339.986328125</ele>
        <time>2007-08-27T11:42:03Z</time>
      </trkpt>
      <trkpt lat="44.7966" lon="6.7921">
        <ele>2342.3896484375</ele>
        <time>2007-08-27T11:42:18Z</time>
      </trkpt>
      <trkpt lat="44.79671" lon="6.79225">
        <ele>2343.3508300781</ele>
        <time>2007-08-27T11:42:30Z</time>
      </trkpt>
      <trkpt lat="44.79673" lon="6.79232">
        <ele>2344.7927246094</ele>
        <time>2007-08-27T11:42:37Z</time>
      </trkpt>
      <trkpt lat="44.79675" lon="6.79236">
        <ele>2344.7927246094</ele>
        <time>2007-08-27T11:42:40Z</time>
      </trkpt>
      <trkpt lat="44.79682" lon="6.79253">
        <ele>2347.1960449219</ele>
        <time>2007-08-27T11:42:55Z</time>
      </trkpt>
      <trkpt lat="44.79682" lon="6.79255">
        <ele>2347.6767578125</ele>
        <time>2007-08-27T11:42:58Z</time>
      </trkpt>
      <trkpt lat="44.79688" lon="6.79286">
        <ele>2349.1188964844</ele>
        <time>2007-08-27T11:43:18Z</time>
      </trkpt>
      <trkpt lat="44.79695" lon="6.79301">
        <ele>2352.4833984375</ele>
        <time>2007-08-27T11:43:32Z</time>
      </trkpt>
      <trkpt lat="44.79697" lon="6.79298">
        <ele>2352.9641113281</ele>
        <time>2007-08-27T11:44:09Z</time>
      </trkpt>
      <trkpt lat="44.79699" lon="6.79301">
        <ele>2352.4833984375</ele>
        <time>2007-08-27T11:44:30Z</time>
      </trkpt>
      <trkpt lat="44.79699" lon="6.79303">
        <ele>2352.9641113281</ele>
        <time>2007-08-27T11:44:33Z</time>
      </trkpt>
      <trkpt lat="44.79705" lon="6.79305">
        <ele>2352.4833984375</ele>
        <time>2007-08-27T11:44:37Z</time>
      </trkpt>
      <trkpt lat="44.79725" lon="6.79305">
        <ele>2350.5607910156</ele>
        <time>2007-08-27T11:44:42Z</time>
      </trkpt>
      <trkpt lat="44.79748" lon="6.79294">
        <ele>2351.0415039062</ele>
        <time>2007-08-27T11:44:50Z</time>
      </trkpt>
      <trkpt lat="44.79768" lon="6.79283">
        <ele>2348.1574707031</ele>
        <time>2007-08-27T11:44:56Z</time>
      </trkpt>
      <trkpt lat="44.79787" lon="6.79277">
        <ele>2348.6381835938</ele>
        <time>2007-08-27T11:45:01Z</time>
      </trkpt>
      <trkpt lat="44.7981" lon="6.79294">
        <ele>2348.1574707031</ele>
        <time>2007-08-27T11:45:12Z</time>
      </trkpt>
      <trkpt lat="44.79813" lon="6.79296">
        <ele>2347.6767578125</ele>
        <time>2007-08-27T11:45:13Z</time>
      </trkpt>
      <trkpt lat="44.79819" lon="6.79303">
        <ele>2348.1574707031</ele>
        <time>2007-08-27T11:45:18Z</time>
      </trkpt>
      <trkpt lat="44.79843" lon="6.79316">
        <ele>2346.7153320312</ele>
        <time>2007-08-27T11:45:31Z</time>
      </trkpt>
      <trkpt lat="44.79845" lon="6.79316">
        <ele>2348.1574707031</ele>
        <time>2007-08-27T11:45:35Z</time>
      </trkpt>
      <trkpt lat="44.79873" lon="6.79335">
        <ele>2348.1574707031</ele>
        <time>2007-08-27T11:45:50Z</time>
      </trkpt>
      <trkpt lat="44.79886" lon="6.79337">
        <ele>2347.6767578125</ele>
        <time>2007-08-27T11:45:54Z</time>
      </trkpt>
      <trkpt lat="44.79911" lon="6.79369">
        <ele>2348.1574707031</ele>
        <time>2007-08-27T11:46:07Z</time>
      </trkpt>
      <trkpt lat="44.79916" lon="6.79376">
        <ele>2349.599609375</ele>
        <time>2007-08-27T11:46:10Z</time>
      </trkpt>
      <trkpt lat="44.79935" lon="6.79393">
        <ele>2349.1188964844</ele>
        <time>2007-08-27T11:46:23Z</time>
      </trkpt>
      <trkpt lat="44.79954" lon="6.79401">
        <ele>2349.1188964844</ele>
        <time>2007-08-27T11:46:32Z</time>
      </trkpt>
      <trkpt lat="44.79969" lon="6.79412">
        <ele>2347.1960449219</ele>
        <time>2007-08-27T11:46:39Z</time>
      </trkpt>
      <trkpt lat="44.80001" lon="6.79419">
        <ele>2345.7541503906</ele>
        <time>2007-08-27T11:46:52Z</time>
      </trkpt>
      <trkpt lat="44.80006" lon="6.79419">
        <ele>2345.7541503906</ele>
        <time>2007-08-27T11:47:01Z</time>
      </trkpt>
      <trkpt lat="44.80006" lon="6.79416">
        <ele>2344.7927246094</ele>
        <time>2007-08-27T11:47:05Z</time>
      </trkpt>
      <trkpt lat="44.8001" lon="6.79412">
        <ele>2344.3120117188</ele>
        <time>2007-08-27T11:47:09Z</time>
      </trkpt>
      <trkpt lat="44.80012" lon="6.79412">
        <ele>2343.8315429688</ele>
        <time>2007-08-27T11:47:11Z</time>
      </trkpt>
      <trkpt lat="44.80019" lon="6.79419">
        <ele>2343.8315429688</ele>
        <time>2007-08-27T11:47:18Z</time>
      </trkpt>
      <trkpt lat="44.80023" lon="6.79421">
        <ele>2344.3120117188</ele>
        <time>2007-08-27T11:47:21Z</time>
      </trkpt>
      <trkpt lat="44.80027" lon="6.79431">
        <ele>2344.7927246094</ele>
        <time>2007-08-27T11:47:26Z</time>
      </trkpt>
      <trkpt lat="44.8004" lon="6.7944">
        <ele>2345.7541503906</ele>
        <time>2007-08-27T11:47:34Z</time>
      </trkpt>
      <trkpt lat="44.80057" lon="6.79446">
        <ele>2344.7927246094</ele>
        <time>2007-08-27T11:47:42Z</time>
      </trkpt>
      <trkpt lat="44.80089" lon="6.79451">
        <ele>2343.3508300781</ele>
        <time>2007-08-27T11:47:56Z</time>
      </trkpt>
      <trkpt lat="44.80111" lon="6.79464">
        <ele>2340.9475097656</ele>
        <time>2007-08-27T11:48:05Z</time>
      </trkpt>
      <trkpt lat="44.80113" lon="6.79466">
        <ele>2340.9475097656</ele>
        <time>2007-08-27T11:48:06Z</time>
      </trkpt>
      <trkpt lat="44.80137" lon="6.79481">
        <ele>2340.466796875</ele>
        <time>2007-08-27T11:48:17Z</time>
      </trkpt>
      <trkpt lat="44.80141" lon="6.79485">
        <ele>2338.5444335938</ele>
        <time>2007-08-27T11:48:29Z</time>
      </trkpt>
      <trkpt lat="44.80141" lon="6.795">
        <ele>2338.0637207031</ele>
        <time>2007-08-27T11:48:44Z</time>
      </trkpt>
      <trkpt lat="44.80139" lon="6.79504">
        <ele>2338.5444335938</ele>
        <time>2007-08-27T11:48:51Z</time>
      </trkpt>
      <trkpt lat="44.80122" lon="6.79541">
        <ele>2338.5444335938</ele>
        <time>2007-08-27T11:49:05Z</time>
      </trkpt>
      <trkpt lat="44.80117" lon="6.79558">
        <ele>2339.986328125</ele>
        <time>2007-08-27T11:49:11Z</time>
      </trkpt>
      <trkpt lat="44.80115" lon="6.79595">
        <ele>2340.9475097656</ele>
        <time>2007-08-27T11:49:25Z</time>
      </trkpt>
      <trkpt lat="44.80115" lon="6.79597">
        <ele>2340.466796875</ele>
        <time>2007-08-27T11:49:39Z</time>
      </trkpt>
      <trkpt lat="44.80115" lon="6.79601">
        <ele>2340.9475097656</ele>
        <time>2007-08-27T11:49:48Z</time>
      </trkpt>
      <trkpt lat="44.80124" lon="6.79586">
        <ele>2342.8701171875</ele>
        <time>2007-08-27T11:50:07Z</time>
      </trkpt>
      <trkpt lat="44.80126" lon="6.79588">
        <ele>2343.8315429688</ele>
        <time>2007-08-27T11:50:09Z</time>
      </trkpt>
      <trkpt lat="44.8013" lon="6.79612">
        <ele>2347.1960449219</ele>
        <time>2007-08-27T11:50:28Z</time>
      </trkpt>
      <trkpt lat="44.8013" lon="6.79612">
        <ele>2347.1960449219</ele>
        <time>2007-08-27T11:50:29Z</time>
      </trkpt>
      <trkpt lat="44.80134" lon="6.79605">
        <ele>2348.6381835938</ele>
        <time>2007-08-27T11:50:41Z</time>
      </trkpt>
      <trkpt lat="44.80143" lon="6.79586">
        <ele>2350.5607910156</ele>
        <time>2007-08-27T11:50:59Z</time>
      </trkpt>
      <trkpt lat="44.80147" lon="6.79577">
        <ele>2352.9641113281</ele>
        <time>2007-08-27T11:51:07Z</time>
      </trkpt>
      <trkpt lat="44.80152" lon="6.79584">
        <ele>2354.88671875</ele>
        <time>2007-08-27T11:51:18Z</time>
      </trkpt>
      <trkpt lat="44.8016" lon="6.79592">
        <ele>2357.2900390625</ele>
        <time>2007-08-27T11:51:38Z</time>
      </trkpt>
      <trkpt lat="44.80171" lon="6.79575">
        <ele>2360.6545410156</ele>
        <time>2007-08-27T11:51:57Z</time>
      </trkpt>
      <trkpt lat="44.80177" lon="6.79577">
        <ele>2363.5383300781</ele>
        <time>2007-08-27T11:52:14Z</time>
      </trkpt>
      <trkpt lat="44.80177" lon="6.79582">
        <ele>2363.5383300781</ele>
        <time>2007-08-27T11:52:17Z</time>
      </trkpt>
      <trkpt lat="44.80182" lon="6.7959">
        <ele>2365.9418945312</ele>
        <time>2007-08-27T11:52:33Z</time>
      </trkpt>
      <trkpt lat="44.80192" lon="6.79588">
        <ele>2366.9033203125</ele>
        <time>2007-08-27T11:52:47Z</time>
      </trkpt>
      <trkpt lat="44.80201" lon="6.79607">
        <ele>2370.2678222656</ele>
        <time>2007-08-27T11:53:05Z</time>
      </trkpt>
      <trkpt lat="44.80205" lon="6.7962">
        <ele>2373.1518554688</ele>
        <time>2007-08-27T11:53:19Z</time>
      </trkpt>
      <trkpt lat="44.80207" lon="6.79635">
        <ele>2375.5549316406</ele>
        <time>2007-08-27T11:53:34Z</time>
      </trkpt>
      <trkpt lat="44.8021" lon="6.7964">
        <ele>2376.5163574219</ele>
        <time>2007-08-27T11:53:39Z</time>
      </trkpt>
      <trkpt lat="44.80212" lon="6.79646">
        <ele>2377.4775390625</ele>
        <time>2007-08-27T11:53:44Z</time>
      </trkpt>
      <trkpt lat="44.80212" lon="6.79667">
        <ele>2379.880859375</ele>
        <time>2007-08-27T11:54:05Z</time>
      </trkpt>
      <trkpt lat="44.80214" lon="6.79685">
        <ele>2383.2456054688</ele>
        <time>2007-08-27T11:54:22Z</time>
      </trkpt>
      <trkpt lat="44.80218" lon="6.79706">
        <ele>2385.6489257812</ele>
        <time>2007-08-27T11:54:42Z</time>
      </trkpt>
      <trkpt lat="44.8022" lon="6.79708">
        <ele>2386.6101074219</ele>
        <time>2007-08-27T11:54:47Z</time>
      </trkpt>
      <trkpt lat="44.80227" lon="6.79715">
        <ele>2388.5329589844</ele>
        <time>2007-08-27T11:54:56Z</time>
      </trkpt>
      <trkpt lat="44.8024" lon="6.79719">
        <ele>2390.4553222656</ele>
        <time>2007-08-27T11:55:14Z</time>
      </trkpt>
      <trkpt lat="44.80253" lon="6.79721">
        <ele>2393.8200683594</ele>
        <time>2007-08-27T11:55:34Z</time>
      </trkpt>
      <trkpt lat="44.80263" lon="6.79725">
        <ele>2395.7426757812</ele>
        <time>2007-08-27T11:55:52Z</time>
      </trkpt>
      <trkpt lat="44.80272" lon="6.79725">
        <ele>2399.107421875</ele>
        <time>2007-08-27T11:56:05Z</time>
      </trkpt>
      <trkpt lat="44.80287" lon="6.79725">
        <ele>2401.0300292969</ele>
        <time>2007-08-27T11:56:25Z</time>
      </trkpt>
      <trkpt lat="44.80289" lon="6.79725">
        <ele>2401.9912109375</ele>
        <time>2007-08-27T11:56:27Z</time>
      </trkpt>
      <trkpt lat="44.80298" lon="6.79736">
        <ele>2405.3559570312</ele>
        <time>2007-08-27T11:56:44Z</time>
      </trkpt>
      <trkpt lat="44.80308" lon="6.79747">
        <ele>2408.2397460938</ele>
        <time>2007-08-27T11:57:02Z</time>
      </trkpt>
      <trkpt lat="44.80317" lon="6.79751">
        <ele>2412.0852050781</ele>
        <time>2007-08-27T11:57:18Z</time>
      </trkpt>
      <trkpt lat="44.80319" lon="6.79751">
        <ele>2413.0466308594</ele>
        <time>2007-08-27T11:57:22Z</time>
      </trkpt>
      <trkpt lat="44.80325" lon="6.79751">
        <ele>2414.4885253906</ele>
        <time>2007-08-27T11:57:38Z</time>
      </trkpt>
      <trkpt lat="44.80336" lon="6.79758">
        <ele>2417.8530273438</ele>
        <time>2007-08-27T11:57:56Z</time>
      </trkpt>
      <trkpt lat="44.80345" lon="6.79764">
        <ele>2419.7756347656</ele>
        <time>2007-08-27T11:58:12Z</time>
      </trkpt>
      <trkpt lat="44.80358" lon="6.7977">
        <ele>2423.1403808594</ele>
        <time>2007-08-27T11:58:30Z</time>
      </trkpt>
      <trkpt lat="44.80364" lon="6.79773">
        <ele>2423.6208496094</ele>
        <time>2007-08-27T11:58:38Z</time>
      </trkpt>
      <trkpt lat="44.80375" lon="6.79777">
        <ele>2426.0241699219</ele>
        <time>2007-08-27T11:58:52Z</time>
      </trkpt>
      <trkpt lat="44.80388" lon="6.79779">
        <ele>2428.908203125</ele>
        <time>2007-08-27T11:59:11Z</time>
      </trkpt>
      <trkpt lat="44.80396" lon="6.79779">
        <ele>2431.7922363281</ele>
        <time>2007-08-27T11:59:30Z</time>
      </trkpt>
      <trkpt lat="44.80405" lon="6.79775">
        <ele>2434.6762695312</ele>
        <time>2007-08-27T11:59:45Z</time>
      </trkpt>
      <trkpt lat="44.80416" lon="6.79775">
        <ele>2438.0407714844</ele>
        <time>2007-08-27T12:00:03Z</time>
      </trkpt>
      <trkpt lat="44.80424" lon="6.7977">
        <ele>2439.9633789062</ele>
        <time>2007-08-27T12:00:21Z</time>
      </trkpt>
      <trkpt lat="44.80433" lon="6.7977">
        <ele>2440.9245605469</ele>
        <time>2007-08-27T12:00:38Z</time>
      </trkpt>
      <trkpt lat="44.80437" lon="6.7977">
        <ele>2442.3666992188</ele>
        <time>2007-08-27T12:00:56Z</time>
      </trkpt>
      <trkpt lat="44.80448" lon="6.79768">
        <ele>2445.7314453125</ele>
        <time>2007-08-27T12:01:14Z</time>
      </trkpt>
      <trkpt lat="44.80458" lon="6.79766">
        <ele>2447.1733398438</ele>
        <time>2007-08-27T12:01:30Z</time>
      </trkpt>
      <trkpt lat="44.80469" lon="6.79766">
        <ele>2449.0959472656</ele>
        <time>2007-08-27T12:01:47Z</time>
      </trkpt>
      <trkpt lat="44.8048" lon="6.79768">
        <ele>2451.9797363281</ele>
        <time>2007-08-27T12:02:06Z</time>
      </trkpt>
      <trkpt lat="44.80489" lon="6.7977">
        <ele>2454.8637695312</ele>
        <time>2007-08-27T12:02:19Z</time>
      </trkpt>
      <trkpt lat="44.80499" lon="6.79773">
        <ele>2456.3056640625</ele>
        <time>2007-08-27T12:02:35Z</time>
      </trkpt>
      <trkpt lat="44.80512" lon="6.79773">
        <ele>2458.708984375</ele>
        <time>2007-08-27T12:02:53Z</time>
      </trkpt>
      <trkpt lat="44.80527" lon="6.7977">
        <ele>2461.1125488281</ele>
        <time>2007-08-27T12:03:13Z</time>
      </trkpt>
      <trkpt lat="44.80536" lon="6.79775">
        <ele>2463.9963378906</ele>
        <time>2007-08-27T12:03:28Z</time>
      </trkpt>
      <trkpt lat="44.80546" lon="6.79783">
        <ele>2465.9189453125</ele>
        <time>2007-08-27T12:03:45Z</time>
      </trkpt>
      <trkpt lat="44.80557" lon="6.79788">
        <ele>2468.322265625</ele>
        <time>2007-08-27T12:04:02Z</time>
      </trkpt>
      <trkpt lat="44.80568" lon="6.79798">
        <ele>2471.6867675781</ele>
        <time>2007-08-27T12:04:23Z</time>
      </trkpt>
      <trkpt lat="44.80574" lon="6.79807">
        <ele>2473.609375</ele>
        <time>2007-08-27T12:04:42Z</time>
      </trkpt>
      <trkpt lat="44.80585" lon="6.79813">
        <ele>2476.9743652344</ele>
        <time>2007-08-27T12:05:02Z</time>
      </trkpt>
      <trkpt lat="44.80592" lon="6.79818">
        <ele>2479.8581542969</ele>
        <time>2007-08-27T12:05:13Z</time>
      </trkpt>
      <trkpt lat="44.80598" lon="6.79826">
        <ele>2483.22265625</ele>
        <time>2007-08-27T12:05:29Z</time>
      </trkpt>
      <trkpt lat="44.80598" lon="6.79824">
        <ele>2483.7033691406</ele>
        <time>2007-08-27T12:05:32Z</time>
      </trkpt>
      <trkpt lat="44.80604" lon="6.79816">
        <ele>2486.1066894531</ele>
        <time>2007-08-27T12:05:50Z</time>
      </trkpt>
      <trkpt lat="44.80613" lon="6.79824">
        <ele>2489.9519042969</ele>
        <time>2007-08-27T12:06:05Z</time>
      </trkpt>
      <trkpt lat="44.80624" lon="6.79831">
        <ele>2492.8359375</ele>
        <time>2007-08-27T12:06:26Z</time>
      </trkpt>
      <trkpt lat="44.80634" lon="6.79835">
        <ele>2495.2392578125</ele>
        <time>2007-08-27T12:06:42Z</time>
      </trkpt>
      <trkpt lat="44.80647" lon="6.79843">
        <ele>2497.642578125</ele>
        <time>2007-08-27T12:06:58Z</time>
      </trkpt>
      <trkpt lat="44.80658" lon="6.7985">
        <ele>2499.5651855469</ele>
        <time>2007-08-27T12:07:17Z</time>
      </trkpt>
      <trkpt lat="44.80669" lon="6.79854">
        <ele>2503.4104003906</ele>
        <time>2007-08-27T12:07:32Z</time>
      </trkpt>
      <trkpt lat="44.80677" lon="6.79869">
        <ele>2505.3330078125</ele>
        <time>2007-08-27T12:07:48Z</time>
      </trkpt>
      <trkpt lat="44.80692" lon="6.79882">
        <ele>2508.6977539062</ele>
        <time>2007-08-27T12:08:09Z</time>
      </trkpt>
      <trkpt lat="44.80707" lon="6.79897">
        <ele>2511.5817871094</ele>
        <time>2007-08-27T12:08:30Z</time>
      </trkpt>
      <trkpt lat="44.80718" lon="6.79908">
        <ele>2512.54296875</ele>
        <time>2007-08-27T12:08:42Z</time>
      </trkpt>
      <trkpt lat="44.80735" lon="6.79923">
        <ele>2514.9462890625</ele>
        <time>2007-08-27T12:09:00Z</time>
      </trkpt>
      <trkpt lat="44.8075" lon="6.79936">
        <ele>2517.830078125</ele>
        <time>2007-08-27T12:09:17Z</time>
      </trkpt>
      <trkpt lat="44.80767" lon="6.79953">
        <ele>2521.1945800781</ele>
        <time>2007-08-27T12:09:40Z</time>
      </trkpt>
      <trkpt lat="44.80778" lon="6.79959">
        <ele>2524.0788574219</ele>
        <time>2007-08-27T12:09:55Z</time>
      </trkpt>
      <trkpt lat="44.80787" lon="6.79968">
        <ele>2525.5207519531</ele>
        <time>2007-08-27T12:10:09Z</time>
      </trkpt>
      <trkpt lat="44.808" lon="6.79979">
        <ele>2526.4821777344</ele>
        <time>2007-08-27T12:10:28Z</time>
      </trkpt>
      <trkpt lat="44.80808" lon="6.79985">
        <ele>2526.962890625</ele>
        <time>2007-08-27T12:10:41Z</time>
      </trkpt>
      <trkpt lat="44.80825" lon="6.79996">
        <ele>2529.8466796875</ele>
        <time>2007-08-27T12:11:04Z</time>
      </trkpt>
      <trkpt lat="44.8083" lon="6.8">
        <ele>2531.2885742188</ele>
        <time>2007-08-27T12:11:11Z</time>
      </trkpt>
      <trkpt lat="44.80845" lon="6.80009">
        <ele>2534.1726074219</ele>
        <time>2007-08-27T12:11:28Z</time>
      </trkpt>
      <trkpt lat="44.80855" lon="6.80017">
        <ele>2536.0952148438</ele>
        <time>2007-08-27T12:11:43Z</time>
      </trkpt>
      <trkpt lat="44.8087" lon="6.80024">
        <ele>2538.0178222656</ele>
        <time>2007-08-27T12:12:02Z</time>
      </trkpt>
      <trkpt lat="44.80883" lon="6.8003">
        <ele>2538.9790039062</ele>
        <time>2007-08-27T12:12:19Z</time>
      </trkpt>
      <trkpt lat="44.80903" lon="6.80034">
        <ele>2539.4597167969</ele>
        <time>2007-08-27T12:12:36Z</time>
      </trkpt>
      <trkpt lat="44.80924" lon="6.80047">
        <ele>2540.4211425781</ele>
        <time>2007-08-27T12:12:50Z</time>
      </trkpt>
      <trkpt lat="44.80946" lon="6.8006">
        <ele>2541.86328125</ele>
        <time>2007-08-27T12:13:05Z</time>
      </trkpt>
      <trkpt lat="44.80963" lon="6.80067">
        <ele>2545.2277832031</ele>
        <time>2007-08-27T12:13:21Z</time>
      </trkpt>
      <trkpt lat="44.80965" lon="6.80069">
        <ele>2545.2277832031</ele>
        <time>2007-08-27T12:13:22Z</time>
      </trkpt>
      <trkpt lat="44.80978" lon="6.80075">
        <ele>2546.1892089844</ele>
        <time>2007-08-27T12:13:39Z</time>
      </trkpt>
      <trkpt lat="44.80989" lon="6.80082">
        <ele>2548.1115722656</ele>
        <time>2007-08-27T12:13:53Z</time>
      </trkpt>
      <trkpt lat="44.80999" lon="6.80088">
        <ele>2549.0729980469</ele>
        <time>2007-08-27T12:14:06Z</time>
      </trkpt>
      <trkpt lat="44.81001" lon="6.80088">
        <ele>2549.0729980469</ele>
        <time>2007-08-27T12:14:08Z</time>
      </trkpt>
      <trkpt lat="44.81025" lon="6.80094">
        <ele>2550.9956054688</ele>
        <time>2007-08-27T12:14:31Z</time>
      </trkpt>
      <trkpt lat="44.81027" lon="6.80099">
        <ele>2551.4763183594</ele>
        <time>2007-08-27T12:14:34Z</time>
      </trkpt>
      <trkpt lat="44.81046" lon="6.80116">
        <ele>2552.9182128906</ele>
        <time>2007-08-27T12:14:53Z</time>
      </trkpt>
      <trkpt lat="44.81079" lon="6.80135">
        <ele>2553.8796386719</ele>
        <time>2007-08-27T12:15:19Z</time>
      </trkpt>
      <trkpt lat="44.81096" lon="6.8015">
        <ele>2556.2829589844</ele>
        <time>2007-08-27T12:15:36Z</time>
      </trkpt>
      <trkpt lat="44.81098" lon="6.8015">
        <ele>2556.2829589844</ele>
        <time>2007-08-27T12:15:53Z</time>
      </trkpt>
      <trkpt lat="44.81098" lon="6.8015">
        <ele>2550.9956054688</ele>
        <time>2007-08-27T12:15:55Z</time>
      </trkpt>
      <trkpt lat="44.81098" lon="6.8015">
        <ele>2554.8408203125</ele>
        <time>2007-08-27T12:15:56Z</time>
      </trkpt>
      <trkpt lat="44.81098" lon="6.8015">
        <ele>2556.2829589844</ele>
        <time>2007-08-27T12:15:58Z</time>
      </trkpt>
      <trkpt lat="44.81098" lon="6.8015">
        <ele>2561.5703125</ele>
        <time>2007-08-27T12:15:59Z</time>
      </trkpt>
      <trkpt lat="44.81098" lon="6.8015">
        <ele>2556.763671875</ele>
        <time>2007-08-27T12:16:00Z</time>
      </trkpt>
      <trkpt lat="44.81098" lon="6.8015">
        <ele>2556.2829589844</ele>
        <time>2007-08-27T12:16:02Z</time>
      </trkpt>
      <trkpt lat="44.811" lon="6.80152">
        <ele>2556.2829589844</ele>
        <time>2007-08-27T12:16:42Z</time>
      </trkpt>
      <trkpt lat="44.81111" lon="6.80152">
        <ele>2558.6862792969</ele>
        <time>2007-08-27T12:16:57Z</time>
      </trkpt>
      <trkpt lat="44.81124" lon="6.80155">
        <ele>2559.6474609375</ele>
        <time>2007-08-27T12:17:14Z</time>
      </trkpt>
      <trkpt lat="44.81132" lon="6.80159">
        <ele>2561.0895996094</ele>
        <time>2007-08-27T12:17:21Z</time>
      </trkpt>
      <trkpt lat="44.81137" lon="6.80161">
        <ele>2562.5314941406</ele>
        <time>2007-08-27T12:17:28Z</time>
      </trkpt>
      <trkpt lat="44.81141" lon="6.80163">
        <ele>2562.5314941406</ele>
        <time>2007-08-27T12:17:33Z</time>
      </trkpt>
      <trkpt lat="44.81158" lon="6.80165">
        <ele>2564.9348144531</ele>
        <time>2007-08-27T12:17:51Z</time>
      </trkpt>
      <trkpt lat="44.81173" lon="6.80163">
        <ele>2566.857421875</ele>
        <time>2007-08-27T12:18:10Z</time>
      </trkpt>
      <trkpt lat="44.81188" lon="6.80165">
        <ele>2569.2607421875</ele>
        <time>2007-08-27T12:18:26Z</time>
      </trkpt>
      <trkpt lat="44.81194" lon="6.80163">
        <ele>2569.7412109375</ele>
        <time>2007-08-27T12:18:34Z</time>
      </trkpt>
      <trkpt lat="44.81216" lon="6.80161">
        <ele>2572.1447753906</ele>
        <time>2007-08-27T12:18:54Z</time>
      </trkpt>
      <trkpt lat="44.81218" lon="6.80161">
        <ele>2574.5480957031</ele>
        <time>2007-08-27T12:18:57Z</time>
      </trkpt>
      <trkpt lat="44.81227" lon="6.80157">
        <ele>2576.470703125</ele>
        <time>2007-08-27T12:19:09Z</time>
      </trkpt>
      <trkpt lat="44.81231" lon="6.80157">
        <ele>2576.470703125</ele>
        <time>2007-08-27T12:19:14Z</time>
      </trkpt>
      <trkpt lat="44.81244" lon="6.80155">
        <ele>2578.3933105469</ele>
        <time>2007-08-27T12:19:28Z</time>
      </trkpt>
      <trkpt lat="44.81259" lon="6.80157">
        <ele>2579.8352050781</ele>
        <time>2007-08-27T12:19:46Z</time>
      </trkpt>
      <trkpt lat="44.81276" lon="6.80161">
        <ele>2582.7189941406</ele>
        <time>2007-08-27T12:20:09Z</time>
      </trkpt>
      <trkpt lat="44.81293" lon="6.80174">
        <ele>2585.1223144531</ele>
        <time>2007-08-27T12:20:30Z</time>
      </trkpt>
      <trkpt lat="44.81297" lon="6.80182">
        <ele>2588.0065917969</ele>
        <time>2007-08-27T12:20:40Z</time>
      </trkpt>
      <trkpt lat="44.813" lon="6.80185">
        <ele>2590.4096679688</ele>
        <time>2007-08-27T12:20:44Z</time>
      </trkpt>
      <trkpt lat="44.8131" lon="6.80193">
        <ele>2590.8903808594</ele>
        <time>2007-08-27T12:20:58Z</time>
      </trkpt>
      <trkpt lat="44.8131" lon="6.80193">
        <ele>2590.8903808594</ele>
        <time>2007-08-27T12:20:59Z</time>
      </trkpt>
      <trkpt lat="44.81323" lon="6.80197">
        <ele>2593.7744140625</ele>
        <time>2007-08-27T12:21:18Z</time>
      </trkpt>
      <trkpt lat="44.81332" lon="6.8021">
        <ele>2596.177734375</ele>
        <time>2007-08-27T12:21:36Z</time>
      </trkpt>
      <trkpt lat="44.81343" lon="6.80221">
        <ele>2599.0615234375</ele>
        <time>2007-08-27T12:21:55Z</time>
      </trkpt>
      <trkpt lat="44.81353" lon="6.80232">
        <ele>2601.9453125</ele>
        <time>2007-08-27T12:22:15Z</time>
      </trkpt>
      <trkpt lat="44.81364" lon="6.80243">
        <ele>2605.3100585938</ele>
        <time>2007-08-27T12:22:31Z</time>
      </trkpt>
      <trkpt lat="44.81375" lon="6.80253">
        <ele>2606.271484375</ele>
        <time>2007-08-27T12:22:49Z</time>
      </trkpt>
      <trkpt lat="44.81383" lon="6.80264">
        <ele>2608.6748046875</ele>
        <time>2007-08-27T12:23:06Z</time>
      </trkpt>
      <trkpt lat="44.81394" lon="6.8027">
        <ele>2612.0395507812</ele>
        <time>2007-08-27T12:23:24Z</time>
      </trkpt>
      <trkpt lat="44.81407" lon="6.80277">
        <ele>2614.4428710938</ele>
        <time>2007-08-27T12:23:41Z</time>
      </trkpt>
      <trkpt lat="44.81411" lon="6.80277">
        <ele>2614.9233398438</ele>
        <time>2007-08-27T12:23:47Z</time>
      </trkpt>
      <trkpt lat="44.8142" lon="6.80279">
        <ele>2615.884765625</ele>
        <time>2007-08-27T12:23:56Z</time>
      </trkpt>
      <trkpt lat="44.81437" lon="6.80311">
        <ele>2616.3657226562</ele>
        <time>2007-08-27T12:24:18Z</time>
      </trkpt>
      <trkpt lat="44.81448" lon="6.80333">
        <ele>2618.2880859375</ele>
        <time>2007-08-27T12:24:34Z</time>
      </trkpt>
      <trkpt lat="44.81454" lon="6.80352">
        <ele>2619.2495117188</ele>
        <time>2007-08-27T12:24:45Z</time>
      </trkpt>
      <trkpt lat="44.81478" lon="6.80378">
        <ele>2619.7299804688</ele>
        <time>2007-08-27T12:25:01Z</time>
      </trkpt>
      <trkpt lat="44.81497" lon="6.80393">
        <ele>2621.171875</ele>
        <time>2007-08-27T12:25:16Z</time>
      </trkpt>
      <trkpt lat="44.81519" lon="6.80406">
        <ele>2624.0561523438</ele>
        <time>2007-08-27T12:25:31Z</time>
      </trkpt>
      <trkpt lat="44.81529" lon="6.80416">
        <ele>2624.5366210938</ele>
        <time>2007-08-27T12:25:37Z</time>
      </trkpt>
      <trkpt lat="44.81531" lon="6.80418">
        <ele>2625.0170898438</ele>
        <time>2007-08-27T12:25:39Z</time>
      </trkpt>
      <trkpt lat="44.81531" lon="6.80421">
        <ele>2625.978515625</ele>
        <time>2007-08-27T12:25:52Z</time>
      </trkpt>
      <trkpt lat="44.81531" lon="6.80421">
        <ele>2624.5366210938</ele>
        <time>2007-08-27T12:25:55Z</time>
      </trkpt>
      <trkpt lat="44.81531" lon="6.80421">
        <ele>2625.498046875</ele>
        <time>2007-08-27T12:26:38Z</time>
      </trkpt>
      <trkpt lat="44.81531" lon="6.80416">
        <ele>2625.0170898438</ele>
        <time>2007-08-27T12:29:48Z</time>
      </trkpt>
      <trkpt lat="44.81531" lon="6.80418">
        <ele>2628.3818359375</ele>
        <time>2007-08-27T12:30:14Z</time>
      </trkpt>
      <trkpt lat="44.81534" lon="6.80421">
        <ele>2625.0170898438</ele>
        <time>2007-08-27T12:32:11Z</time>
      </trkpt>
      <trkpt lat="44.81534" lon="6.80421">
        <ele>2628.3818359375</ele>
        <time>2007-08-27T12:33:12Z</time>
      </trkpt>
      <trkpt lat="44.81534" lon="6.80418">
        <ele>2625.0170898438</ele>
        <time>2007-08-27T12:33:43Z</time>
      </trkpt>
      <trkpt lat="44.81529" lon="6.80418">
        <ele>2624.0561523438</ele>
        <time>2007-08-27T12:34:31Z</time>
      </trkpt>
      <trkpt lat="44.81531" lon="6.80418">
        <ele>2624.5366210938</ele>
        <time>2007-08-27T12:34:44Z</time>
      </trkpt>
      <trkpt lat="44.81542" lon="6.80421">
        <ele>2625.0170898438</ele>
        <time>2007-08-27T12:34:54Z</time>
      </trkpt>
      <trkpt lat="44.81561" lon="6.80423">
        <ele>2622.1333007812</ele>
        <time>2007-08-27T12:35:09Z</time>
      </trkpt>
      <trkpt lat="44.81574" lon="6.80423">
        <ele>2618.7685546875</ele>
        <time>2007-08-27T12:35:12Z</time>
      </trkpt>
      <trkpt lat="44.81596" lon="6.80427">
        <ele>2616.3657226562</ele>
        <time>2007-08-27T12:35:17Z</time>
      </trkpt>
      <trkpt lat="44.81619" lon="6.80423">
        <ele>2613.0009765625</ele>
        <time>2007-08-27T12:35:24Z</time>
      </trkpt>
      <trkpt lat="44.81622" lon="6.80421">
        <ele>2611.55859375</ele>
        <time>2007-08-27T12:35:25Z</time>
      </trkpt>
      <trkpt lat="44.81634" lon="6.80429">
        <ele>2609.6357421875</ele>
        <time>2007-08-27T12:35:29Z</time>
      </trkpt>
      <trkpt lat="44.81643" lon="6.80436">
        <ele>2608.6748046875</ele>
        <time>2007-08-27T12:35:31Z</time>
      </trkpt>
      <trkpt lat="44.81664" lon="6.80446">
        <ele>2605.3100585938</ele>
        <time>2007-08-27T12:35:35Z</time>
      </trkpt>
      <trkpt lat="44.81679" lon="6.80449">
        <ele>2604.8291015625</ele>
        <time>2007-08-27T12:35:43Z</time>
      </trkpt>
      <trkpt lat="44.81703" lon="6.80442">
        <ele>2602.9067382812</ele>
        <time>2007-08-27T12:36:14Z</time>
      </trkpt>
      <trkpt lat="44.81712" lon="6.8044">
        <ele>2601.9453125</ele>
        <time>2007-08-27T12:36:16Z</time>
      </trkpt>
      <trkpt lat="44.81722" lon="6.80438">
        <ele>2600.984375</ele>
        <time>2007-08-27T12:36:19Z</time>
      </trkpt>
      <trkpt lat="44.8174" lon="6.80442">
        <ele>2598.1000976562</ele>
        <time>2007-08-27T12:36:25Z</time>
      </trkpt>
      <trkpt lat="44.81746" lon="6.80442">
        <ele>2595.2163085938</ele>
        <time>2007-08-27T12:36:28Z</time>
      </trkpt>
      <trkpt lat="44.81759" lon="6.80438">
        <ele>2591.37109375</ele>
        <time>2007-08-27T12:36:32Z</time>
      </trkpt>
      <trkpt lat="44.81761" lon="6.80438">
        <ele>2590.4096679688</ele>
        <time>2007-08-27T12:36:35Z</time>
      </trkpt>
      <trkpt lat="44.81763" lon="6.80436">
        <ele>2590.4096679688</ele>
        <time>2007-08-27T12:36:36Z</time>
      </trkpt>
      <trkpt lat="44.81778" lon="6.80438">
        <ele>2588.0065917969</ele>
        <time>2007-08-27T12:36:42Z</time>
      </trkpt>
      <trkpt lat="44.81782" lon="6.80438">
        <ele>2587.044921875</ele>
        <time>2007-08-27T12:36:44Z</time>
      </trkpt>
      <trkpt lat="44.81789" lon="6.80427">
        <ele>2585.1223144531</ele>
        <time>2007-08-27T12:36:56Z</time>
      </trkpt>
      <trkpt lat="44.81795" lon="6.80414">
        <ele>2583.1997070312</ele>
        <time>2007-08-27T12:37:25Z</time>
      </trkpt>
      <trkpt lat="44.81797" lon="6.80401">
        <ele>2579.8352050781</ele>
        <time>2007-08-27T12:37:29Z</time>
      </trkpt>
      <trkpt lat="44.818" lon="6.80395">
        <ele>2576.9514160156</ele>
        <time>2007-08-27T12:37:31Z</time>
      </trkpt>
      <trkpt lat="44.81804" lon="6.80388">
        <ele>2574.0673828125</ele>
        <time>2007-08-27T12:37:33Z</time>
      </trkpt>
      <trkpt lat="44.81808" lon="6.80382">
        <ele>2573.1062011719</ele>
        <time>2007-08-27T12:37:35Z</time>
      </trkpt>
      <trkpt lat="44.81815" lon="6.80371">
        <ele>2569.2607421875</ele>
        <time>2007-08-27T12:37:39Z</time>
      </trkpt>
      <trkpt lat="44.81815" lon="6.80369">
        <ele>2569.2607421875</ele>
        <time>2007-08-27T12:37:40Z</time>
      </trkpt>
      <trkpt lat="44.81817" lon="6.80365">
        <ele>2565.8959960938</ele>
        <time>2007-08-27T12:37:44Z</time>
      </trkpt>
      <trkpt lat="44.81825" lon="6.80363">
        <ele>2563.4926757812</ele>
        <time>2007-08-27T12:37:54Z</time>
      </trkpt>
      <trkpt lat="44.8183" lon="6.80356">
        <ele>2560.6088867188</ele>
        <time>2007-08-27T12:38:02Z</time>
      </trkpt>
      <trkpt lat="44.81834" lon="6.80354">
        <ele>2559.1669921875</ele>
        <time>2007-08-27T12:38:05Z</time>
      </trkpt>
      <trkpt lat="44.8184" lon="6.80343">
        <ele>2557.7250976562</ele>
        <time>2007-08-27T12:38:23Z</time>
      </trkpt>
      <trkpt lat="44.81847" lon="6.80341">
        <ele>2555.3215332031</ele>
        <time>2007-08-27T12:38:54Z</time>
      </trkpt>
      <trkpt lat="44.81849" lon="6.80341">
        <ele>2555.8020019531</ele>
        <time>2007-08-27T12:38:58Z</time>
      </trkpt>
      <trkpt lat="44.81858" lon="6.80337">
        <ele>2554.8408203125</ele>
        <time>2007-08-27T12:39:14Z</time>
      </trkpt>
      <trkpt lat="44.81875" lon="6.80337">
        <ele>2551.4763183594</ele>
        <time>2007-08-27T12:39:21Z</time>
      </trkpt>
      <trkpt lat="44.81885" lon="6.80339">
        <ele>2551.4763183594</ele>
        <time>2007-08-27T12:39:24Z</time>
      </trkpt>
      <trkpt lat="44.81894" lon="6.80356">
        <ele>2547.150390625</ele>
        <time>2007-08-27T12:39:28Z</time>
      </trkpt>
      <trkpt lat="44.81896" lon="6.80361">
        <ele>2547.150390625</ele>
        <time>2007-08-27T12:39:29Z</time>
      </trkpt>
      <trkpt lat="44.81911" lon="6.80361">
        <ele>2544.2663574219</ele>
        <time>2007-08-27T12:39:34Z</time>
      </trkpt>
      <trkpt lat="44.81928" lon="6.80361">
        <ele>2541.86328125</ele>
        <time>2007-08-27T12:39:40Z</time>
      </trkpt>
      <trkpt lat="44.81937" lon="6.80363">
        <ele>2539.4597167969</ele>
        <time>2007-08-27T12:39:43Z</time>
      </trkpt>
      <trkpt lat="44.81946" lon="6.80365">
        <ele>2538.4985351562</ele>
        <time>2007-08-27T12:39:46Z</time>
      </trkpt>
      <trkpt lat="44.81948" lon="6.80365">
        <ele>2538.4985351562</ele>
        <time>2007-08-27T12:39:53Z</time>
      </trkpt>
      <trkpt lat="44.81967" lon="6.80378">
        <ele>2535.6145019531</ele>
        <time>2007-08-27T12:40:04Z</time>
      </trkpt>
      <trkpt lat="44.81982" lon="6.80399">
        <ele>2532.73046875</ele>
        <time>2007-08-27T12:40:14Z</time>
      </trkpt>
      <trkpt lat="44.81984" lon="6.80403">
        <ele>2532.25</ele>
        <time>2007-08-27T12:40:15Z</time>
      </trkpt>
      <trkpt lat="44.82003" lon="6.80418">
        <ele>2528.4047851562</ele>
        <time>2007-08-27T12:40:26Z</time>
      </trkpt>
      <trkpt lat="44.82008" lon="6.80423">
        <ele>2527.443359375</ele>
        <time>2007-08-27T12:40:28Z</time>
      </trkpt>
      <trkpt lat="44.82012" lon="6.80425">
        <ele>2526.4821777344</ele>
        <time>2007-08-27T12:40:30Z</time>
      </trkpt>
      <trkpt lat="44.82016" lon="6.80434">
        <ele>2525.0400390625</ele>
        <time>2007-08-27T12:40:34Z</time>
      </trkpt>
      <trkpt lat="44.8204" lon="6.80455">
        <ele>2521.1945800781</ele>
        <time>2007-08-27T12:40:44Z</time>
      </trkpt>
      <trkpt lat="44.82055" lon="6.80483">
        <ele>2518.3107910156</ele>
        <time>2007-08-27T12:40:56Z</time>
      </trkpt>
      <trkpt lat="44.82057" lon="6.80481">
        <ele>2518.3107910156</ele>
        <time>2007-08-27T12:41:14Z</time>
      </trkpt>
      <trkpt lat="44.82055" lon="6.80479">
        <ele>2518.3107910156</ele>
        <time>2007-08-27T12:41:30Z</time>
      </trkpt>
      <trkpt lat="44.82057" lon="6.80489">
        <ele>2517.830078125</ele>
        <time>2007-08-27T12:41:34Z</time>
      </trkpt>
      <trkpt lat="44.82061" lon="6.80494">
        <ele>2517.3493652344</ele>
        <time>2007-08-27T12:41:36Z</time>
      </trkpt>
      <trkpt lat="44.82072" lon="6.80519">
        <ele>2513.9848632812</ele>
        <time>2007-08-27T12:41:46Z</time>
      </trkpt>
      <trkpt lat="44.82081" lon="6.80539">
        <ele>2512.0622558594</ele>
        <time>2007-08-27T12:41:52Z</time>
      </trkpt>
      <trkpt lat="44.82089" lon="6.8056">
        <ele>2508.2170410156</ele>
        <time>2007-08-27T12:41:58Z</time>
      </trkpt>
      <trkpt lat="44.82091" lon="6.80562">
        <ele>2507.2556152344</ele>
        <time>2007-08-27T12:42:00Z</time>
      </trkpt>
      <trkpt lat="44.82104" lon="6.80575">
        <ele>2503.8911132812</ele>
        <time>2007-08-27T12:42:06Z</time>
      </trkpt>
      <trkpt lat="44.82113" lon="6.80584">
        <ele>2502.9296875</ele>
        <time>2007-08-27T12:42:09Z</time>
      </trkpt>
      <trkpt lat="44.82121" lon="6.80588">
        <ele>2501.4877929688</ele>
        <time>2007-08-27T12:42:12Z</time>
      </trkpt>
      <trkpt lat="44.82149" lon="6.8059">
        <ele>2498.123046875</ele>
        <time>2007-08-27T12:42:19Z</time>
      </trkpt>
      <trkpt lat="44.82182" lon="6.80607">
        <ele>2494.7585449219</ele>
        <time>2007-08-27T12:42:32Z</time>
      </trkpt>
      <trkpt lat="44.82186" lon="6.80605">
        <ele>2494.2778320312</ele>
        <time>2007-08-27T12:42:46Z</time>
      </trkpt>
      <trkpt lat="44.82186" lon="6.80605">
        <ele>2493.7973632812</ele>
        <time>2007-08-27T12:42:48Z</time>
      </trkpt>
      <trkpt lat="44.82197" lon="6.80605">
        <ele>2492.35546875</ele>
        <time>2007-08-27T12:42:52Z</time>
      </trkpt>
      <trkpt lat="44.82209" lon="6.80616">
        <ele>2489.9519042969</ele>
        <time>2007-08-27T12:43:04Z</time>
      </trkpt>
      <trkpt lat="44.82231" lon="6.80616">
        <ele>2487.5485839844</ele>
        <time>2007-08-27T12:43:22Z</time>
      </trkpt>
      <trkpt lat="44.8225" lon="6.80635">
        <ele>2483.7033691406</ele>
        <time>2007-08-27T12:43:31Z</time>
      </trkpt>
      <trkpt lat="44.82255" lon="6.80637">
        <ele>2482.7419433594</ele>
        <time>2007-08-27T12:43:33Z</time>
      </trkpt>
      <trkpt lat="44.82267" lon="6.80644">
        <ele>2479.8581542969</ele>
        <time>2007-08-27T12:43:39Z</time>
      </trkpt>
      <trkpt lat="44.8228" lon="6.80646">
        <ele>2476.4936523438</ele>
        <time>2007-08-27T12:43:44Z</time>
      </trkpt>
      <trkpt lat="44.82293" lon="6.8065">
        <ele>2473.609375</ele>
        <time>2007-08-27T12:43:48Z</time>
      </trkpt>
      <trkpt lat="44.82304" lon="6.8065">
        <ele>2470.7255859375</ele>
        <time>2007-08-27T12:43:55Z</time>
      </trkpt>
      <trkpt lat="44.8231" lon="6.80663">
        <ele>2468.8029785156</ele>
        <time>2007-08-27T12:43:59Z</time>
      </trkpt>
      <trkpt lat="44.82321" lon="6.80676">
        <ele>2465.9189453125</ele>
        <time>2007-08-27T12:44:06Z</time>
      </trkpt>
      <trkpt lat="44.82323" lon="6.80676">
        <ele>2465.4384765625</ele>
        <time>2007-08-27T12:44:07Z</time>
      </trkpt>
      <trkpt lat="44.82351" lon="6.80685">
        <ele>2462.0737304688</ele>
        <time>2007-08-27T12:44:18Z</time>
      </trkpt>
      <trkpt lat="44.82364" lon="6.80687">
        <ele>2460.6318359375</ele>
        <time>2007-08-27T12:44:22Z</time>
      </trkpt>
      <trkpt lat="44.82375" lon="6.80678">
        <ele>2459.6701660156</ele>
        <time>2007-08-27T12:44:30Z</time>
      </trkpt>
      <trkpt lat="44.82377" lon="6.80678">
        <ele>2457.7478027344</ele>
        <time>2007-08-27T12:44:49Z</time>
      </trkpt>
      <trkpt lat="44.82385" lon="6.80672">
        <ele>2453.9025878906</ele>
        <time>2007-08-27T12:44:53Z</time>
      </trkpt>
      <trkpt lat="44.8239" lon="6.80667">
        <ele>2453.421875</ele>
        <time>2007-08-27T12:44:54Z</time>
      </trkpt>
      <trkpt lat="44.82409" lon="6.8067">
        <ele>2451.9797363281</ele>
        <time>2007-08-27T12:44:59Z</time>
      </trkpt>
      <trkpt lat="44.82433" lon="6.80667">
        <ele>2449.5766601562</ele>
        <time>2007-08-27T12:45:05Z</time>
      </trkpt>
      <trkpt lat="44.82456" lon="6.80665">
        <ele>2445.7314453125</ele>
        <time>2007-08-27T12:45:12Z</time>
      </trkpt>
      <trkpt lat="44.82465" lon="6.80663">
        <ele>2444.7700195312</ele>
        <time>2007-08-27T12:45:18Z</time>
      </trkpt>
      <trkpt lat="44.82482" lon="6.80663">
        <ele>2442.3666992188</ele>
        <time>2007-08-27T12:45:28Z</time>
      </trkpt>
      <trkpt lat="44.82495" lon="6.80657">
        <ele>2440.4438476562</ele>
        <time>2007-08-27T12:45:36Z</time>
      </trkpt>
      <trkpt lat="44.82514" lon="6.8065">
        <ele>2437.5600585938</ele>
        <time>2007-08-27T12:45:47Z</time>
      </trkpt>
      <trkpt lat="44.82531" lon="6.80652">
        <ele>2434.1955566406</ele>
        <time>2007-08-27T12:45:55Z</time>
      </trkpt>
      <trkpt lat="44.82533" lon="6.80655">
        <ele>2433.71484375</ele>
        <time>2007-08-27T12:45:56Z</time>
      </trkpt>
      <trkpt lat="44.8254" lon="6.80655">
        <ele>2433.2341308594</ele>
        <time>2007-08-27T12:45:59Z</time>
      </trkpt>
      <trkpt lat="44.82551" lon="6.80657">
        <ele>2431.7922363281</ele>
        <time>2007-08-27T12:46:10Z</time>
      </trkpt>
      <trkpt lat="44.82559" lon="6.80665">
        <ele>2427.9467773438</ele>
        <time>2007-08-27T12:46:21Z</time>
      </trkpt>
      <trkpt lat="44.82561" lon="6.80667">
        <ele>2426.0241699219</ele>
        <time>2007-08-27T12:46:24Z</time>
      </trkpt>
      <trkpt lat="44.82563" lon="6.8067">
        <ele>2425.5434570312</ele>
        <time>2007-08-27T12:46:30Z</time>
      </trkpt>
      <trkpt lat="44.8257" lon="6.8067">
        <ele>2423.1403808594</ele>
        <time>2007-08-27T12:46:51Z</time>
      </trkpt>
      <trkpt lat="44.8257" lon="6.80667">
        <ele>2423.6208496094</ele>
        <time>2007-08-27T12:47:19Z</time>
      </trkpt>
      <trkpt lat="44.82574" lon="6.80676">
        <ele>2420.2563476562</ele>
        <time>2007-08-27T12:47:24Z</time>
      </trkpt>
      <trkpt lat="44.82576" lon="6.80682">
        <ele>2418.3337402344</ele>
        <time>2007-08-27T12:47:28Z</time>
      </trkpt>
      <trkpt lat="44.82579" lon="6.80691">
        <ele>2415.4499511719</ele>
        <time>2007-08-27T12:47:34Z</time>
      </trkpt>
      <trkpt lat="44.82583" lon="6.807">
        <ele>2413.5270996094</ele>
        <time>2007-08-27T12:47:41Z</time>
      </trkpt>
      <trkpt lat="44.82596" lon="6.80706">
        <ele>2410.1623535156</ele>
        <time>2007-08-27T12:47:53Z</time>
      </trkpt>
      <trkpt lat="44.82598" lon="6.80706">
        <ele>2409.201171875</ele>
        <time>2007-08-27T12:47:55Z</time>
      </trkpt>
      <trkpt lat="44.82606" lon="6.80708">
        <ele>2405.8364257812</ele>
        <time>2007-08-27T12:48:04Z</time>
      </trkpt>
      <trkpt lat="44.82613" lon="6.8071">
        <ele>2401.9912109375</ele>
        <time>2007-08-27T12:48:13Z</time>
      </trkpt>
      <trkpt lat="44.82613" lon="6.8071">
        <ele>2402.4719238281</ele>
        <time>2007-08-27T12:48:14Z</time>
      </trkpt>
      <trkpt lat="44.82617" lon="6.8071">
        <ele>2400.5493164062</ele>
        <time>2007-08-27T12:48:20Z</time>
      </trkpt>
      <trkpt lat="44.82619" lon="6.80712">
        <ele>2399.5881347656</ele>
        <time>2007-08-27T12:48:26Z</time>
      </trkpt>
      <trkpt lat="44.82617" lon="6.80719">
        <ele>2397.1848144531</ele>
        <time>2007-08-27T12:48:32Z</time>
      </trkpt>
      <trkpt lat="44.82619" lon="6.80721">
        <ele>2396.7041015625</ele>
        <time>2007-08-27T12:48:35Z</time>
      </trkpt>
      <trkpt lat="44.82628" lon="6.80721">
        <ele>2392.3781738281</ele>
        <time>2007-08-27T12:48:45Z</time>
      </trkpt>
      <trkpt lat="44.82628" lon="6.80721">
        <ele>2392.8586425781</ele>
        <time>2007-08-27T12:48:55Z</time>
      </trkpt>
      <trkpt lat="44.8263" lon="6.80723">
        <ele>2392.3781738281</ele>
        <time>2007-08-27T12:48:57Z</time>
      </trkpt>
      <trkpt lat="44.82632" lon="6.80725">
        <ele>2390.4553222656</ele>
        <time>2007-08-27T12:48:59Z</time>
      </trkpt>
      <trkpt lat="44.82634" lon="6.80723">
        <ele>2389.0134277344</ele>
        <time>2007-08-27T12:49:03Z</time>
      </trkpt>
      <trkpt lat="44.82636" lon="6.80721">
        <ele>2388.0522460938</ele>
        <time>2007-08-27T12:49:05Z</time>
      </trkpt>
      <trkpt lat="44.82647" lon="6.80719">
        <ele>2384.6877441406</ele>
        <time>2007-08-27T12:49:14Z</time>
      </trkpt>
      <trkpt lat="44.82647" lon="6.80717">
        <ele>2384.20703125</ele>
        <time>2007-08-27T12:49:15Z</time>
      </trkpt>
      <trkpt lat="44.82656" lon="6.80715">
        <ele>2382.7648925781</ele>
        <time>2007-08-27T12:49:23Z</time>
      </trkpt>
      <trkpt lat="44.82662" lon="6.8071">
        <ele>2381.8037109375</ele>
        <time>2007-08-27T12:49:30Z</time>
      </trkpt>
      <trkpt lat="44.82662" lon="6.80715">
        <ele>2379.4001464844</ele>
        <time>2007-08-27T12:49:33Z</time>
      </trkpt>
      <trkpt lat="44.82662" lon="6.80715">
        <ele>2378.4389648438</ele>
        <time>2007-08-27T12:49:35Z</time>
      </trkpt>
      <trkpt lat="44.82673" lon="6.80721">
        <ele>2375.5549316406</ele>
        <time>2007-08-27T12:49:56Z</time>
      </trkpt>
      <trkpt lat="44.82671" lon="6.80723">
        <ele>2372.1904296875</ele>
        <time>2007-08-27T12:49:59Z</time>
      </trkpt>
      <trkpt lat="44.82671" lon="6.80725">
        <ele>2372.1904296875</ele>
        <time>2007-08-27T12:50:00Z</time>
      </trkpt>
      <trkpt lat="44.82669" lon="6.80732">
        <ele>2369.306640625</ele>
        <time>2007-08-27T12:50:06Z</time>
      </trkpt>
      <trkpt lat="44.82673" lon="6.8074">
        <ele>2366.9033203125</ele>
        <time>2007-08-27T12:50:21Z</time>
      </trkpt>
      <trkpt lat="44.82679" lon="6.8074">
        <ele>2364.9807128906</ele>
        <time>2007-08-27T12:50:29Z</time>
      </trkpt>
      <trkpt lat="44.82684" lon="6.8074">
        <ele>2363.5383300781</ele>
        <time>2007-08-27T12:50:37Z</time>
      </trkpt>
      <trkpt lat="44.82682" lon="6.80755">
        <ele>2359.2126464844</ele>
        <time>2007-08-27T12:50:49Z</time>
      </trkpt>
      <trkpt lat="44.82682" lon="6.80758">
        <ele>2358.7319335938</ele>
        <time>2007-08-27T12:50:51Z</time>
      </trkpt>
      <trkpt lat="44.82679" lon="6.80762">
        <ele>2357.2900390625</ele>
        <time>2007-08-27T12:50:56Z</time>
      </trkpt>
      <trkpt lat="44.8269" lon="6.80762">
        <ele>2353.4448242188</ele>
        <time>2007-08-27T12:51:07Z</time>
      </trkpt>
      <trkpt lat="44.82692" lon="6.80762">
        <ele>2352.4833984375</ele>
        <time>2007-08-27T12:51:08Z</time>
      </trkpt>
      <trkpt lat="44.82697" lon="6.80762">
        <ele>2350.0803222656</ele>
        <time>2007-08-27T12:51:13Z</time>
      </trkpt>
      <trkpt lat="44.82694" lon="6.8077">
        <ele>2349.1188964844</ele>
        <time>2007-08-27T12:51:17Z</time>
      </trkpt>
      <trkpt lat="44.82694" lon="6.80777">
        <ele>2347.6767578125</ele>
        <time>2007-08-27T12:51:21Z</time>
      </trkpt>
      <trkpt lat="44.82694" lon="6.80781">
        <ele>2345.7541503906</ele>
        <time>2007-08-27T12:51:28Z</time>
      </trkpt>
      <trkpt lat="44.82699" lon="6.80781">
        <ele>2344.3120117188</ele>
        <time>2007-08-27T12:51:40Z</time>
      </trkpt>
      <trkpt lat="44.82701" lon="6.80785">
        <ele>2343.8315429688</ele>
        <time>2007-08-27T12:51:53Z</time>
      </trkpt>
      <trkpt lat="44.82705" lon="6.80785">
        <ele>2341.9089355469</ele>
        <time>2007-08-27T12:52:18Z</time>
      </trkpt>
      <trkpt lat="44.82709" lon="6.80781">
        <ele>2339.5056152344</ele>
        <time>2007-08-27T12:52:21Z</time>
      </trkpt>
      <trkpt lat="44.82714" lon="6.8079">
        <ele>2337.5830078125</ele>
        <time>2007-08-27T12:52:26Z</time>
      </trkpt>
      <trkpt lat="44.82716" lon="6.80796">
        <ele>2336.6215820312</ele>
        <time>2007-08-27T12:52:29Z</time>
      </trkpt>
      <trkpt lat="44.82716" lon="6.80798">
        <ele>2335.6604003906</ele>
        <time>2007-08-27T12:52:30Z</time>
      </trkpt>
      <trkpt lat="44.82714" lon="6.80803">
        <ele>2334.69921875</ele>
        <time>2007-08-27T12:52:32Z</time>
      </trkpt>
      <trkpt lat="44.82724" lon="6.80803">
        <ele>2332.7763671875</ele>
        <time>2007-08-27T12:52:40Z</time>
      </trkpt>
      <trkpt lat="44.82735" lon="6.80794">
        <ele>2329.8923339844</ele>
        <time>2007-08-27T12:52:48Z</time>
      </trkpt>
      <trkpt lat="44.82739" lon="6.80788">
        <ele>2326.0471191406</ele>
        <time>2007-08-27T12:52:52Z</time>
      </trkpt>
      <trkpt lat="44.82744" lon="6.80781">
        <ele>2325.56640625</ele>
        <time>2007-08-27T12:52:56Z</time>
      </trkpt>
      <trkpt lat="44.82746" lon="6.80781">
        <ele>2325.56640625</ele>
        <time>2007-08-27T12:52:57Z</time>
      </trkpt>
      <trkpt lat="44.82746" lon="6.80785">
        <ele>2324.1245117188</ele>
        <time>2007-08-27T12:53:01Z</time>
      </trkpt>
      <trkpt lat="44.8275" lon="6.80788">
        <ele>2322.2019042969</ele>
        <time>2007-08-27T12:53:16Z</time>
      </trkpt>
      <trkpt lat="44.82759" lon="6.808">
        <ele>2320.279296875</ele>
        <time>2007-08-27T12:53:44Z</time>
      </trkpt>
      <trkpt lat="44.82767" lon="6.80815">
        <ele>2316.4340820312</ele>
        <time>2007-08-27T12:53:49Z</time>
      </trkpt>
      <trkpt lat="44.82769" lon="6.80815">
        <ele>2316.4340820312</ele>
        <time>2007-08-27T12:53:50Z</time>
      </trkpt>
      <trkpt lat="44.82776" lon="6.80826">
        <ele>2313.0693359375</ele>
        <time>2007-08-27T12:53:54Z</time>
      </trkpt>
      <trkpt lat="44.8278" lon="6.80835">
        <ele>2310.1853027344</ele>
        <time>2007-08-27T12:53:57Z</time>
      </trkpt>
      <trkpt lat="44.82789" lon="6.80852">
        <ele>2306.8208007812</ele>
        <time>2007-08-27T12:54:02Z</time>
      </trkpt>
      <trkpt lat="44.82793" lon="6.80873">
        <ele>2303.4562988281</ele>
        <time>2007-08-27T12:54:07Z</time>
      </trkpt>
      <trkpt lat="44.82797" lon="6.8088">
        <ele>2301.5336914062</ele>
        <time>2007-08-27T12:54:09Z</time>
      </trkpt>
      <trkpt lat="44.82808" lon="6.80901">
        <ele>2296.7268066406</ele>
        <time>2007-08-27T12:54:13Z</time>
      </trkpt>
      <trkpt lat="44.82812" lon="6.80914">
        <ele>2294.3234863281</ele>
        <time>2007-08-27T12:54:17Z</time>
      </trkpt>
      <trkpt lat="44.82815" lon="6.80918">
        <ele>2292.8815917969</ele>
        <time>2007-08-27T12:54:18Z</time>
      </trkpt>
      <trkpt lat="44.82817" lon="6.80929">
        <ele>2290.4782714844</ele>
        <time>2007-08-27T12:54:21Z</time>
      </trkpt>
      <trkpt lat="44.82821" lon="6.80938">
        <ele>2289.0363769531</ele>
        <time>2007-08-27T12:54:23Z</time>
      </trkpt>
      <trkpt lat="44.82832" lon="6.80957">
        <ele>2285.1911621094</ele>
        <time>2007-08-27T12:54:29Z</time>
      </trkpt>
      <trkpt lat="44.82834" lon="6.80959">
        <ele>2285.1911621094</ele>
        <time>2007-08-27T12:54:30Z</time>
      </trkpt>
      <trkpt lat="44.82849" lon="6.80994">
        <ele>2280.3845214844</ele>
        <time>2007-08-27T12:54:38Z</time>
      </trkpt>
      <trkpt lat="44.82851" lon="6.80998">
        <ele>2280.865234375</ele>
        <time>2007-08-27T12:54:39Z</time>
      </trkpt>
      <trkpt lat="44.8286" lon="6.81011">
        <ele>2277.5004882812</ele>
        <time>2007-08-27T12:54:43Z</time>
      </trkpt>
      <trkpt lat="44.82864" lon="6.81019">
        <ele>2275.5778808594</ele>
        <time>2007-08-27T12:54:46Z</time>
      </trkpt>
      <trkpt lat="44.8287" lon="6.81019">
        <ele>2275.0971679688</ele>
        <time>2007-08-27T12:54:49Z</time>
      </trkpt>
      <trkpt lat="44.82877" lon="6.81026">
        <ele>2273.6552734375</ele>
        <time>2007-08-27T12:54:53Z</time>
      </trkpt>
      <trkpt lat="44.82885" lon="6.81032">
        <ele>2271.251953125</ele>
        <time>2007-08-27T12:54:58Z</time>
      </trkpt>
      <trkpt lat="44.82888" lon="6.81028">
        <ele>2271.251953125</ele>
        <time>2007-08-27T12:55:09Z</time>
      </trkpt>
      <trkpt lat="44.8289" lon="6.81026">
        <ele>2269.8100585938</ele>
        <time>2007-08-27T12:55:12Z</time>
      </trkpt>
      <trkpt lat="44.829" lon="6.81026">
        <ele>2268.8488769531</ele>
        <time>2007-08-27T12:55:16Z</time>
      </trkpt>
      <trkpt lat="44.82915" lon="6.81026">
        <ele>2265.9645996094</ele>
        <time>2007-08-27T12:55:22Z</time>
      </trkpt>
      <trkpt lat="44.82918" lon="6.81026">
        <ele>2265.9645996094</ele>
        <time>2007-08-27T12:55:23Z</time>
      </trkpt>
      <trkpt lat="44.82935" lon="6.81024">
        <ele>2263.5612792969</ele>
        <time>2007-08-27T12:55:36Z</time>
      </trkpt>
      <trkpt lat="44.82952" lon="6.81024">
        <ele>2260.1967773438</ele>
        <time>2007-08-27T12:55:45Z</time>
      </trkpt>
      <trkpt lat="44.82978" lon="6.81032">
        <ele>2256.8322753906</ele>
        <time>2007-08-27T12:55:55Z</time>
      </trkpt>
      <trkpt lat="44.82986" lon="6.81041">
        <ele>2255.3903808594</ele>
        <time>2007-08-27T12:55:59Z</time>
      </trkpt>
      <trkpt lat="44.83003" lon="6.81049">
        <ele>2251.544921875</ele>
        <time>2007-08-27T12:56:04Z</time>
      </trkpt>
      <trkpt lat="44.83023" lon="6.81054">
        <ele>2248.1801757812</ele>
        <time>2007-08-27T12:56:09Z</time>
      </trkpt>
      <trkpt lat="44.83036" lon="6.8106">
        <ele>2245.7770996094</ele>
        <time>2007-08-27T12:56:13Z</time>
      </trkpt>
      <trkpt lat="44.83055" lon="6.81073">
        <ele>2242.4125976562</ele>
        <time>2007-08-27T12:56:23Z</time>
      </trkpt>
      <trkpt lat="44.83057" lon="6.81075">
        <ele>2241.451171875</ele>
        <time>2007-08-27T12:56:25Z</time>
      </trkpt>
      <trkpt lat="44.83081" lon="6.81086">
        <ele>2238.5673828125</ele>
        <time>2007-08-27T12:56:40Z</time>
      </trkpt>
      <trkpt lat="44.83085" lon="6.81088">
        <ele>2237.6059570312</ele>
        <time>2007-08-27T12:56:42Z</time>
      </trkpt>
      <trkpt lat="44.83087" lon="6.81088">
        <ele>2237.1252441406</ele>
        <time>2007-08-27T12:56:57Z</time>
      </trkpt>
      <trkpt lat="44.83094" lon="6.81092">
        <ele>2236.64453125</ele>
        <time>2007-08-27T12:57:09Z</time>
      </trkpt>
      <trkpt lat="44.83098" lon="6.81101">
        <ele>2234.2412109375</ele>
        <time>2007-08-27T12:57:14Z</time>
      </trkpt>
      <trkpt lat="44.83104" lon="6.81099">
        <ele>2233.2797851562</ele>
        <time>2007-08-27T12:57:17Z</time>
      </trkpt>
      <trkpt lat="44.83111" lon="6.81109">
        <ele>2229.9152832031</ele>
        <time>2007-08-27T12:57:23Z</time>
      </trkpt>
      <trkpt lat="44.83115" lon="6.81109">
        <ele>2229.4345703125</ele>
        <time>2007-08-27T12:57:27Z</time>
      </trkpt>
      <trkpt lat="44.83119" lon="6.81114">
        <ele>2227.5119628906</ele>
        <time>2007-08-27T12:57:31Z</time>
      </trkpt>
      <trkpt lat="44.8313" lon="6.81122">
        <ele>2224.1474609375</ele>
        <time>2007-08-27T12:57:38Z</time>
      </trkpt>
      <trkpt lat="44.83139" lon="6.81127">
        <ele>2221.744140625</ele>
        <time>2007-08-27T12:57:49Z</time>
      </trkpt>
      <trkpt lat="44.83143" lon="6.81129">
        <ele>2220.3022460938</ele>
        <time>2007-08-27T12:57:51Z</time>
      </trkpt>
      <trkpt lat="44.83156" lon="6.81129">
        <ele>2217.41796875</ele>
        <time>2007-08-27T12:57:59Z</time>
      </trkpt>
      <trkpt lat="44.83169" lon="6.81127">
        <ele>2214.5341796875</ele>
        <time>2007-08-27T12:58:12Z</time>
      </trkpt>
      <trkpt lat="44.83175" lon="6.81129">
        <ele>2212.6115722656</ele>
        <time>2007-08-27T12:58:17Z</time>
      </trkpt>
      <trkpt lat="44.8319" lon="6.81139">
        <ele>2211.1696777344</ele>
        <time>2007-08-27T12:58:21Z</time>
      </trkpt>
      <trkpt lat="44.83209" lon="6.8115">
        <ele>2208.7663574219</ele>
        <time>2007-08-27T12:58:33Z</time>
      </trkpt>
      <trkpt lat="44.83209" lon="6.81163">
        <ele>2207.8051757812</ele>
        <time>2007-08-27T12:58:52Z</time>
      </trkpt>
      <trkpt lat="44.83209" lon="6.81161">
        <ele>2207.8051757812</ele>
        <time>2007-08-27T12:59:40Z</time>
      </trkpt>
      <trkpt lat="44.83218" lon="6.81174">
        <ele>2205.4018554688</ele>
        <time>2007-08-27T12:59:45Z</time>
      </trkpt>
      <trkpt lat="44.83235" lon="6.81193">
        <ele>2202.9982910156</ele>
        <time>2007-08-27T13:00:00Z</time>
      </trkpt>
      <trkpt lat="44.83235" lon="6.81195">
        <ele>2202.517578125</ele>
        <time>2007-08-27T13:00:02Z</time>
      </trkpt>
      <trkpt lat="44.83242" lon="6.8121">
        <ele>2202.517578125</ele>
        <time>2007-08-27T13:00:18Z</time>
      </trkpt>
      <trkpt lat="44.83246" lon="6.8121">
        <ele>2202.517578125</ele>
        <time>2007-08-27T13:00:26Z</time>
      </trkpt>
      <trkpt lat="44.83276" lon="6.81232">
        <ele>2200.5949707031</ele>
        <time>2007-08-27T13:00:37Z</time>
      </trkpt>
      <trkpt lat="44.83306" lon="6.81247">
        <ele>2198.6723632812</ele>
        <time>2007-08-27T13:00:52Z</time>
      </trkpt>
      <trkpt lat="44.83317" lon="6.81251">
        <ele>2199.6337890625</ele>
        <time>2007-08-27T13:01:25Z</time>
      </trkpt>
      <trkpt lat="44.83325" lon="6.81253">
        <ele>2201.0756835938</ele>
        <time>2007-08-27T13:01:32Z</time>
      </trkpt>
      <trkpt lat="44.8334" lon="6.8126">
        <ele>2202.9982910156</ele>
        <time>2007-08-27T13:01:48Z</time>
      </trkpt>
      <trkpt lat="44.83345" lon="6.8126">
        <ele>2202.9982910156</ele>
        <time>2007-08-27T13:01:50Z</time>
      </trkpt>
      <trkpt lat="44.83368" lon="6.81273">
        <ele>2203.4790039062</ele>
        <time>2007-08-27T13:02:05Z</time>
      </trkpt>
      <trkpt lat="44.83385" lon="6.81281">
        <ele>2204.9211425781</ele>
        <time>2007-08-27T13:02:22Z</time>
      </trkpt>
      <trkpt lat="44.83402" lon="6.81294">
        <ele>2206.3630371094</ele>
        <time>2007-08-27T13:02:35Z</time>
      </trkpt>
      <trkpt lat="44.83415" lon="6.81303">
        <ele>2205.4018554688</ele>
        <time>2007-08-27T13:02:44Z</time>
      </trkpt>
      <trkpt lat="44.83445" lon="6.81333">
        <ele>2203.4790039062</ele>
        <time>2007-08-27T13:02:57Z</time>
      </trkpt>
      <trkpt lat="44.83456" lon="6.81345">
        <ele>2202.0368652344</ele>
        <time>2007-08-27T13:03:03Z</time>
      </trkpt>
      <trkpt lat="44.8346" lon="6.81343">
        <ele>2200.5949707031</ele>
        <time>2007-08-27T13:03:05Z</time>
      </trkpt>
      <trkpt lat="44.83467" lon="6.81345">
        <ele>2200.1145019531</ele>
        <time>2007-08-27T13:03:07Z</time>
      </trkpt>
      <trkpt lat="44.83486" lon="6.81354">
        <ele>2198.6723632812</ele>
        <time>2007-08-27T13:03:20Z</time>
      </trkpt>
      <trkpt lat="44.83503" lon="6.81363">
        <ele>2195.3078613281</ele>
        <time>2007-08-27T13:03:37Z</time>
      </trkpt>
      <trkpt lat="44.8351" lon="6.81367">
        <ele>2193.8659667969</ele>
        <time>2007-08-27T13:03:39Z</time>
      </trkpt>
      <trkpt lat="44.83518" lon="6.81369">
        <ele>2193.8659667969</ele>
        <time>2007-08-27T13:03:42Z</time>
      </trkpt>
      <trkpt lat="44.83525" lon="6.81371">
        <ele>2193.8659667969</ele>
        <time>2007-08-27T13:03:45Z</time>
      </trkpt>
      <trkpt lat="44.83536" lon="6.8138">
        <ele>2196.2692871094</ele>
        <time>2007-08-27T13:03:53Z</time>
      </trkpt>
      <trkpt lat="44.83553" lon="6.81399">
        <ele>2195.7885742188</ele>
        <time>2007-08-27T13:04:08Z</time>
      </trkpt>
      <trkpt lat="44.83559" lon="6.81401">
        <ele>2195.7885742188</ele>
        <time>2007-08-27T13:04:11Z</time>
      </trkpt>
      <trkpt lat="44.83563" lon="6.8141">
        <ele>2194.8271484375</ele>
        <time>2007-08-27T13:04:15Z</time>
      </trkpt>
      <trkpt lat="44.83576" lon="6.81425">
        <ele>2193.8659667969</ele>
        <time>2007-08-27T13:04:26Z</time>
      </trkpt>
      <trkpt lat="44.83576" lon="6.81425">
        <ele>2194.3464355469</ele>
        <time>2007-08-27T13:04:42Z</time>
      </trkpt>
      <trkpt lat="44.83587" lon="6.81442">
        <ele>2191.943359375</ele>
        <time>2007-08-27T13:04:49Z</time>
      </trkpt>
      <trkpt lat="44.83593" lon="6.81459">
        <ele>2190.5012207031</ele>
        <time>2007-08-27T13:04:54Z</time>
      </trkpt>
      <trkpt lat="44.836" lon="6.81463">
        <ele>2189.0593261719</ele>
        <time>2007-08-27T13:04:58Z</time>
      </trkpt>
      <trkpt lat="44.83604" lon="6.8147">
        <ele>2188.0981445312</ele>
        <time>2007-08-27T13:05:00Z</time>
      </trkpt>
      <trkpt lat="44.83613" lon="6.81479">
        <ele>2184.7333984375</ele>
        <time>2007-08-27T13:05:06Z</time>
      </trkpt>
      <trkpt lat="44.83615" lon="6.81481">
        <ele>2185.2138671875</ele>
        <time>2007-08-27T13:05:07Z</time>
      </trkpt>
      <trkpt lat="44.83628" lon="6.81489">
        <ele>2181.3686523438</ele>
        <time>2007-08-27T13:05:12Z</time>
      </trkpt>
      <trkpt lat="44.83651" lon="6.81509">
        <ele>2178.0041503906</ele>
        <time>2007-08-27T13:05:19Z</time>
      </trkpt>
      <trkpt lat="44.83656" lon="6.81511">
        <ele>2177.5234375</ele>
        <time>2007-08-27T13:05:20Z</time>
      </trkpt>
      <trkpt lat="44.83671" lon="6.81521">
        <ele>2172.7170410156</ele>
        <time>2007-08-27T13:05:24Z</time>
      </trkpt>
      <trkpt lat="44.8369" lon="6.81536">
        <ele>2167.91015625</ele>
        <time>2007-08-27T13:05:29Z</time>
      </trkpt>
      <trkpt lat="44.83701" lon="6.81545">
        <ele>2165.9875488281</ele>
        <time>2007-08-27T13:05:32Z</time>
      </trkpt>
      <trkpt lat="44.83782" lon="6.81635">
        <ele>2163.1037597656</ele>
        <time>2007-08-27T13:05:56Z</time>
      </trkpt>
      <trkpt lat="44.83799" lon="6.81654">
        <ele>2161.1811523438</ele>
        <time>2007-08-27T13:06:01Z</time>
      </trkpt>
      <trkpt lat="44.83866" lon="6.81704">
        <ele>2151.0871582031</ele>
        <time>2007-08-27T13:07:09Z</time>
      </trkpt>
      <trkpt lat="44.83866" lon="6.81704">
        <ele>2151.0871582031</ele>
        <time>2007-08-27T13:07:10Z</time>
      </trkpt>
      <trkpt lat="44.8386" lon="6.81704">
        <ele>2152.0483398438</ele>
        <time>2007-08-27T13:07:14Z</time>
      </trkpt>
      <trkpt lat="44.83864" lon="6.81704">
        <ele>2153.009765625</ele>
        <time>2007-08-27T13:07:19Z</time>
      </trkpt>
      <trkpt lat="44.83879" lon="6.81708">
        <ele>2155.4130859375</ele>
        <time>2007-08-27T13:07:35Z</time>
      </trkpt>
      <trkpt lat="44.83887" lon="6.8171">
        <ele>2156.8552246094</ele>
        <time>2007-08-27T13:07:46Z</time>
      </trkpt>
      <trkpt lat="44.83898" lon="6.8171">
        <ele>2158.2971191406</ele>
        <time>2007-08-27T13:08:01Z</time>
      </trkpt>
      <trkpt lat="44.83909" lon="6.8171">
        <ele>2158.7778320312</ele>
        <time>2007-08-27T13:08:16Z</time>
      </trkpt>
      <trkpt lat="44.83911" lon="6.81712">
        <ele>2160.2197265625</ele>
        <time>2007-08-27T13:08:44Z</time>
      </trkpt>
      <trkpt lat="44.83932" lon="6.81732">
        <ele>2156.3745117188</ele>
        <time>2007-08-27T13:08:56Z</time>
      </trkpt>
      <trkpt lat="44.83941" lon="6.81747">
        <ele>2154.4516601562</ele>
        <time>2007-08-27T13:09:07Z</time>
      </trkpt>
      <trkpt lat="44.83948" lon="6.81751">
        <ele>2153.9711914062</ele>
        <time>2007-08-27T13:09:10Z</time>
      </trkpt>
      <trkpt lat="44.83954" lon="6.81745">
        <ele>2153.009765625</ele>
        <time>2007-08-27T13:09:13Z</time>
      </trkpt>
      <trkpt lat="44.83973" lon="6.81747">
        <ele>2149.6452636719</ele>
        <time>2007-08-27T13:09:20Z</time>
      </trkpt>
      <trkpt lat="44.83982" lon="6.81753">
        <ele>2148.203125</ele>
        <time>2007-08-27T13:09:24Z</time>
      </trkpt>
      <trkpt lat="44.8399" lon="6.81753">
        <ele>2147.72265625</ele>
        <time>2007-08-27T13:09:28Z</time>
      </trkpt>
      <trkpt lat="44.83997" lon="6.81755">
        <ele>2146.2807617188</ele>
        <time>2007-08-27T13:09:34Z</time>
      </trkpt>
      <trkpt lat="44.84001" lon="6.81762">
        <ele>2143.8774414062</ele>
        <time>2007-08-27T13:09:42Z</time>
      </trkpt>
      <trkpt lat="44.8401" lon="6.81766">
        <ele>2141.9548339844</ele>
        <time>2007-08-27T13:09:56Z</time>
      </trkpt>
      <trkpt lat="44.84016" lon="6.81766">
        <ele>2141.9548339844</ele>
        <time>2007-08-27T13:10:09Z</time>
      </trkpt>
      <trkpt lat="44.84027" lon="6.81762">
        <ele>2139.5512695312</ele>
        <time>2007-08-27T13:10:18Z</time>
      </trkpt>
      <trkpt lat="44.84048" lon="6.81755">
        <ele>2136.1867675781</ele>
        <time>2007-08-27T13:10:28Z</time>
      </trkpt>
      <trkpt lat="44.84048" lon="6.8176">
        <ele>2137.1479492188</ele>
        <time>2007-08-27T13:10:42Z</time>
      </trkpt>
      <trkpt lat="44.84061" lon="6.81762">
        <ele>2133.302734375</ele>
        <time>2007-08-27T13:10:53Z</time>
      </trkpt>
      <trkpt lat="44.84063" lon="6.81762">
        <ele>2132.3415527344</ele>
        <time>2007-08-27T13:10:54Z</time>
      </trkpt>
      <trkpt lat="44.84072" lon="6.81764">
        <ele>2129.9382324219</ele>
        <time>2007-08-27T13:10:57Z</time>
      </trkpt>
      <trkpt lat="44.84083" lon="6.81768">
        <ele>2128.015625</ele>
        <time>2007-08-27T13:11:00Z</time>
      </trkpt>
      <trkpt lat="44.84087" lon="6.81775">
        <ele>2126.5737304688</ele>
        <time>2007-08-27T13:11:03Z</time>
      </trkpt>
      <trkpt lat="44.84096" lon="6.81794">
        <ele>2122.7282714844</ele>
        <time>2007-08-27T13:11:09Z</time>
      </trkpt>
      <trkpt lat="44.84098" lon="6.81798">
        <ele>2122.2475585938</ele>
        <time>2007-08-27T13:11:11Z</time>
      </trkpt>
      <trkpt lat="44.84106" lon="6.81796">
        <ele>2120.8056640625</ele>
        <time>2007-08-27T13:11:24Z</time>
      </trkpt>
      <trkpt lat="44.84126" lon="6.81777">
        <ele>2119.8442382812</ele>
        <time>2007-08-27T13:11:38Z</time>
      </trkpt>
      <trkpt lat="44.84151" lon="6.81775">
        <ele>2115.5185546875</ele>
        <time>2007-08-27T13:11:47Z</time>
      </trkpt>
      <trkpt lat="44.84154" lon="6.81772">
        <ele>2115.5185546875</ele>
        <time>2007-08-27T13:11:48Z</time>
      </trkpt>
      <trkpt lat="44.84156" lon="6.81766">
        <ele>2114.5571289062</ele>
        <time>2007-08-27T13:11:52Z</time>
      </trkpt>
      <trkpt lat="44.8416" lon="6.81764">
        <ele>2114.5571289062</ele>
        <time>2007-08-27T13:11:54Z</time>
      </trkpt>
      <trkpt lat="44.84166" lon="6.81753">
        <ele>2113.595703125</ele>
        <time>2007-08-27T13:11:58Z</time>
      </trkpt>
      <trkpt lat="44.84173" lon="6.81745">
        <ele>2112.1538085938</ele>
        <time>2007-08-27T13:12:01Z</time>
      </trkpt>
      <trkpt lat="44.84177" lon="6.81742">
        <ele>2110.7119140625</ele>
        <time>2007-08-27T13:12:04Z</time>
      </trkpt>
      <trkpt lat="44.84186" lon="6.8173">
        <ele>2108.30859375</ele>
        <time>2007-08-27T13:12:13Z</time>
      </trkpt>
      <trkpt lat="44.84194" lon="6.81719">
        <ele>2104.9438476562</ele>
        <time>2007-08-27T13:12:20Z</time>
      </trkpt>
      <trkpt lat="44.84201" lon="6.8171">
        <ele>2103.501953125</ele>
        <time>2007-08-27T13:12:31Z</time>
      </trkpt>
      <trkpt lat="44.84207" lon="6.81704">
        <ele>2102.0598144531</ele>
        <time>2007-08-27T13:12:44Z</time>
      </trkpt>
      <trkpt lat="44.8422" lon="6.81689">
        <ele>2099.1760253906</ele>
        <time>2007-08-27T13:12:52Z</time>
      </trkpt>
      <trkpt lat="44.8422" lon="6.81684">
        <ele>2098.6953125</ele>
        <time>2007-08-27T13:12:53Z</time>
      </trkpt>
      <trkpt lat="44.84229" lon="6.81674">
        <ele>2095.3308105469</ele>
        <time>2007-08-27T13:12:57Z</time>
      </trkpt>
      <trkpt lat="44.84235" lon="6.81669">
        <ele>2092.9274902344</ele>
        <time>2007-08-27T13:13:01Z</time>
      </trkpt>
      <trkpt lat="44.84259" lon="6.81667">
        <ele>2089.5627441406</ele>
        <time>2007-08-27T13:13:08Z</time>
      </trkpt>
      <trkpt lat="44.84272" lon="6.81659">
        <ele>2086.6787109375</ele>
        <time>2007-08-27T13:13:13Z</time>
      </trkpt>
      <trkpt lat="44.84287" lon="6.81657">
        <ele>2082.8334960938</ele>
        <time>2007-08-27T13:13:17Z</time>
      </trkpt>
      <trkpt lat="44.84299" lon="6.81654">
        <ele>2080.4304199219</ele>
        <time>2007-08-27T13:13:21Z</time>
      </trkpt>
      <trkpt lat="44.84302" lon="6.81654">
        <ele>2079.9497070312</ele>
        <time>2007-08-27T13:13:22Z</time>
      </trkpt>
      <trkpt lat="44.84289" lon="6.8171">
        <ele>2077.5463867188</ele>
        <time>2007-08-27T13:13:37Z</time>
      </trkpt>
      <trkpt lat="44.84325" lon="6.81682">
        <ele>2077.5463867188</ele>
        <time>2007-08-27T13:13:50Z</time>
      </trkpt>
      <trkpt lat="44.84327" lon="6.8168">
        <ele>2078.0270996094</ele>
        <time>2007-08-27T13:13:51Z</time>
      </trkpt>
      <trkpt lat="44.84329" lon="6.81678">
        <ele>2078.0270996094</ele>
        <time>2007-08-27T13:13:54Z</time>
      </trkpt>
      <trkpt lat="44.84364" lon="6.81687">
        <ele>2076.1044921875</ele>
        <time>2007-08-27T13:14:09Z</time>
      </trkpt>
      <trkpt lat="44.84417" lon="6.81697">
        <ele>2075.1428222656</ele>
        <time>2007-08-27T13:14:26Z</time>
      </trkpt>
      <trkpt lat="44.84417" lon="6.81687">
        <ele>2074.181640625</ele>
        <time>2007-08-27T13:14:30Z</time>
      </trkpt>
      <trkpt lat="44.84413" lon="6.81678">
        <ele>2074.181640625</ele>
        <time>2007-08-27T13:14:46Z</time>
      </trkpt>
      <trkpt lat="44.84394" lon="6.8168">
        <ele>2073.2204589844</ele>
        <time>2007-08-27T13:15:39Z</time>
      </trkpt>
      <trkpt lat="44.84392" lon="6.8168">
        <ele>2074.6623535156</ele>
        <time>2007-08-27T13:16:03Z</time>
      </trkpt>
      <trkpt lat="44.84396" lon="6.8168">
        <ele>2073.7009277344</ele>
        <time>2007-08-27T13:16:31Z</time>
      </trkpt>
      <trkpt lat="44.84411" lon="6.81635">
        <ele>2072.7397460938</ele>
        <time>2007-08-27T13:16:41Z</time>
      </trkpt>
      <trkpt lat="44.84413" lon="6.81629">
        <ele>2072.7397460938</ele>
        <time>2007-08-27T13:16:42Z</time>
      </trkpt>
      <trkpt lat="44.84445" lon="6.81599">
        <ele>2070.3364257812</ele>
        <time>2007-08-27T13:16:52Z</time>
      </trkpt>
      <trkpt lat="44.84447" lon="6.81597">
        <ele>2069.8557128906</ele>
        <time>2007-08-27T13:16:55Z</time>
      </trkpt>
      <trkpt lat="44.84454" lon="6.81579">
        <ele>2069.3752441406</ele>
        <time>2007-08-27T13:17:01Z</time>
      </trkpt>
      <trkpt lat="44.84447" lon="6.81573">
        <ele>2068.89453125</ele>
        <time>2007-08-27T13:17:14Z</time>
      </trkpt>
      <trkpt lat="44.84447" lon="6.81573">
        <ele>2065.5300292969</ele>
        <time>2007-08-27T13:17:24Z</time>
      </trkpt>
      <trkpt lat="44.84447" lon="6.81573">
        <ele>2069.3752441406</ele>
        <time>2007-08-27T13:17:25Z</time>
      </trkpt>
      <trkpt lat="44.84443" lon="6.81575">
        <ele>2068.89453125</ele>
        <time>2007-08-27T13:18:37Z</time>
      </trkpt>
      <trkpt lat="44.84514" lon="6.81564">
        <ele>2068.4138183594</ele>
        <time>2007-08-27T13:29:19Z</time>
      </trkpt>
      <trkpt lat="44.8446" lon="6.81551">
        <ele>2068.4138183594</ele>
        <time>2007-08-27T13:29:20Z</time>
      </trkpt>
      <trkpt lat="44.84428" lon="6.81566">
        <ele>2068.4138183594</ele>
        <time>2007-08-27T13:29:30Z</time>
      </trkpt>
      <trkpt lat="44.84435" lon="6.81566">
        <ele>2063.6071777344</ele>
        <time>2007-08-27T13:29:32Z</time>
      </trkpt>
      <trkpt lat="44.84432" lon="6.81569">
        <ele>2064.087890625</ele>
        <time>2007-08-27T13:29:43Z</time>
      </trkpt>
      <trkpt lat="44.84439" lon="6.81569">
        <ele>2064.087890625</ele>
        <time>2007-08-27T13:30:15Z</time>
      </trkpt>
      <trkpt lat="44.84432" lon="6.81571">
        <ele>2063.1267089844</ele>
        <time>2007-08-27T13:34:46Z</time>
      </trkpt>
      <trkpt lat="44.84435" lon="6.81575">
        <ele>2063.6071777344</ele>
        <time>2007-08-27T13:34:58Z</time>
      </trkpt>
      <trkpt lat="44.84447" lon="6.81566">
        <ele>2063.6071777344</ele>
        <time>2007-08-27T13:35:06Z</time>
      </trkpt>
      <trkpt lat="44.84462" lon="6.81558">
        <ele>2062.1652832031</ele>
        <time>2007-08-27T13:35:10Z</time>
      </trkpt>
      <trkpt lat="44.84493" lon="6.81551">
        <ele>2061.2041015625</ele>
        <time>2007-08-27T13:35:18Z</time>
      </trkpt>
      <trkpt lat="44.84501" lon="6.8156">
        <ele>2061.6848144531</ele>
        <time>2007-08-27T13:35:21Z</time>
      </trkpt>
      <trkpt lat="44.84514" lon="6.81558">
        <ele>2063.6071777344</ele>
        <time>2007-08-27T13:35:25Z</time>
      </trkpt>
      <trkpt lat="44.84546" lon="6.81521">
        <ele>2064.5686035156</ele>
        <time>2007-08-27T13:35:37Z</time>
      </trkpt>
      <trkpt lat="44.84574" lon="6.81476">
        <ele>2065.0493164062</ele>
        <time>2007-08-27T13:35:51Z</time>
      </trkpt>
      <trkpt lat="44.84598" lon="6.81421">
        <ele>2066.4912109375</ele>
        <time>2007-08-27T13:36:06Z</time>
      </trkpt>
      <trkpt lat="44.84623" lon="6.81365">
        <ele>2066.9719238281</ele>
        <time>2007-08-27T13:36:21Z</time>
      </trkpt>
      <trkpt lat="44.8466" lon="6.81318">
        <ele>2067.4523925781</ele>
        <time>2007-08-27T13:36:35Z</time>
      </trkpt>
      <trkpt lat="44.84703" lon="6.81264">
        <ele>2066.4912109375</ele>
        <time>2007-08-27T13:36:50Z</time>
      </trkpt>
      <trkpt lat="44.84716" lon="6.81249">
        <ele>2065.0493164062</ele>
        <time>2007-08-27T13:36:55Z</time>
      </trkpt>
      <trkpt lat="44.84761" lon="6.81182">
        <ele>2065.0493164062</ele>
        <time>2007-08-27T13:37:12Z</time>
      </trkpt>
      <trkpt lat="44.8478" lon="6.81144">
        <ele>2063.6071777344</ele>
        <time>2007-08-27T13:37:25Z</time>
      </trkpt>
      <trkpt lat="44.84793" lon="6.8112">
        <ele>2061.6848144531</ele>
        <time>2007-08-27T13:38:46Z</time>
      </trkpt>
      <trkpt lat="44.84832" lon="6.8109">
        <ele>2059.76171875</ele>
        <time>2007-08-27T13:39:00Z</time>
      </trkpt>
      <trkpt lat="44.84834" lon="6.81086">
        <ele>2059.28125</ele>
        <time>2007-08-27T13:39:10Z</time>
      </trkpt>
      <trkpt lat="44.84834" lon="6.81084">
        <ele>2059.76171875</ele>
        <time>2007-08-27T13:39:12Z</time>
      </trkpt>
      <trkpt lat="44.84829" lon="6.81094">
        <ele>2059.76171875</ele>
        <time>2007-08-27T13:39:20Z</time>
      </trkpt>
      <trkpt lat="44.84823" lon="6.81092">
        <ele>2060.2426757812</ele>
        <time>2007-08-27T13:39:22Z</time>
      </trkpt>
      <trkpt lat="44.84821" lon="6.81092">
        <ele>2059.76171875</ele>
        <time>2007-08-27T13:39:28Z</time>
      </trkpt>
      <trkpt lat="44.84819" lon="6.81088">
        <ele>2058.3198242188</ele>
        <time>2007-08-27T13:39:39Z</time>
      </trkpt>
      <trkpt lat="44.84817" lon="6.81086">
        <ele>2056.8779296875</ele>
        <time>2007-08-27T13:39:45Z</time>
      </trkpt>
      <trkpt lat="44.84814" lon="6.81084">
        <ele>2055.9165039062</ele>
        <time>2007-08-27T13:39:47Z</time>
      </trkpt>
      <trkpt lat="44.84812" lon="6.81077">
        <ele>2054.9553222656</ele>
        <time>2007-08-27T13:39:51Z</time>
      </trkpt>
      <trkpt lat="44.84806" lon="6.81088">
        <ele>2054.9553222656</ele>
        <time>2007-08-27T13:40:03Z</time>
      </trkpt>
      <trkpt lat="44.84799" lon="6.81092">
        <ele>2054.9553222656</ele>
        <time>2007-08-27T13:40:17Z</time>
      </trkpt>
      <trkpt lat="44.84787" lon="6.81088">
        <ele>2053.0327148438</ele>
        <time>2007-08-27T13:40:29Z</time>
      </trkpt>
      <trkpt lat="44.84787" lon="6.81088">
        <ele>2052.5520019531</ele>
        <time>2007-08-27T13:40:30Z</time>
      </trkpt>
      <trkpt lat="44.84782" lon="6.81084">
        <ele>2051.1101074219</ele>
        <time>2007-08-27T13:40:33Z</time>
      </trkpt>
      <trkpt lat="44.8478" lon="6.81077">
        <ele>2050.6293945312</ele>
        <time>2007-08-27T13:40:38Z</time>
      </trkpt>
      <trkpt lat="44.8478" lon="6.81019">
        <ele>2051.5908203125</ele>
        <time>2007-08-27T13:41:07Z</time>
      </trkpt>
      <trkpt lat="44.8478" lon="6.80996">
        <ele>2054.474609375</ele>
        <time>2007-08-27T13:41:24Z</time>
      </trkpt>
      <trkpt lat="44.84793" lon="6.80968">
        <ele>2051.1101074219</ele>
        <time>2007-08-27T13:41:39Z</time>
      </trkpt>
      <trkpt lat="44.84821" lon="6.80953">
        <ele>2049.1875</ele>
        <time>2007-08-27T13:41:58Z</time>
      </trkpt>
      <trkpt lat="44.84829" lon="6.80957">
        <ele>2048.7067871094</ele>
        <time>2007-08-27T13:42:03Z</time>
      </trkpt>
      <trkpt lat="44.84836" lon="6.80957">
        <ele>2048.2260742188</ele>
        <time>2007-08-27T13:42:08Z</time>
      </trkpt>
      <trkpt lat="44.84842" lon="6.80951">
        <ele>2047.2648925781</ele>
        <time>2007-08-27T13:42:10Z</time>
      </trkpt>
      <trkpt lat="44.84855" lon="6.80925">
        <ele>2046.3037109375</ele>
        <time>2007-08-27T13:42:15Z</time>
      </trkpt>
      <trkpt lat="44.84874" lon="6.80901">
        <ele>2045.8229980469</ele>
        <time>2007-08-27T13:42:25Z</time>
      </trkpt>
      <trkpt lat="44.84909" lon="6.80867">
        <ele>2042.9387207031</ele>
        <time>2007-08-27T13:42:38Z</time>
      </trkpt>
      <trkpt lat="44.84915" lon="6.80861">
        <ele>2039.57421875</ele>
        <time>2007-08-27T13:42:40Z</time>
      </trkpt>
      <trkpt lat="44.84935" lon="6.80839">
        <ele>2036.2097167969</ele>
        <time>2007-08-27T13:42:46Z</time>
      </trkpt>
      <trkpt lat="44.8496" lon="6.80807">
        <ele>2034.287109375</ele>
        <time>2007-08-27T13:42:53Z</time>
      </trkpt>
      <trkpt lat="44.84967" lon="6.80785">
        <ele>2033.3256835938</ele>
        <time>2007-08-27T13:42:56Z</time>
      </trkpt>
      <trkpt lat="44.85005" lon="6.80712">
        <ele>2029.9611816406</ele>
        <time>2007-08-27T13:43:06Z</time>
      </trkpt>
      <trkpt lat="44.85012" lon="6.80697">
        <ele>2029.9611816406</ele>
        <time>2007-08-27T13:43:08Z</time>
      </trkpt>
      <trkpt lat="44.85063" lon="6.80674">
        <ele>2029.48046875</ele>
        <time>2007-08-27T13:43:20Z</time>
      </trkpt>
      <trkpt lat="44.85074" lon="6.80659">
        <ele>2029.48046875</ele>
        <time>2007-08-27T13:43:25Z</time>
      </trkpt>
      <trkpt lat="44.85104" lon="6.80588">
        <ele>2026.1157226562</ele>
        <time>2007-08-27T13:43:40Z</time>
      </trkpt>
      <trkpt lat="44.85106" lon="6.80582">
        <ele>2026.1157226562</ele>
        <time>2007-08-27T13:43:41Z</time>
      </trkpt>
      <trkpt lat="44.85113" lon="6.80564">
        <ele>2024.1931152344</ele>
        <time>2007-08-27T13:43:44Z</time>
      </trkpt>
      <trkpt lat="44.85126" lon="6.80537">
        <ele>2022.7512207031</ele>
        <time>2007-08-27T13:43:49Z</time>
      </trkpt>
      <trkpt lat="44.85158" lon="6.80449">
        <ele>2023.2319335938</ele>
        <time>2007-08-27T13:44:06Z</time>
      </trkpt>
      <trkpt lat="44.85171" lon="6.80378">
        <ele>2022.2705078125</ele>
        <time>2007-08-27T13:44:30Z</time>
      </trkpt>
      <trkpt lat="44.85175" lon="6.80369">
        <ele>2019.8671875</ele>
        <time>2007-08-27T13:44:33Z</time>
      </trkpt>
      <trkpt lat="44.85205" lon="6.80322">
        <ele>2015.5415039062</ele>
        <time>2007-08-27T13:44:46Z</time>
      </trkpt>
      <trkpt lat="44.85222" lon="6.80296">
        <ele>2012.6574707031</ele>
        <time>2007-08-27T13:44:52Z</time>
      </trkpt>
      <trkpt lat="44.85226" lon="6.8029">
        <ele>2012.1767578125</ele>
        <time>2007-08-27T13:44:53Z</time>
      </trkpt>
      <trkpt lat="44.8525" lon="6.80255">
        <ele>2008.3312988281</ele>
        <time>2007-08-27T13:44:59Z</time>
      </trkpt>
      <trkpt lat="44.85259" lon="6.80243">
        <ele>2004.0056152344</ele>
        <time>2007-08-27T13:45:02Z</time>
      </trkpt>
      <trkpt lat="44.85263" lon="6.80238">
        <ele>2004.0056152344</ele>
        <time>2007-08-27T13:45:03Z</time>
      </trkpt>
      <trkpt lat="44.85286" lon="6.80212">
        <ele>2000.6408691406</ele>
        <time>2007-08-27T13:45:09Z</time>
      </trkpt>
      <trkpt lat="44.85312" lon="6.8018">
        <ele>1997.7570800781</ele>
        <time>2007-08-27T13:45:16Z</time>
      </trkpt>
      <trkpt lat="44.85327" lon="6.80165">
        <ele>1995.353515625</ele>
        <time>2007-08-27T13:45:19Z</time>
      </trkpt>
      <trkpt lat="44.85357" lon="6.80129">
        <ele>1991.9890136719</ele>
        <time>2007-08-27T13:45:25Z</time>
      </trkpt>
      <trkpt lat="44.85372" lon="6.80107">
        <ele>1990.546875</ele>
        <time>2007-08-27T13:45:28Z</time>
      </trkpt>
      <trkpt lat="44.85387" lon="6.80088">
        <ele>1989.1049804688</ele>
        <time>2007-08-27T13:45:31Z</time>
      </trkpt>
      <trkpt lat="44.8543" lon="6.80028">
        <ele>1985.7404785156</ele>
        <time>2007-08-27T13:45:39Z</time>
      </trkpt>
      <trkpt lat="44.85439" lon="6.80011">
        <ele>1983.8178710938</ele>
        <time>2007-08-27T13:45:41Z</time>
      </trkpt>
      <trkpt lat="44.8546" lon="6.79972">
        <ele>1983.3371582031</ele>
        <time>2007-08-27T13:45:46Z</time>
      </trkpt>
      <trkpt lat="44.85475" lon="6.79959">
        <ele>1982.8564453125</ele>
        <time>2007-08-27T13:45:49Z</time>
      </trkpt>
      <trkpt lat="44.85501" lon="6.79959">
        <ele>1982.8564453125</ele>
        <time>2007-08-27T13:45:55Z</time>
      </trkpt>
      <trkpt lat="44.85514" lon="6.7997">
        <ele>1980.9340820312</ele>
        <time>2007-08-27T13:46:10Z</time>
      </trkpt>
      <trkpt lat="44.8554" lon="6.79972">
        <ele>1981.4145507812</ele>
        <time>2007-08-27T13:46:22Z</time>
      </trkpt>
      <trkpt lat="44.8555" lon="6.79972">
        <ele>1983.3371582031</ele>
        <time>2007-08-27T13:46:27Z</time>
      </trkpt>
      <trkpt lat="44.85589" lon="6.79981">
        <ele>1986.2211914062</ele>
        <time>2007-08-27T13:46:45Z</time>
      </trkpt>
      <trkpt lat="44.85604" lon="6.79994">
        <ele>1989.1049804688</ele>
        <time>2007-08-27T13:46:56Z</time>
      </trkpt>
      <trkpt lat="44.85615" lon="6.80009">
        <ele>1992.4697265625</ele>
        <time>2007-08-27T13:47:08Z</time>
      </trkpt>
      <trkpt lat="44.85617" lon="6.80011">
        <ele>1992.4697265625</ele>
        <time>2007-08-27T13:47:10Z</time>
      </trkpt>
      <trkpt lat="44.8563" lon="6.80024">
        <ele>1995.353515625</ele>
        <time>2007-08-27T13:47:25Z</time>
      </trkpt>
      <trkpt lat="44.85634" lon="6.80026">
        <ele>1996.3151855469</ele>
        <time>2007-08-27T13:47:29Z</time>
      </trkpt>
      <trkpt lat="44.85641" lon="6.80032">
        <ele>1997.2763671875</ele>
        <time>2007-08-27T13:47:36Z</time>
      </trkpt>
      <trkpt lat="44.85649" lon="6.80041">
        <ele>1998.7182617188</ele>
        <time>2007-08-27T13:47:45Z</time>
      </trkpt>
      <trkpt lat="44.8566" lon="6.80034">
        <ele>1998.7182617188</ele>
        <time>2007-08-27T13:47:53Z</time>
      </trkpt>
      <trkpt lat="44.85681" lon="6.80002">
        <ele>1997.2763671875</ele>
        <time>2007-08-27T13:48:10Z</time>
      </trkpt>
      <trkpt lat="44.85707" lon="6.79976">
        <ele>1995.8342285156</ele>
        <time>2007-08-27T13:48:16Z</time>
      </trkpt>
      <trkpt lat="44.85726" lon="6.79968">
        <ele>1993.9116210938</ele>
        <time>2007-08-27T13:48:19Z</time>
      </trkpt>
      <trkpt lat="44.85737" lon="6.79959">
        <ele>1992.9501953125</ele>
        <time>2007-08-27T13:48:21Z</time>
      </trkpt>
      <trkpt lat="44.85754" lon="6.79938">
        <ele>1992.9501953125</ele>
        <time>2007-08-27T13:48:25Z</time>
      </trkpt>
      <trkpt lat="44.85816" lon="6.79895">
        <ele>1993.9116210938</ele>
        <time>2007-08-27T13:48:41Z</time>
      </trkpt>
      <trkpt lat="44.85866" lon="6.7985">
        <ele>1990.546875</ele>
        <time>2007-08-27T13:48:55Z</time>
      </trkpt>
      <trkpt lat="44.85894" lon="6.79822">
        <ele>1990.546875</ele>
        <time>2007-08-27T13:49:02Z</time>
      </trkpt>
      <trkpt lat="44.85965" lon="6.79779">
        <ele>1987.6630859375</ele>
        <time>2007-08-27T13:49:18Z</time>
      </trkpt>
      <trkpt lat="44.85969" lon="6.79777">
        <ele>1987.6630859375</ele>
        <time>2007-08-27T13:49:19Z</time>
      </trkpt>
      <trkpt lat="44.85986" lon="6.79777">
        <ele>1987.1823730469</ele>
        <time>2007-08-27T13:49:23Z</time>
      </trkpt>
      <trkpt lat="44.86053" lon="6.79743">
        <ele>1986.2211914062</ele>
        <time>2007-08-27T13:49:37Z</time>
      </trkpt>
      <trkpt lat="44.86089" lon="6.79715">
        <ele>1983.8178710938</ele>
        <time>2007-08-27T13:49:43Z</time>
      </trkpt>
      <trkpt lat="44.86102" lon="6.79702">
        <ele>1983.3371582031</ele>
        <time>2007-08-27T13:49:45Z</time>
      </trkpt>
      <trkpt lat="44.86123" lon="6.79674">
        <ele>1982.3759765625</ele>
        <time>2007-08-27T13:49:49Z</time>
      </trkpt>
      <trkpt lat="44.86168" lon="6.79614">
        <ele>1981.4145507812</ele>
        <time>2007-08-27T13:49:59Z</time>
      </trkpt>
      <trkpt lat="44.86226" lon="6.79528">
        <ele>1979.0109863281</ele>
        <time>2007-08-27T13:50:14Z</time>
      </trkpt>
      <trkpt lat="44.86289" lon="6.79419">
        <ele>1976.1271972656</ele>
        <time>2007-08-27T13:50:30Z</time>
      </trkpt>
      <trkpt lat="44.86295" lon="6.79399">
        <ele>1975.1657714844</ele>
        <time>2007-08-27T13:50:32Z</time>
      </trkpt>
      <trkpt lat="44.86301" lon="6.79382">
        <ele>1973.2434082031</ele>
        <time>2007-08-27T13:50:34Z</time>
      </trkpt>
      <trkpt lat="44.8631" lon="6.79363">
        <ele>1972.2819824219</ele>
        <time>2007-08-27T13:50:36Z</time>
      </trkpt>
      <trkpt lat="44.86364" lon="6.79266">
        <ele>1968.4367675781</ele>
        <time>2007-08-27T13:50:47Z</time>
      </trkpt>
      <trkpt lat="44.8637" lon="6.79258">
        <ele>1968.9174804688</ele>
        <time>2007-08-27T13:50:48Z</time>
      </trkpt>
      <trkpt lat="44.86383" lon="6.7924">
        <ele>1965.5529785156</ele>
        <time>2007-08-27T13:50:50Z</time>
      </trkpt>
      <trkpt lat="44.86392" lon="6.79232">
        <ele>1965.5529785156</ele>
        <time>2007-08-27T13:50:51Z</time>
      </trkpt>
      <trkpt lat="44.86398" lon="6.79223">
        <ele>1965.072265625</ele>
        <time>2007-08-27T13:50:52Z</time>
      </trkpt>
      <trkpt lat="44.86411" lon="6.79202">
        <ele>1964.1108398438</ele>
        <time>2007-08-27T13:50:54Z</time>
      </trkpt>
      <trkpt lat="44.86434" lon="6.79155">
        <ele>1961.2268066406</ele>
        <time>2007-08-27T13:50:58Z</time>
      </trkpt>
      <trkpt lat="44.86462" lon="6.79103">
        <ele>1957.3815917969</ele>
        <time>2007-08-27T13:51:02Z</time>
      </trkpt>
      <trkpt lat="44.86465" lon="6.79049">
        <ele>1955.458984375</ele>
        <time>2007-08-27T13:51:06Z</time>
      </trkpt>
      <trkpt lat="44.86458" lon="6.7903">
        <ele>1954.0170898438</ele>
        <time>2007-08-27T13:51:08Z</time>
      </trkpt>
      <trkpt lat="44.86454" lon="6.79017">
        <ele>1953.0556640625</ele>
        <time>2007-08-27T13:51:10Z</time>
      </trkpt>
      <trkpt lat="44.86454" lon="6.78959">
        <ele>1951.1330566406</ele>
        <time>2007-08-27T13:51:21Z</time>
      </trkpt>
      <trkpt lat="44.86469" lon="6.78936">
        <ele>1950.171875</ele>
        <time>2007-08-27T13:51:27Z</time>
      </trkpt>
      <trkpt lat="44.86535" lon="6.78869">
        <ele>1948.7297363281</ele>
        <time>2007-08-27T13:51:43Z</time>
      </trkpt>
      <trkpt lat="44.86578" lon="6.78833">
        <ele>1945.3649902344</ele>
        <time>2007-08-27T13:51:50Z</time>
      </trkpt>
      <trkpt lat="44.86613" lon="6.7879">
        <ele>1941.5197753906</ele>
        <time>2007-08-27T13:51:55Z</time>
      </trkpt>
      <trkpt lat="44.86619" lon="6.78781">
        <ele>1941.0390625</ele>
        <time>2007-08-27T13:51:56Z</time>
      </trkpt>
      <trkpt lat="44.86673" lon="6.78721">
        <ele>1937.6745605469</ele>
        <time>2007-08-27T13:52:03Z</time>
      </trkpt>
      <trkpt lat="44.86679" lon="6.78713">
        <ele>1937.6745605469</ele>
        <time>2007-08-27T13:52:04Z</time>
      </trkpt>
      <trkpt lat="44.86707" lon="6.78683">
        <ele>1936.2326660156</ele>
        <time>2007-08-27T13:52:08Z</time>
      </trkpt>
      <trkpt lat="44.86763" lon="6.78603">
        <ele>1932.3874511719</ele>
        <time>2007-08-27T13:52:18Z</time>
      </trkpt>
      <trkpt lat="44.86786" lon="6.78556">
        <ele>1931.42578125</ele>
        <time>2007-08-27T13:52:23Z</time>
      </trkpt>
      <trkpt lat="44.86866" lon="6.78472">
        <ele>1928.5419921875</ele>
        <time>2007-08-27T13:52:35Z</time>
      </trkpt>
      <trkpt lat="44.86902" lon="6.78432">
        <ele>1925.6579589844</ele>
        <time>2007-08-27T13:52:40Z</time>
      </trkpt>
      <trkpt lat="44.86941" lon="6.78393">
        <ele>1923.2548828125</ele>
        <time>2007-08-27T13:52:45Z</time>
      </trkpt>
      <trkpt lat="44.86984" lon="6.78359">
        <ele>1921.33203125</ele>
        <time>2007-08-27T13:52:50Z</time>
      </trkpt>
      <trkpt lat="44.87012" lon="6.78322">
        <ele>1920.8515625</ele>
        <time>2007-08-27T13:52:54Z</time>
      </trkpt>
      <trkpt lat="44.87082" lon="6.78185">
        <ele>1917.4868164062</ele>
        <time>2007-08-27T13:53:09Z</time>
      </trkpt>
      <trkpt lat="44.87125" lon="6.78105">
        <ele>1914.1220703125</ele>
        <time>2007-08-27T13:53:19Z</time>
      </trkpt>
      <trkpt lat="44.87138" lon="6.78082">
        <ele>1912.1994628906</ele>
        <time>2007-08-27T13:53:22Z</time>
      </trkpt>
      <trkpt lat="44.87211" lon="6.77944">
        <ele>1910.7575683594</ele>
        <time>2007-08-27T13:53:41Z</time>
      </trkpt>
      <trkpt lat="44.87269" lon="6.77839">
        <ele>1908.8349609375</ele>
        <time>2007-08-27T13:53:57Z</time>
      </trkpt>
      <trkpt lat="44.87321" lon="6.77747">
        <ele>1906.431640625</ele>
        <time>2007-08-27T13:54:14Z</time>
      </trkpt>
      <trkpt lat="44.87372" lon="6.77657">
        <ele>1905.4704589844</ele>
        <time>2007-08-27T13:54:32Z</time>
      </trkpt>
      <trkpt lat="44.87387" lon="6.77627">
        <ele>1905.4704589844</ele>
        <time>2007-08-27T13:54:38Z</time>
      </trkpt>
      <trkpt lat="44.87394" lon="6.77601">
        <ele>1904.5090332031</ele>
        <time>2007-08-27T13:54:43Z</time>
      </trkpt>
      <trkpt lat="44.87398" lon="6.77528">
        <ele>1904.5090332031</ele>
        <time>2007-08-27T13:54:58Z</time>
      </trkpt>
      <trkpt lat="44.874" lon="6.77412">
        <ele>1903.5478515625</ele>
        <time>2007-08-27T13:55:17Z</time>
      </trkpt>
      <trkpt lat="44.87402" lon="6.77389">
        <ele>1903.0671386719</ele>
        <time>2007-08-27T13:55:21Z</time>
      </trkpt>
      <trkpt lat="44.87404" lon="6.7735">
        <ele>1903.0671386719</ele>
        <time>2007-08-27T13:55:28Z</time>
      </trkpt>
      <trkpt lat="44.87413" lon="6.77234">
        <ele>1902.5864257812</ele>
        <time>2007-08-27T13:55:48Z</time>
      </trkpt>
      <trkpt lat="44.87415" lon="6.77217">
        <ele>1901.14453125</ele>
        <time>2007-08-27T13:55:51Z</time>
      </trkpt>
      <trkpt lat="44.87415" lon="6.772">
        <ele>1901.14453125</ele>
        <time>2007-08-27T13:55:54Z</time>
      </trkpt>
      <trkpt lat="44.87419" lon="6.77178">
        <ele>1901.6252441406</ele>
        <time>2007-08-27T13:55:58Z</time>
      </trkpt>
      <trkpt lat="44.87447" lon="6.7706">
        <ele>1900.1833496094</ele>
        <time>2007-08-27T13:56:17Z</time>
      </trkpt>
      <trkpt lat="44.87471" lon="6.76972">
        <ele>1899.7023925781</ele>
        <time>2007-08-27T13:56:32Z</time>
      </trkpt>
      <trkpt lat="44.87473" lon="6.76955">
        <ele>1899.7023925781</ele>
        <time>2007-08-27T13:56:35Z</time>
      </trkpt>
      <trkpt lat="44.87479" lon="6.76932">
        <ele>1899.7023925781</ele>
        <time>2007-08-27T13:56:39Z</time>
      </trkpt>
      <trkpt lat="44.87482" lon="6.76919">
        <ele>1899.7023925781</ele>
        <time>2007-08-27T13:56:41Z</time>
      </trkpt>
      <trkpt lat="44.87509" lon="6.76775">
        <ele>1898.2602539062</ele>
        <time>2007-08-27T13:57:04Z</time>
      </trkpt>
      <trkpt lat="44.87525" lon="6.76676">
        <ele>1897.7797851562</ele>
        <time>2007-08-27T13:57:19Z</time>
      </trkpt>
      <trkpt lat="44.87535" lon="6.76563">
        <ele>1897.2990722656</ele>
        <time>2007-08-27T13:57:35Z</time>
      </trkpt>
      <trkpt lat="44.87552" lon="6.76406">
        <ele>1896.337890625</ele>
        <time>2007-08-27T13:57:55Z</time>
      </trkpt>
      <trkpt lat="44.87567" lon="6.76243">
        <ele>1894.8957519531</ele>
        <time>2007-08-27T13:58:16Z</time>
      </trkpt>
      <trkpt lat="44.87585" lon="6.7608">
        <ele>1892.9731445312</ele>
        <time>2007-08-27T13:58:36Z</time>
      </trkpt>
      <trkpt lat="44.87606" lon="6.75925">
        <ele>1891.53125</ele>
        <time>2007-08-27T13:58:54Z</time>
      </trkpt>
      <trkpt lat="44.87643" lon="6.75773">
        <ele>1889.6086425781</ele>
        <time>2007-08-27T13:59:13Z</time>
      </trkpt>
      <trkpt lat="44.87681" lon="6.75601">
        <ele>1888.6474609375</ele>
        <time>2007-08-27T13:59:34Z</time>
      </trkpt>
      <trkpt lat="44.87724" lon="6.75404">
        <ele>1888.6474609375</ele>
        <time>2007-08-27T13:59:58Z</time>
      </trkpt>
      <trkpt lat="44.87743" lon="6.75324">
        <ele>1888.6474609375</ele>
        <time>2007-08-27T14:00:08Z</time>
      </trkpt>
      <trkpt lat="44.87769" lon="6.75318">
        <ele>1888.6474609375</ele>
        <time>2007-08-27T14:00:14Z</time>
      </trkpt>
      <trkpt lat="44.87797" lon="6.75333">
        <ele>1889.1279296875</ele>
        <time>2007-08-27T14:00:21Z</time>
      </trkpt>
      <trkpt lat="44.87799" lon="6.75329">
        <ele>1889.6086425781</ele>
        <time>2007-08-27T14:00:22Z</time>
      </trkpt>
      <trkpt lat="44.87833" lon="6.75277">
        <ele>1892.4926757812</ele>
        <time>2007-08-27T14:00:38Z</time>
      </trkpt>
      <trkpt lat="44.87842" lon="6.75215">
        <ele>1894.4150390625</ele>
        <time>2007-08-27T14:00:55Z</time>
      </trkpt>
      <trkpt lat="44.87853" lon="6.75155">
        <ele>1896.818359375</ele>
        <time>2007-08-27T14:01:12Z</time>
      </trkpt>
      <trkpt lat="44.87864" lon="6.75088">
        <ele>1898.2602539062</ele>
        <time>2007-08-27T14:01:30Z</time>
      </trkpt>
      <trkpt lat="44.87864" lon="6.75028">
        <ele>1899.2216796875</ele>
        <time>2007-08-27T14:01:46Z</time>
      </trkpt>
      <trkpt lat="44.87874" lon="6.74966">
        <ele>1902.1057128906</ele>
        <time>2007-08-27T14:02:03Z</time>
      </trkpt>
      <trkpt lat="44.87879" lon="6.74906">
        <ele>1904.0285644531</ele>
        <time>2007-08-27T14:02:18Z</time>
      </trkpt>
      <trkpt lat="44.87902" lon="6.7487">
        <ele>1904.9897460938</ele>
        <time>2007-08-27T14:02:31Z</time>
      </trkpt>
      <trkpt lat="44.87921" lon="6.74848">
        <ele>1906.9123535156</ele>
        <time>2007-08-27T14:02:39Z</time>
      </trkpt>
      <trkpt lat="44.87926" lon="6.74792">
        <ele>1907.3930664062</ele>
        <time>2007-08-27T14:02:53Z</time>
      </trkpt>
      <trkpt lat="44.87902" lon="6.74743">
        <ele>1909.7961425781</ele>
        <time>2007-08-27T14:03:09Z</time>
      </trkpt>
      <trkpt lat="44.87861" lon="6.74698">
        <ele>1912.1994628906</ele>
        <time>2007-08-27T14:03:28Z</time>
      </trkpt>
      <trkpt lat="44.87825" lon="6.74657">
        <ele>1912.6801757812</ele>
        <time>2007-08-27T14:03:44Z</time>
      </trkpt>
      <trkpt lat="44.87821" lon="6.74603">
        <ele>1912.6801757812</ele>
        <time>2007-08-27T14:03:56Z</time>
      </trkpt>
      <trkpt lat="44.87823" lon="6.74586">
        <ele>1912.1994628906</ele>
        <time>2007-08-27T14:04:00Z</time>
      </trkpt>
      <trkpt lat="44.87829" lon="6.7458">
        <ele>1912.1994628906</ele>
        <time>2007-08-27T14:04:04Z</time>
      </trkpt>
      <trkpt lat="44.87831" lon="6.74571">
        <ele>1911.23828125</ele>
        <time>2007-08-27T14:04:07Z</time>
      </trkpt>
      <trkpt lat="44.87827" lon="6.74548">
        <ele>1912.1994628906</ele>
        <time>2007-08-27T14:04:18Z</time>
      </trkpt>
      <trkpt lat="44.87836" lon="6.74485">
        <ele>1911.7189941406</ele>
        <time>2007-08-27T14:04:32Z</time>
      </trkpt>
      <trkpt lat="44.87825" lon="6.74425">
        <ele>1911.23828125</ele>
        <time>2007-08-27T14:04:45Z</time>
      </trkpt>
      <trkpt lat="44.87825" lon="6.74421">
        <ele>1911.23828125</ele>
        <time>2007-08-27T14:04:46Z</time>
      </trkpt>
      <trkpt lat="44.87825" lon="6.74408">
        <ele>1910.7575683594</ele>
        <time>2007-08-27T14:04:48Z</time>
      </trkpt>
      <trkpt lat="44.87827" lon="6.74389">
        <ele>1908.8349609375</ele>
        <time>2007-08-27T14:04:51Z</time>
      </trkpt>
      <trkpt lat="44.87836" lon="6.7432">
        <ele>1905.4704589844</ele>
        <time>2007-08-27T14:04:59Z</time>
      </trkpt>
      <trkpt lat="44.87836" lon="6.74303">
        <ele>1904.9897460938</ele>
        <time>2007-08-27T14:05:01Z</time>
      </trkpt>
      <trkpt lat="44.87831" lon="6.74282">
        <ele>1904.5090332031</ele>
        <time>2007-08-27T14:05:04Z</time>
      </trkpt>
      <trkpt lat="44.87827" lon="6.74269">
        <ele>1904.0285644531</ele>
        <time>2007-08-27T14:05:06Z</time>
      </trkpt>
      <trkpt lat="44.87814" lon="6.74224">
        <ele>1901.14453125</ele>
        <time>2007-08-27T14:05:15Z</time>
      </trkpt>
      <trkpt lat="44.8781" lon="6.74206">
        <ele>1899.7023925781</ele>
        <time>2007-08-27T14:05:19Z</time>
      </trkpt>
      <trkpt lat="44.87801" lon="6.74189">
        <ele>1896.337890625</ele>
        <time>2007-08-27T14:05:23Z</time>
      </trkpt>
      <trkpt lat="44.87799" lon="6.74183">
        <ele>1896.337890625</ele>
        <time>2007-08-27T14:05:24Z</time>
      </trkpt>
      <trkpt lat="44.87788" lon="6.74174">
        <ele>1894.8957519531</ele>
        <time>2007-08-27T14:05:26Z</time>
      </trkpt>
      <trkpt lat="44.87754" lon="6.74149">
        <ele>1893.4538574219</ele>
        <time>2007-08-27T14:05:33Z</time>
      </trkpt>
      <trkpt lat="44.87726" lon="6.74138">
        <ele>1890.0893554688</ele>
        <time>2007-08-27T14:05:38Z</time>
      </trkpt>
      <trkpt lat="44.8772" lon="6.74136">
        <ele>1889.1279296875</ele>
        <time>2007-08-27T14:05:39Z</time>
      </trkpt>
      <trkpt lat="44.87705" lon="6.74138">
        <ele>1884.8022460938</ele>
        <time>2007-08-27T14:05:42Z</time>
      </trkpt>
      <trkpt lat="44.87694" lon="6.74144">
        <ele>1884.3215332031</ele>
        <time>2007-08-27T14:05:44Z</time>
      </trkpt>
      <trkpt lat="44.87683" lon="6.74164">
        <ele>1880.9567871094</ele>
        <time>2007-08-27T14:05:48Z</time>
      </trkpt>
      <trkpt lat="44.87692" lon="6.74189">
        <ele>1876.630859375</ele>
        <time>2007-08-27T14:05:52Z</time>
      </trkpt>
      <trkpt lat="44.87692" lon="6.74204">
        <ele>1874.7082519531</ele>
        <time>2007-08-27T14:05:55Z</time>
      </trkpt>
      <trkpt lat="44.87679" lon="6.74217">
        <ele>1871.3435058594</ele>
        <time>2007-08-27T14:05:59Z</time>
      </trkpt>
      <trkpt lat="44.87666" lon="6.74213">
        <ele>1871.3435058594</ele>
        <time>2007-08-27T14:06:01Z</time>
      </trkpt>
      <trkpt lat="44.87643" lon="6.74189">
        <ele>1869.9016113281</ele>
        <time>2007-08-27T14:06:07Z</time>
      </trkpt>
      <trkpt lat="44.87632" lon="6.74159">
        <ele>1865.5756835938</ele>
        <time>2007-08-27T14:06:12Z</time>
      </trkpt>
      <trkpt lat="44.8763" lon="6.74153">
        <ele>1864.6142578125</ele>
        <time>2007-08-27T14:06:13Z</time>
      </trkpt>
      <trkpt lat="44.87628" lon="6.7414">
        <ele>1862.2109375</ele>
        <time>2007-08-27T14:06:15Z</time>
      </trkpt>
      <trkpt lat="44.87619" lon="6.74116">
        <ele>1856.923828125</ele>
        <time>2007-08-27T14:06:19Z</time>
      </trkpt>
      <trkpt lat="44.87615" lon="6.74103">
        <ele>1855.9624023438</ele>
        <time>2007-08-27T14:06:21Z</time>
      </trkpt>
      <trkpt lat="44.87617" lon="6.7408">
        <ele>1854.5205078125</ele>
        <time>2007-08-27T14:06:24Z</time>
      </trkpt>
      <trkpt lat="44.87621" lon="6.74065">
        <ele>1853.5593261719</ele>
        <time>2007-08-27T14:06:26Z</time>
      </trkpt>
      <trkpt lat="44.87625" lon="6.74033">
        <ele>1848.2717285156</ele>
        <time>2007-08-27T14:06:30Z</time>
      </trkpt>
      <trkpt lat="44.87628" lon="6.74007">
        <ele>1844.9072265625</ele>
        <time>2007-08-27T14:06:33Z</time>
      </trkpt>
      <trkpt lat="44.87625" lon="6.7399">
        <ele>1843.9460449219</ele>
        <time>2007-08-27T14:06:35Z</time>
      </trkpt>
      <trkpt lat="44.87621" lon="6.7397">
        <ele>1842.9846191406</ele>
        <time>2007-08-27T14:06:37Z</time>
      </trkpt>
      <trkpt lat="44.87608" lon="6.73947">
        <ele>1840.1008300781</ele>
        <time>2007-08-27T14:06:41Z</time>
      </trkpt>
      <trkpt lat="44.87602" lon="6.73947">
        <ele>1839.1394042969</ele>
        <time>2007-08-27T14:06:50Z</time>
      </trkpt>
      <trkpt lat="44.876" lon="6.73945">
        <ele>1837.6975097656</ele>
        <time>2007-08-27T14:07:13Z</time>
      </trkpt>
      <trkpt lat="44.87604" lon="6.73973">
        <ele>1835.7746582031</ele>
        <time>2007-08-27T14:07:19Z</time>
      </trkpt>
      <trkpt lat="44.87606" lon="6.73985">
        <ele>1834.8134765625</ele>
        <time>2007-08-27T14:07:21Z</time>
      </trkpt>
      <trkpt lat="44.87606" lon="6.74007">
        <ele>1831.4487304688</ele>
        <time>2007-08-27T14:07:24Z</time>
      </trkpt>
      <trkpt lat="44.87597" lon="6.7402">
        <ele>1830.0068359375</ele>
        <time>2007-08-27T14:07:26Z</time>
      </trkpt>
      <trkpt lat="44.87582" lon="6.74028">
        <ele>1829.0454101562</ele>
        <time>2007-08-27T14:07:28Z</time>
      </trkpt>
      <trkpt lat="44.8755" lon="6.74013">
        <ele>1826.6423339844</ele>
        <time>2007-08-27T14:07:34Z</time>
      </trkpt>
      <trkpt lat="44.87533" lon="6.7399">
        <ele>1820.8745117188</ele>
        <time>2007-08-27T14:07:38Z</time>
      </trkpt>
      <trkpt lat="44.87501" lon="6.73973">
        <ele>1815.1064453125</ele>
        <time>2007-08-27T14:07:43Z</time>
      </trkpt>
      <trkpt lat="44.87482" lon="6.73964">
        <ele>1812.703125</ele>
        <time>2007-08-27T14:07:46Z</time>
      </trkpt>
      <trkpt lat="44.87464" lon="6.73968">
        <ele>1809.8190917969</ele>
        <time>2007-08-27T14:07:50Z</time>
      </trkpt>
      <trkpt lat="44.87441" lon="6.73988">
        <ele>1805.4934082031</ele>
        <time>2007-08-27T14:07:55Z</time>
      </trkpt>
      <trkpt lat="44.8743" lon="6.73996">
        <ele>1804.0515136719</ele>
        <time>2007-08-27T14:07:57Z</time>
      </trkpt>
      <trkpt lat="44.87411" lon="6.74005">
        <ele>1799.2446289062</ele>
        <time>2007-08-27T14:08:01Z</time>
      </trkpt>
      <trkpt lat="44.87391" lon="6.73992">
        <ele>1797.3220214844</ele>
        <time>2007-08-27T14:08:04Z</time>
      </trkpt>
      <trkpt lat="44.8737" lon="6.73943">
        <ele>1793.9575195312</ele>
        <time>2007-08-27T14:08:10Z</time>
      </trkpt>
      <trkpt lat="44.8737" lon="6.73934">
        <ele>1792.99609375</ele>
        <time>2007-08-27T14:08:11Z</time>
      </trkpt>
      <trkpt lat="44.8737" lon="6.73917">
        <ele>1792.515625</ele>
        <time>2007-08-27T14:08:13Z</time>
      </trkpt>
      <trkpt lat="44.87372" lon="6.73891">
        <ele>1790.1123046875</ele>
        <time>2007-08-27T14:08:16Z</time>
      </trkpt>
      <trkpt lat="44.87385" lon="6.7381">
        <ele>1788.6704101562</ele>
        <time>2007-08-27T14:08:24Z</time>
      </trkpt>
      <trkpt lat="44.87381" lon="6.73792">
        <ele>1788.6704101562</ele>
        <time>2007-08-27T14:08:26Z</time>
      </trkpt>
      <trkpt lat="44.87368" lon="6.73739">
        <ele>1788.1896972656</ele>
        <time>2007-08-27T14:08:35Z</time>
      </trkpt>
      <trkpt lat="44.87372" lon="6.73715">
        <ele>1786.7473144531</ele>
        <time>2007-08-27T14:08:44Z</time>
      </trkpt>
      <trkpt lat="44.87366" lon="6.73711">
        <ele>1786.2668457031</ele>
        <time>2007-08-27T14:09:19Z</time>
      </trkpt>
      <trkpt lat="44.87366" lon="6.73696">
        <ele>1785.3054199219</ele>
        <time>2007-08-27T14:09:23Z</time>
      </trkpt>
      <trkpt lat="44.87361" lon="6.73657">
        <ele>1783.8635253906</ele>
        <time>2007-08-27T14:09:28Z</time>
      </trkpt>
      <trkpt lat="44.87346" lon="6.73604">
        <ele>1780.0183105469</ele>
        <time>2007-08-27T14:09:34Z</time>
      </trkpt>
      <trkpt lat="44.87344" lon="6.73595">
        <ele>1778.5764160156</ele>
        <time>2007-08-27T14:09:35Z</time>
      </trkpt>
      <trkpt lat="44.87334" lon="6.7355">
        <ele>1775.2116699219</ele>
        <time>2007-08-27T14:09:40Z</time>
      </trkpt>
      <trkpt lat="44.87329" lon="6.73518">
        <ele>1772.3278808594</ele>
        <time>2007-08-27T14:09:44Z</time>
      </trkpt>
      <trkpt lat="44.87327" lon="6.73509">
        <ele>1771.3662109375</ele>
        <time>2007-08-27T14:09:45Z</time>
      </trkpt>
      <trkpt lat="44.87329" lon="6.73481">
        <ele>1767.0405273438</ele>
        <time>2007-08-27T14:09:50Z</time>
      </trkpt>
      <trkpt lat="44.87331" lon="6.73475">
        <ele>1767.0405273438</ele>
        <time>2007-08-27T14:09:51Z</time>
      </trkpt>
      <trkpt lat="44.87334" lon="6.7347">
        <ele>1766.5598144531</ele>
        <time>2007-08-27T14:09:52Z</time>
      </trkpt>
      <trkpt lat="44.87346" lon="6.73496">
        <ele>1766.0791015625</ele>
        <time>2007-08-27T14:09:59Z</time>
      </trkpt>
      <trkpt lat="44.87346" lon="6.73501">
        <ele>1765.5986328125</ele>
        <time>2007-08-27T14:10:00Z</time>
      </trkpt>
      <trkpt lat="44.87357" lon="6.73531">
        <ele>1761.7534179688</ele>
        <time>2007-08-27T14:10:05Z</time>
      </trkpt>
      <trkpt lat="44.87364" lon="6.73556">
        <ele>1760.3112792969</ele>
        <time>2007-08-27T14:10:08Z</time>
      </trkpt>
      <trkpt lat="44.87381" lon="6.73552">
        <ele>1757.4274902344</ele>
        <time>2007-08-27T14:10:14Z</time>
      </trkpt>
      <trkpt lat="44.87381" lon="6.73546">
        <ele>1756.9467773438</ele>
        <time>2007-08-27T14:10:15Z</time>
      </trkpt>
      <trkpt lat="44.87379" lon="6.73509">
        <ele>1752.1398925781</ele>
        <time>2007-08-27T14:10:20Z</time>
      </trkpt>
      <trkpt lat="44.87374" lon="6.73498">
        <ele>1750.6979980469</ele>
        <time>2007-08-27T14:10:22Z</time>
      </trkpt>
      <trkpt lat="44.87379" lon="6.73479">
        <ele>1746.8527832031</ele>
        <time>2007-08-27T14:10:26Z</time>
      </trkpt>
      <trkpt lat="44.87404" lon="6.73445">
        <ele>1742.0463867188</ele>
        <time>2007-08-27T14:10:33Z</time>
      </trkpt>
      <trkpt lat="44.87406" lon="6.73428">
        <ele>1739.6428222656</ele>
        <time>2007-08-27T14:10:35Z</time>
      </trkpt>
      <trkpt lat="44.87409" lon="6.7341">
        <ele>1737.2395019531</ele>
        <time>2007-08-27T14:10:37Z</time>
      </trkpt>
      <trkpt lat="44.87411" lon="6.734">
        <ele>1735.7976074219</ele>
        <time>2007-08-27T14:10:38Z</time>
      </trkpt>
      <trkpt lat="44.87406" lon="6.73365">
        <ele>1731.4716796875</ele>
        <time>2007-08-27T14:10:41Z</time>
      </trkpt>
      <trkpt lat="44.87404" lon="6.7334">
        <ele>1730.0297851562</ele>
        <time>2007-08-27T14:10:43Z</time>
      </trkpt>
      <trkpt lat="44.874" lon="6.73312">
        <ele>1727.1459960938</ele>
        <time>2007-08-27T14:10:45Z</time>
      </trkpt>
      <trkpt lat="44.87396" lon="6.73301">
        <ele>1726.1845703125</ele>
        <time>2007-08-27T14:10:46Z</time>
      </trkpt>
      <trkpt lat="44.87385" lon="6.73262">
        <ele>1722.8198242188</ele>
        <time>2007-08-27T14:10:50Z</time>
      </trkpt>
      <trkpt lat="44.87376" lon="6.73209">
        <ele>1718.0131835938</ele>
        <time>2007-08-27T14:10:54Z</time>
      </trkpt>
      <trkpt lat="44.87366" lon="6.73177">
        <ele>1715.1293945312</ele>
        <time>2007-08-27T14:10:57Z</time>
      </trkpt>
      <trkpt lat="44.87364" lon="6.73166">
        <ele>1714.16796875</ele>
        <time>2007-08-27T14:10:59Z</time>
      </trkpt>
      <trkpt lat="44.87366" lon="6.73164">
        <ele>1712.2453613281</ele>
        <time>2007-08-27T14:11:08Z</time>
      </trkpt>
      <trkpt lat="44.87359" lon="6.73164">
        <ele>1713.2067871094</ele>
        <time>2007-08-27T14:11:35Z</time>
      </trkpt>
      <trkpt lat="44.87349" lon="6.73138">
        <ele>1710.8034667969</ele>
        <time>2007-08-27T14:11:43Z</time>
      </trkpt>
      <trkpt lat="44.87334" lon="6.73116">
        <ele>1708.4001464844</ele>
        <time>2007-08-27T14:11:47Z</time>
      </trkpt>
      <trkpt lat="44.87323" lon="6.73104">
        <ele>1707.9194335938</ele>
        <time>2007-08-27T14:11:49Z</time>
      </trkpt>
      <trkpt lat="44.87293" lon="6.73054">
        <ele>1703.1127929688</ele>
        <time>2007-08-27T14:11:55Z</time>
      </trkpt>
      <trkpt lat="44.87284" lon="6.73041">
        <ele>1702.1513671875</ele>
        <time>2007-08-27T14:11:57Z</time>
      </trkpt>
      <trkpt lat="44.87282" lon="6.73035">
        <ele>1701.1901855469</ele>
        <time>2007-08-27T14:11:58Z</time>
      </trkpt>
      <trkpt lat="44.87269" lon="6.73018">
        <ele>1699.267578125</ele>
        <time>2007-08-27T14:12:01Z</time>
      </trkpt>
      <trkpt lat="44.87265" lon="6.73011">
        <ele>1698.3061523438</ele>
        <time>2007-08-27T14:12:02Z</time>
      </trkpt>
      <trkpt lat="44.8725" lon="6.72996">
        <ele>1697.3449707031</ele>
        <time>2007-08-27T14:12:05Z</time>
      </trkpt>
      <trkpt lat="44.87224" lon="6.72951">
        <ele>1694.9416503906</ele>
        <time>2007-08-27T14:12:13Z</time>
      </trkpt>
      <trkpt lat="44.87218" lon="6.72921">
        <ele>1692.5385742188</ele>
        <time>2007-08-27T14:12:16Z</time>
      </trkpt>
      <trkpt lat="44.872" lon="6.72876">
        <ele>1690.1350097656</ele>
        <time>2007-08-27T14:12:20Z</time>
      </trkpt>
      <trkpt lat="44.87177" lon="6.72818">
        <ele>1687.2509765625</ele>
        <time>2007-08-27T14:12:25Z</time>
      </trkpt>
      <trkpt lat="44.87162" lon="6.72777">
        <ele>1683.8864746094</ele>
        <time>2007-08-27T14:12:29Z</time>
      </trkpt>
      <trkpt lat="44.87158" lon="6.72767">
        <ele>1683.4057617188</ele>
        <time>2007-08-27T14:12:30Z</time>
      </trkpt>
      <trkpt lat="44.87134" lon="6.72715">
        <ele>1680.0412597656</ele>
        <time>2007-08-27T14:12:36Z</time>
      </trkpt>
      <trkpt lat="44.87119" lon="6.72689">
        <ele>1677.6379394531</ele>
        <time>2007-08-27T14:12:39Z</time>
      </trkpt>
      <trkpt lat="44.87082" lon="6.72651">
        <ele>1674.2731933594</ele>
        <time>2007-08-27T14:12:44Z</time>
      </trkpt>
      <trkpt lat="44.87044" lon="6.72599">
        <ele>1671.8698730469</ele>
        <time>2007-08-27T14:12:50Z</time>
      </trkpt>
      <trkpt lat="44.87033" lon="6.72574">
        <ele>1671.8698730469</ele>
        <time>2007-08-27T14:12:58Z</time>
      </trkpt>
      <trkpt lat="44.87031" lon="6.72574">
        <ele>1672.8312988281</ele>
        <time>2007-08-27T14:12:59Z</time>
      </trkpt>
    </trkseg>
  </trk>
</gpx>